     2              OBSERVATION DATA    GPS                 RINEX VERSION / TYPE
ASRINEXO V2.8.2 VM IGPP 14-AUG-97 14:58                     PGM / RUN BY / DATE
                                                            COMMENT
BIT 2 OF LLI (+4) FLAGS DATA COLLECTED UNDER "AS" CONDITION COMMENT
Original Marker Name: 0821                                  COMMENT
Campaign Name: hpgn california 1991                         COMMENT
4-Character Station Name: 0821                              COMMENT
6-Character Antenna Code: ASHL12                            COMMENT
Vertical Measurement Point: TGP                             COMMENT
Vertical Offset to Rinex Ref. Point: 0.0640                 COMMENT
Radial Measurement Point: OCH                               COMMENT
Radial Offset to Rinex Ref. Point: 0.1147                   COMMENT
Antenna Height from Field Measurement: 1.8440 m             COMMENT
Additional Antenna Identification Info.:                    COMMENT
Original Ashtech L1/L2                                      COMMENT
Original XYZ: -2380767.8700 -4759642.5100 3506414.3900      COMMENT
New XYZ position is based on association with SCEC monument COMMENT
E1D0K4I3+0011. Position of that monument is believed to be  COMMENT
valid to within 1 m horizontally; vertical accuracy         COMMENT
should be no worse than 3-times this value.                 COMMENT
                                                            COMMENT
Revised Rinex header created by UCSD GPS archive for        COMMENT
GSAC on 12-Apr-1999 (1999:102) 08:36:13 GMT                 COMMENT
For assistance contact dagnew@ucsd.edu or hjohnson@ucsd.edu COMMENT
                                                            COMMENT
HPGN CALIF STA 08-21 1990 SANTA ROSA                        MARKER NAME
LSW CALIF DEPT TRANSPORTATION                               OBSERVER / AGENCY
553 ASHTECH L-XII3 6A                                       REC # / TYPE / VERS
635 ASHTECH GEODETIC L                                      ANT # / TYPE
 -2380334.0000 -4759514.0000  3506821.0000                  APPROX POSITION XYZ
        1.7764        0.0000        0.0000                  ANTENNA: DELTA H/E/N
     1     2     0                                          WAVELENGTH FACT L1/2
     3    C1    L1    L2                                    # / TYPES OF OBSERV
     0                                                      INTERVAL
  1991     4    12    20    40   40.000000                  TIME OF FIRST OBS
  1991     4    13     2    42   15.000000                  TIME OF LAST OBS
     0                                                      # OF SATELLITES
                                                            END OF HEADER
 91  4 12 20 40 40.0000000  0  3 02 11 18
  23817346.690           0.246 2         0.159 1
  23581834.834           0.338 2         0.096 1
  20617155.743           0.547 4         0.072 4
 91  4 12 20 41  0.0000000  0  3 02 11 18
  23806777.808      -55532.492 2    -43272.346 1
  23575374.013      -33932.127 2    -26440.623 1
  20622514.531       28149.682 4     21934.419 3
 91  4 12 20 41 20.0000000  0  4 02 19 11 18
  23796138.480     -111397.745 2    -86803.953 1
  20941273.051           0.163 3         0.233 3
  23568866.705      -68103.406 2    -53067.415 1
  20627830.443       56085.137 4     43702.260 4
 91  4 12 20 41 40.0000000  0  4 02 19 11 18
  23785483.255     -167430.814 2   -130465.864 1
  20941307.830         187.078 3       145.891 3
  23562351.317     -102348.078 2    -79751.419 1
  20633135.274       83971.186 4     65431.604 4
 91  4 12 20 42  0.0000000  0  4 02 19 11 18
  23774822.027     -223477.826 2   -174139.092 1
  20941339.013         345.887 3       269.651 3
  23555853.031     -136512.159 2   -106372.630 1
  20638460.191      111961.186 4     87241.945 4
 91  4 12 20 42 15.0000000  0  4 02 19 11 18
  23766831.957     -265463.759 2   -206855.209 1
  20941367.788         504.693 3       393.398 3
  23550995.780     -162023.539 2   -126251.493 1
  20642481.611      133080.343 4    103698.386 4
 91  4 12 20 42 30.0000000  0  4 02 19 11 18
  23758851.483     -307364.503 2   -239504.958 1
  20941413.368         740.535 3       577.174 3
  23546174.215     -187395.899 2   -146022.068 1
  20646527.007      154350.776 4    120272.719 4
 91  4 12 20 42 45.0000000  0  4 02 19 11 18
  23750894.097     -349195.846 2   -272100.614 1
  20941466.417        1037.426 3       808.523 3
  23541367.657     -212644.911 2   -165696.493 1
  20650602.977      175756.513 4    136952.474 4
 91  4 12 20 43  0.0000000  0  4 02 19 11 18
  23742954.387     -390943.740 2   -304631.228 2
  20941545.275        1409.039 3      1098.106 3
  23536585.669     -237756.285 2   -185263.699 1
  20654705.052      197311.185 4    153748.282 3
 91  4 12 20 43 15.0000000  0  4 02 19 11 18
  23735032.983     -432585.910 2   -337079.466 1
  20941627.413        1877.592 3      1463.209 3
  23531835.441     -262707.731 2   -204706.265 1
  20658838.590      219036.639 4    170677.168 3
 91  4 12 20 43 30.0000000  0  4 02 19 11 18
  23727120.863     -474133.738 2   -369454.178 1
  20941734.732        2431.396 3      1894.752 3
  23527122.713     -287510.407 2   -224032.914 1
  20663001.496      240921.527 4    187730.294 3
 91  4 12 20 43 45.0000000  0  4 02 19 11 18
  23719224.918     -515608.196 2   -401771.768 1
  20941849.554        3049.302 3      2376.254 3
  23522425.865     -312185.127 2   -243259.862 1
  20667195.900      262945.105 4    204891.483 3
 91  4 12 20 44  0.0000000  0  4 02 19 11 18
  23711355.673     -556987.345 2   -434015.045 1
  20941988.667        3753.383 3      2924.890 3
  23517757.495     -336709.512 2   -262369.644 1
  20671416.079      285128.842 4    222177.468 4
 91  4 12 20 44 15.0000000  0  4 02 19 11 18
  23703498.101     -598264.307 2   -466178.751 1
  20942135.563        4550.324 3      3545.880 3
  23513123.311     -361076.474 2   -281356.772 1
  20675669.534      307479.680 4    239593.667 3
 91  4 12 20 44 30.0000000  0  4 02 19 11 18
  23695662.134     -639433.657 2   -498258.562 1
  20942310.345        5445.071 3      4243.097 3
  23508511.899     -385280.613 2   -300217.017 1
  20679954.173      330002.711 4    257144.040 4
 91  4 12 20 44 45.0000000  0  4 02 19 11 18
  23687851.050     -680523.096 2   -530276.098 1
  20942489.611        6409.848 3      4994.872 3
  23503931.374     -409349.328 2   -318971.778 1
  20684267.274      352669.989 4    274806.812 4
 91  4 12 20 45  0.0000000  0  4 02 19 11 18
  23680039.355     -721514.051 2   -562216.914 1
  20942690.480        7463.101 3      5815.596 3
  23499385.016     -433263.976 2   -337606.448 1
  20688613.966      375499.823 4    292596.252 4
 91  4 12 20 45 15.0000000  0  4 02 19 11 18
  23672258.844     -762400.329 2   -594076.178 1
  20942905.729        8610.938 3      6710.019 3
  23494862.652     -457018.194 2   -356116.121 1
  20692991.545      398498.127 4    310516.963 4
 91  4 12 20 45 30.0000000  0  4 02 19 11 18
  23664497.807     -803193.483 2   -625862.839 1
  20943145.564        9841.793 3      7669.130 3
  23490367.564     -480623.168 2   -374509.484 1
  20697393.991      421653.372 4    328559.969 4
 91  4 12 20 45 45.0000000  0  4 02 19 11 18
  23656744.885     -843899.043 2   -657581.280 1
  20943392.886       11149.883 3      8688.421 3
  23485906.049     -504084.311 2   -392790.758 1
  20701829.121      444960.100 4    346721.018 4
 91  4 12 20 46  0.0000000  0  4 02 19 11 18
  23649021.924     -884511.446 2   -689227.127 1
  20943663.312       12540.678 3      9772.169 3
  23481467.010     -527395.831 2   -410955.499 1
  20706296.027      468423.371 4    365004.043 4
 91  4 12 20 46 15.0000000  0  4 02 19 11 18
  23641315.455     -925020.675 2   -720792.577 1
  20943936.112       14024.097 3     10928.094 3
  23477068.159     -550547.426 2   -428995.604 1
  20710792.617      492053.255 4    383416.900 3
 91  4 12 20 46 30.0000000  0  4 02 19 11 18
  23633624.882     -965447.725 2   -752293.993 1
  20944238.611       15578.700 3     12139.475 3
  23472685.799     -573560.030 2   -446927.376 1
  20715316.481      515828.162 4    401942.759 4
 91  4 12 20 46 45.0000000  0  5 02 19 11 16 18
  23625940.609    -1005792.778 2   -783731.532 1
  20944543.798       17204.356 3     13406.227 3
  23468331.010     -596433.680 2   -464750.888 1
  24659051.800           0.194 2         0.071 1
  20719865.840      539748.010 4    420581.558 4
 91  4 12 20 47  0.0000000  0  5 02 19 11 16 18
  23618284.797    -1046066.390 2   -815113.377 1
  20944869.960       18890.225 3     14719.896 3
  23464003.216     -619178.754 2   -482474.236 1
  24654098.329      -26043.869 2    -20294.005 1
  20724444.271      563801.747 4    439324.693 4
 91  4 12 20 47 15.0000000  0  5 02 19 11 16 18
  23610627.205    -1086269.953 2   -846440.653 1
  20945193.749       20634.765 3     16079.287 3
  23459704.181     -641796.396 2   -500098.262 1
  24649158.050      -51959.196 2    -40487.831 1
  20729049.977      587987.896 4    458170.996 3
 91  4 12 20 47 30.0000000  0  5 02 19 11 16 18
  23602995.387    -1126387.928 2   -877701.228 1
  20945549.000       22453.262 3     17496.306 3
  23455420.745     -664271.047 2   -517610.857 1
  24644262.130      -77730.350 2    -60569.254 1
  20733679.066      612321.535 4    477132.231 3
 91  4 12 20 47 45.0000000  0  5 02 19 11 16 18
  23595378.559    -1166420.174 2   -908895.030 1
  20945902.751       24346.054 3     18971.220 3
  23451170.885     -686602.150 2   -535011.614 1
  24639372.509     -103357.018 2    -80538.040 1
  20738335.151      636803.038 4    496208.678 3
 91  4 12 20 48  0.0000000  0  5 02 19 11 16 18
  23587770.125    -1206390.254 2   -940040.359 1
  20946277.494       26289.277 3     20485.427 3
  23446945.018     -708813.180 2   -552318.793 1
  24634530.562     -128862.637 2   -100412.584 1
  20743019.400      661408.665 4    515381.851 3
 91  4 12 20 48 15.0000000  0  5 02 19 11 16 18
  23580184.777    -1246293.115 2   -971133.325 1
  20946649.533       28287.915 3     22042.806 3
  23442742.534     -730898.771 2   -569528.257 1
  24629700.010     -154242.166 2   -120188.871 1
  20747726.753      686143.306 4    534655.552 3
 91  4 12 20 48 30.0000000  0  5 02 19 11 16 18
  23572600.929    -1286120.540 2  -1002167.521 1
  20947049.161       30350.163 3     23649.776 3
  23438570.623     -752850.500 2   -586633.377 1
  24624900.642     -179487.339 2   -139860.402 1
  20752460.474      711014.820 4    554035.907 3
 91  4 12 20 48 45.0000000  0  5 02 19 11 16 18
  23565035.667    -1325887.363 2  -1033154.483 1
  20947445.193       32460.753 3     25294.391 3
  23434408.903     -774683.145 2   -603645.727 1
  24620113.245     -204612.956 2   -159438.823 1
  20757215.187      736008.241 4    573511.255 3
 91  4 12 20 49  0.0000000  0  5 02 19 11 16 18
  23557479.094    -1365578.831 2  -1064082.723 1
  20947863.388       34634.433 3     26988.176 3
  23430280.461     -796381.670 2   -620553.559 1
  24615357.048     -229603.973 2   -178912.356 1
  20761994.767      761138.090 4    593092.911 3
 91  4 12 20 49 15.0000000  0  5 02 19 11 16 18
  23549941.420    -1405198.953 2  -1094955.408 1
  20948285.508       36866.934 3     28727.794 3
  23426175.402     -817950.133 2   -637360.035 1
  24610618.232     -254464.697 2   -198284.325 1
  20766802.843      786400.022 4    612777.495 3
 91  4 12 20 49 30.0000000  0  5 02 19 11 16 18
  23542419.330    -1444732.570 2  -1125760.641 1
  20948726.790       39173.461 3     30525.102 3
  23422102.417     -839373.077 2   -654053.136 1
  24605921.977     -279179.774 2   -217542.765 1
  20771640.584      811809.145 4    632576.752 3
 91  4 12 20 49 45.0000000  0  5 02 19 11 16 18
  23534917.010    -1484191.160 2  -1156507.428 1
  20949174.981       41542.289 3     32370.942 3
  23418050.720     -860661.766 2   -670641.608 1
  24601250.606     -303760.479 2   -236696.611 1
  20776501.133      837353.960 4    652481.762 4
 91  4 12 20 50  0.0000000  0  5 02 19 11 16 18
  23527418.913    -1523567.103 2  -1187189.823 1
  20949645.369       43980.991 3     34271.230 3
  23414027.799     -881808.229 2   -687119.274 1
  24596584.331     -328199.042 2   -255739.623 1
  20781390.439      863041.800 4    672498.209 3
 91  4 12 20 50 15.0000000  0  5 02 19 11 16 18
  23519932.490    -1562908.300 2  -1217845.144 1
  20950109.143       46441.293 3     36188.365 3
  23410022.870     -902860.461 3   -703523.509 1
  24591966.340     -352543.623 2   -274709.457 1
  20786295.643      888824.275 4    692588.398 3
 91  4 12 20 50 30.0000000  0  5 02 19 11 16 18
  23512459.871    -1602169.072 2  -1248437.781 1
  20950591.502       48968.888 3     38157.930 3
  23406037.135     -923772.503 2   -719818.530 1
  24587351.037     -376748.335 2   -293570.277 1
  20791228.139      914747.091 4    712787.956 3
 91  4 12 20 50 45.0000000  0  5 02 19 11 16 18
  23505007.022    -1641337.687 2  -1278958.630 1
  20951081.976       51575.280 3     40188.892 3
  23402088.273     -944532.344 3   -735994.897 1
  24582777.998     -400801.362 2   -312312.900 1
  20796190.004      940821.807 4    733105.868 3
 91  4 12 20 51  0.0000000  0  5 02 19 11 16 18
  23497568.274    -1680421.350 2  -1309413.286 1
  20951597.909       54253.250 3     42275.629 3
  23398166.982     -965147.031 3   -752058.209 1
  24578230.139     -424709.733 2   -330942.776 1
  20801179.737      967041.141 4    753536.480 3
 91  4 12 20 51 15.0000000  0  5 02 19 11 16 18
  23490148.110    -1719420.252 2  -1339801.884 1
  20952114.749       57002.511 3     44417.919 3
  23394275.374     -985616.724 2   -768008.491 1
  24573708.369     -448473.884 2   -349460.316 1
  20806195.575      993404.435 4    774079.258 4
 91  4 12 20 51 30.0000000  0  5 02 19 11 16 18
  23482743.529    -1758338.991 2  -1370127.993 1
  20952657.381       59818.208 3     46611.975 3
  23390405.963    -1005945.819 2   -783849.245 1
  24569208.796     -472098.411 2   -367869.031 1
  20811239.281     1019906.806 4    794730.411 3
 91  4 12 20 51 45.0000000  0  5 02 19 11 16 18
  23475347.359    -1797195.201 2  -1400405.410 1
  20953199.403       62682.562 3     48843.949 3
  23386557.230    -1026151.850 2   -799594.089 1
  24564739.777     -495600.645 2   -386182.436 1
  20816305.777     1046530.562 4    815476.150 3
 91  4 12 20 52  0.0000000  0  5 02 19 11 16 18
  23467958.064    -1836006.174 2  -1430647.559 2
  20953750.428       65578.192 3     51100.285 3
  23382732.474    -1046251.817 2   -815256.309 1
  24560288.471     -518997.762 2   -404413.999 1
  20821393.249     1073258.094 4    836302.749 3
 91  4 12 20 52 15.0000000  0  5 02 19 11 16 18
  23460585.870    -1874744.871 2  -1460833.399 1
  20954309.533       68531.817 3     53401.815 3
  23378934.399    -1066218.634 2   -830814.761 1
  24555847.635     -542263.153 2   -422542.878 1
  20826503.213     1100116.456 4    857231.299 3
 91  4 12 20 52 30.0000000  0  5 02 19 11 16 18
  23453236.467    -1913391.690 2  -1490947.651 1
  20954887.240       71563.154 3     55763.900 3
  23375160.912    -1086032.414 2   -846253.995 1
  24551469.777     -565376.381 2   -440553.172 1
  20831644.955     1127124.979 4    878276.856 3
 91  4 12 20 52 45.0000000  0  5 02 19 11 16 18
  23445894.846    -1951971.419 2  -1521009.612 1
  20955475.731       74647.285 3     58167.123 3
  23371410.511    -1105717.708 2   -861593.079 1
  24547093.105     -588362.595 2   -458464.490 1
  20836807.375     1154258.426 4    899419.750 4
 91  4 12 20 53  0.0000000  0  5 02 19 11 16 18
  23438566.714    -1990469.176 2  -1551007.734 1
  20956080.713       77798.869 3     60622.906 3
  23367699.077    -1125259.393 2   -876820.248 2
  24542738.613     -611206.844 2   -476265.243 1
  20841996.494     1181531.707 4    920671.610 4
 91  4 12 20 53 15.0000000  0  5 02 19 11 16 18
  23431256.277    -2028906.487 2  -1580958.747 1
  20956683.897       80996.322 3     63114.426 3
  23364000.241    -1144678.959 2   -891952.284 1
  24538416.804     -633930.652 2   -493972.129 1
  20847207.775     1208923.054 4    942015.466 4
 91  4 12 20 53 30.0000000  0  5 02 19 11 16 18
  23423954.234    -2067255.783 2  -1610841.161 2
  20957308.056       84266.966 3     65662.980 3
  23360334.980    -1163948.554 2   -906967.451 1
  24534113.581     -656506.353 2   -511563.582 1
  20852449.942     1236459.915 4    963472.701 4
 91  4 12 20 53 45.0000000  0  5 02 19 11 16 18
  23416666.883    -2105543.590 2  -1640675.647 1
  20957936.421       87584.154 3     68247.804 3
  23356691.305    -1183094.642 2   -921886.376 1
  24529852.342     -678960.363 2   -529060.192 1
  20857712.806     1264115.387 4    985022.377 3
 91  4 12 20 54  0.0000000  0  5 02 19 11 16 18
  23409397.506    -2143759.751 2  -1670454.332 1
  20958582.481       90958.135 3     70876.884 3
  23353073.107    -1202106.741 2   -936700.883 1
  24525605.779     -701282.468 2   -546454.033 1
  20862998.738     1291899.585 4   1006672.356 3
 91  4 12 20 54 15.0000000  0  5 02 19 11 16 18
  23402137.134    -2181905.719 2  -1700178.293 1
  20959233.932       94387.133 3     73548.835 3
  23349480.386    -1220986.240 2   -951412.086 1
  24521375.114     -723474.119 2   -563746.214 1
  20868307.775     1319810.718 4   1028421.236 3
 91  4 12 20 54 30.0000000  0  5 02 19 11 16 18
  23394890.547    -2219976.026 2  -1729843.330 1
  20959898.855       97876.466 3     76267.796 3
  23345914.068    -1239727.600 2   -966015.623 1
  24517181.006     -745529.727 2   -580932.406 1
  20873645.570     1347854.297 4   1050273.326 3
 91  4 12 20 54 45.0000000  0  5 02 19 11 16 18
  23387652.371    -2257979.256 2  -1759456.090 1
  20960567.408      101417.567 3     79027.099 3
  23342377.101    -1258339.102 2   -980517.993 1
  24513010.893     -767457.682 2   -598019.110 1
  20879007.062     1376021.510 4   1072221.750 3
 91  4 12 20 55  0.0000000  0  5 02 19 11 16 18
  23380431.872    -2295923.814 2  -1789023.141 1
  20961254.231      105002.014 3     81820.180 3
  23338850.656    -1276828.916 2   -994925.533 1
  24508855.473     -789266.364 2   -615012.946 1
  20884387.139     1404303.477 4   1094259.594 3
 91  4 12 20 55 15.0000000  0  5 02 19 11 16 18
  23373229.644    -2333806.962 2  -1818542.304 1
  20961942.555      108632.301 3     84648.975 3
  23335355.063    -1295194.149 2  -1009235.982 1
  24504731.236     -810953.336 2   -631911.881 1
  20889791.803     1432702.926 4   1116388.976 3
 91  4 12 20 55 30.0000000  0  5 02 19 11 16 18
  23366038.828    -2371605.535 2  -1847995.575 1
  20962654.262      112331.276 3     87531.292 3
  23331895.767    -1313411.785 2  -1023431.443 1
  24500638.165     -832495.402 2   -648697.915 1
  20895224.928     1461242.598 4   1138627.628 3
 91  4 12 20 55 45.0000000  0  5 02 19 11 16 18
  23358847.105    -2409348.982 2  -1877405.902 1
  20963356.075      116069.450 3     90444.154 3
  23328447.552    -1331510.883 2  -1037534.544 1
  24496552.284     -853921.644 2   -665393.670 1
  20900676.359     1489892.694 4   1160952.325 3
 91  4 12 20 56  0.0000000  0  5 02 19 11 16 18
  23351690.456    -2447006.858 2  -1906749.555 1
  20964080.067      119877.337 3     93411.340 3
  23325032.021    -1349460.858 2  -1051521.424 1
  24492499.994     -875201.846 2   -681975.637 1
  20906155.675     1518683.703 4   1183386.818 3
 91  4 12 20 56 15.0000000  0  5 02 19 11 16 18
  23344535.012    -2484599.482 2  -1936042.367 1
  20964815.157      123734.440 3     96416.877 3
  23321636.260    -1367281.859 2  -1065407.814 1
  24488480.982     -896356.203 2   -698459.564 1
  20911655.966     1547595.049 4   1205915.089 3
 91  4 12 20 56 30.0000000  0  5 02 19 11 16 18
  23337397.262    -2522106.113 2  -1965268.160 1
  20965565.238      127661.370 3     99476.824 3
  23318278.594    -1384952.947 2  -1079177.364 1
  24484476.942     -917363.886 2   -714829.176 1
  20917185.329     1576647.362 4   1228553.197 3
 91  4 12 20 56 45.0000000  0  5 02 19 11 16 18
  23330269.389    -2559557.362 2  -1994450.789 1
  20966316.225      131627.350 3    102567.201 3
  23314937.104    -1402504.426 2  -1092853.758 1
  24480505.604     -938255.233 2   -731108.169 1
  20922733.591     1605809.771 4   1251277.102 3
 91  4 12 20 57  0.0000000  0  5 02 19 11 16 18
  23323148.723    -2596936.388 2  -2023577.150 1
  20967089.078      135649.010 3    105700.974 3
  23311627.391    -1419919.484 2  -1106423.825 1
  24476548.645     -959013.403 2   -747283.344 1
  20928308.237     1635098.938 4   1274099.773 3
 91  4 12 20 57 15.0000000  0  5 02 19 11 16 18
  23316054.128    -2634259.839 2  -2052660.225 1
  20967854.165      139709.688 3    108865.130 3
  23308338.374    -1437214.621 2  -1119900.454 1
  24472626.151     -979655.188 2   -763367.834 1
  20933903.266     1664497.771 4   1297007.894 3
 91  4 12 20 57 30.0000000  0  5 02 19 11 16 18
  23308965.535    -2671503.772 2  -2081681.294 1
  20968644.102      143833.192 3    112078.254 3
  23305067.034    -1454365.687 2  -1133264.806 1
  24468724.055    -1000156.537 2   -779342.944 1
  20939521.678     1694030.151 4   1320020.082 3
 91  4 12 20 57 45.0000000  0  5 02 19 11 16 18
  23301893.136    -2708669.794 2  -2110641.691 1
  20969437.668      148017.702 3    115338.912 3
  23301829.583    -1471374.197 2  -1146518.120 1
  24464848.641    -1020519.107 2   -795209.871 1
  20945167.661     1723694.231 4   1343134.884 3
 91  4 12 20 58  0.0000000  0  5 02 19 11 16 18
  23294834.227    -2745752.156 2  -2139536.875 1
  20970250.098      152269.085 3    118651.680 3
  23298629.893    -1488234.288 2  -1159655.749 1
  24461000.798    -1040737.172 2   -810964.199 1
  20950835.544     1753495.416 4   1366356.534 3
 91  4 12 20 58 15.0000000  0  5 02 19 11 16 18
  23287797.496    -2782765.018 2  -2168377.911 1
  20971065.529      156572.854 3    122005.268 3
  23295436.800    -1504959.898 2  -1172688.578 2
  24457179.340    -1060824.658 2   -826616.834 1
  20956534.000     1783419.533 4   1389673.968 3
 91  4 12 20 58 30.0000000  0  5 02 19 11 16 18
  23280755.374    -2819743.571 2  -2197192.200 1
  20971893.856      160893.863 3    125372.292 3
  23292279.393    -1521585.948 2  -1185643.863 1
  24453374.390    -1080816.808 2   -842195.103 1
  20962244.740     1813431.224 4   1413059.642 3
 91  4 12 20 58 45.0000000  0  5 02 19 11 16 18
  23273732.429    -2856637.589 2  -2225940.627 1
  20972721.293      165282.301 3    128791.854 3
  23289141.756    -1538062.081 2  -1198482.294 1
  24449602.089    -1100663.216 2   -857659.882 1
  20967980.365     1843580.421 4   1436552.466 3
 91  4 12 20 59  0.0000000  0  5 02 19 11 16 18
  23266724.177    -2893469.651 2  -2254640.783 1
  20973571.799      169715.414 3    132246.245 3
  23286032.616    -1554410.788 2  -1211221.460 1
  24445842.701    -1120386.593 2   -873028.730 1
  20973740.874     1873844.124 4   1460134.515 3
 91  4 12 20 59 15.0000000  0  5 02 19 11 16 18
  23259730.322    -2930241.711 2  -2283294.179 2
  20974417.506      174191.010 3    135733.716 3
  23282942.357    -1570633.942 2  -1223862.814 1
  24442118.075    -1139988.725 2   -888303.134 1
  20979518.781     1904220.329 4   1483804.229 3
 91  4 12 20 59 30.0000000  0  5 02 19 11 16 18
  23252748.455    -2966954.831 2  -2311901.635 2
  20975280.611      178707.958 3    139253.417 3
  23279882.671    -1586732.268 2  -1236406.881 1
  24438403.342    -1159470.715 2   -903483.918 1
  20985323.369     1934707.789 4   1507560.634 3
 91  4 12 20 59 45.0000000  0  5 02 19 11 16 18
  23245771.980    -3003565.779 2  -2340429.501 1
  20976150.609      183309.461 3    142839.012 3
  23276845.181    -1602662.323 2  -1248819.823 1
  24434736.283    -1178789.156 2   -918537.246 1
  20991154.324     1965349.624 4   1531437.329 3
 91  4 12 21  0  0.0000000  0  5 02 19 11 16 18
  23238828.800    -3040104.807 2  -2368901.306 1
  20977044.287      187965.093 3    146466.772 3
  23273842.452    -1618454.558 2  -1261125.359 2
  24431078.823    -1197974.662 2   -933486.962 1
  20997008.680     1996115.004 4   1555410.291 3
 91  4 12 21  0 15.0000000  0  5 02 19 11 16 18
  23231879.896    -3076582.797 2  -2397325.573 1
  20977932.277      192664.034 3    150128.285 3
  23270862.514    -1634119.400 2  -1273331.645 1
  24427457.623    -1217037.664 2   -948341.262 1
  21002883.104     2026993.361 4   1579471.280 3
 91  4 12 21  0 30.0000000  0  5 02 19 11 16 18
  23224957.098    -3112989.021 2  -2425693.893 1
  20978843.946      197416.882 3    153831.808 3
  23267908.070    -1649645.948 2  -1285430.162 2
  24423855.619    -1235967.331 2   -963091.637 1
  21008782.115     2057994.762 4   1603628.151 3
 91  4 12 21  0 45.0000000  0  5 02 19 11 16 18
  23218030.391    -3149341.051 2  -2454019.997 2
  20979748.722      202205.820 3    157563.452 3
  23264973.397    -1665051.744 2  -1297434.602 1
  24420269.791    -1254781.303 2   -977751.891 1
  21014703.916     2089101.490 4   1627867.098 3
 91  4 12 21  1  0.0000000  0  5 02 19 11 16 18
  23211130.663    -3185627.118 2  -2482294.691 1
  20980670.286      207042.370 3    161332.203 3
  23262066.906    -1680324.917 2  -1309335.680 2
  24416718.462    -1273467.664 2   -992312.701 1
  21020643.412     2120324.930 4   1652196.983 3
 91  4 12 21  1 15.0000000  0  5 02 19 11 16 18
  23204241.735    -3221831.909 3  -2510506.076 1
  20981601.743      211941.883 3    165150.013 3
  23259192.192    -1695450.062 2  -1321121.420 2
  24413191.704    -1292011.319 2  -1006762.342 1
  21026608.089     2151680.649 4   1676629.954 3
 91  4 12 21  1 30.0000000  0  5 02 19 11 16 18
  23197355.513    -3257986.646 2  -2538678.423 1
  20982542.188      216873.176 3    168992.583 3
  23256334.579    -1710458.006 2  -1332815.844 1
  24409677.823    -1310443.345 2  -1021124.936 1
  21032595.537     2183137.176 4   1701141.468 3
 91  4 12 21  1 45.0000000  0  5 02 19 11 16 18
  23190495.361    -3294053.851 2  -2566782.631 1
  20983486.838      221873.587 3    172889.012 3
  23253512.321    -1725311.129 2  -1344389.620 2
  24406194.847    -1328726.359 2  -1035371.469 1
  21038606.073     2214731.520 4   1725760.370 3
 91  4 12 21  2  0.0000000  0  5 02 19 11 16 18
  23183641.492    -3330069.502 2  -2594846.624 1
  20984450.369      226907.153 3    176811.275 3
  23250705.680    -1740045.169 2  -1355870.611 1
  24402735.533    -1346896.016 2  -1049529.653 1
  21044639.399     2246427.686 4   1750458.621 3
 91  4 12 21  2 15.0000000  0  5 02 19 11 16 18
  23176804.130    -3366004.281 2  -2622847.590 1
  20985418.996      232002.854 3    180781.961 3
  23247928.390    -1754630.859 2  -1367236.023 1
  24399315.797    -1364923.433 2  -1063576.988 1
  21050696.701     2278254.319 4   1775258.530 3
 91  4 12 21  2 30.0000000  0  5 02 19 11 16 18
  23169975.755    -3401869.991 2  -2650794.753 1
  20986403.520      237148.815 3    184791.804 3
  23245180.191    -1769079.800 3  -1378494.852 1
  24395903.860    -1382819.878 2  -1077522.295 1
  21056775.292     2310199.629 4   1800150.915 3
 91  4 12 21  2 45.0000000  0  5 02 19 11 16 18
  23163165.982    -3437662.553 2  -2678684.914 1
  20987388.934      242349.070 3    188843.951 3
  23242456.578    -1783387.809 2  -1389643.869 1
  24392523.107    -1400581.853 2  -1091362.780 1
  21062877.581     2342267.298 4   1825138.642 3
 91  4 12 21  3  0.0000000  0  5 02 19 11 16 18
  23156378.371    -3473354.928 2  -2706496.996 2
  20988395.637      247630.647 3    192959.473 3
  23239768.337    -1797527.698 2  -1400661.879 1
  24389183.415    -1418181.824 2  -1105077.076 1
  21069009.221     2374484.371 4   1850242.790 3
 91  4 12 21  3 15.0000000  0  5 02 19 11 16 18
  23149601.858    -3508971.853 2  -2734250.288 2
  20989406.528      252968.498 3    197118.840 3
  23237100.792    -1811524.206 2  -1411568.171 1
  24385854.227    -1435644.563 2  -1118684.396 1
  21075161.871     2406825.698 4   1875443.747 3
 91  4 12 21  3 30.0000000  0  5 02 19 11 16 18
  23142831.959    -3544514.345 2  -2761945.582 2
  20990432.426      258361.623 3    201321.278 3
  23234468.915    -1825378.035 2  -1422363.274 2
  24382558.614    -1452971.163 2  -1132185.661 1
  21081341.796     2439290.373 4   1900740.835 3
 91  4 12 21  3 45.0000000  0  5 02 19 11 16 18
  23136080.330    -3579981.154 2  -2789581.911 1
  20991471.203      263811.314 3    205567.801 3
  23231856.216    -1839087.747 2  -1433046.056 1
  24379282.179    -1470160.298 2  -1145579.807 1
  21087541.492     2471879.180 4   1926134.643 3
 91  4 12 21  4  0.0000000  0  5 02 19 11 16 18
  23129347.582    -3615380.045 2  -2817165.305 2
  20992522.578      269309.664 3    209852.228 3
  23229270.216    -1852661.052 2  -1443622.593 1
  24376044.116    -1487219.613 2  -1158872.745 1
  21093766.682     2504584.057 4   1951618.891 3
 91  4 12 21  4 15.0000000  0  5 02 19 11 16 18
  23122621.134    -3650720.118 2  -2844702.901 2
  20993570.359      274847.387 3    214167.335 3
  23226718.977    -1866106.984 2  -1454099.880 1
  24372822.841    -1504158.299 2  -1172071.775 1
  21100010.772     2537395.625 4   1977186.283 3
 91  4 12 21  4 30.0000000  0  5 02 19 11 16 18
  23115918.087    -3685982.509 2  -2872179.930 2
  20994640.319      280443.276 3    218527.768 3
  23224184.228    -1879406.528 2  -1464463.056 1
  24369617.166    -1520957.360 2  -1185161.933 1
  21106277.930     2570332.557 4   2002851.361 3
 91  4 12 21  4 45.0000000  0  5 02 19 11 16 18
  23109214.428    -3721177.933 2  -2899604.808 1
  20995710.576      286086.447 3    222925.054 3
  23221677.976    -1892570.158 2  -1474720.364 1
  24366445.066    -1537627.357 2  -1198151.541 1
  21112566.675     2603384.060 4   2028605.719 3
 91  4 12 21  5  0.0000000  0  5 02 19 11 16 18
  23102533.246    -3756305.895 2  -2926977.097 1
  20996794.915      291777.475 3    227359.626 3
  23219201.074    -1905597.359 2  -1484871.348 1
  24363304.131    -1554168.082 2  -1211040.459 1
  21118881.507     2636550.474 4   2054449.615 3
 91  4 12 21  5 15.0000000  0  5 02 19 11 16 18
  23095854.769    -3791363.453 2  -2954294.530 2
  20997884.664      297519.235 3    231833.718 3
  23216748.184    -1918484.956 2  -1494913.572 1
  24360168.310    -1570576.393 2  -1223826.147 1
  21125213.720     2669834.194 4   2080384.907 3
 91  4 12 21  5 30.0000000  0  5 02 19 11 16 18
  23089198.174    -3826354.707 2  -2981560.304 2
  20998992.404      303307.507 3    236344.060 3
  23214320.458    -1931236.901 2  -1504850.076 1
  24357077.440    -1586856.550 2  -1236512.000 1
  21131568.723     2703231.074 4   2106408.390 3
 91  4 12 21  5 45.0000000  0  5 02 19 11 16 18
  23082553.584    -3861281.451 2  -3008775.799 1
  21000096.828      309140.461 3    240889.227 3
  23211918.819    -1943854.898 2  -1514682.241 1
  24354003.375    -1603010.123 2  -1249099.224 1
  21137944.997     2736739.068 4   2132518.455 3
 91  4 12 21  6  0.0000000  0  5 02 19 11 16 18
  23075922.170    -3896135.699 2  -3035934.828 1
  21001218.964      315025.794 3    245475.201 3
  23209543.862    -1956330.872 2  -1524403.711 1
  24350962.587    -1619029.062 2  -1261581.523 1
  21144343.469     2770366.163 4   2158721.324 3
 91  4 12 21  6 15.0000000  0  5 02 19 11 16 18
  23069305.152    -3930929.164 2  -3063046.460 2
  21002344.678      320951.711 3    250092.801 3
  23207196.790    -1968676.460 2  -1534023.570 1
  24347926.284    -1634925.515 2  -1273968.398 1
  21150760.525     2804100.014 4   2185007.371 3
 91  4 12 21  6 30.0000000  0  5 02 19 11 16 18
  23062690.228    -3965664.942 2  -3090113.160 2
  21003485.084      326915.106 3    254739.603 3
  23204873.992    -1980894.447 2  -1543543.998 2
  24344928.354    -1650702.089 2  -1286261.861 1
  21157204.576     2837937.527 4   2211374.193 3
 91  4 12 21  6 45.0000000  0  5 02 19 11 16 18
  23056095.390    -4000315.611 2  -3117113.560 2
  21004625.508      332943.204 3    259436.822 3
  23202571.593    -1992957.425 2  -1552943.645 1
  24341951.713    -1666331.625 2  -1298440.762 1
  21163667.491     2871905.799 4   2237842.908 3
 91  4 12 21  7  0.0000000  0  5 02 19 11 16 18
  23049513.447    -4034886.858 2  -3144052.038 1
  21005788.391      339030.397 3    264180.095 3
  23200306.362    -2004870.829 2  -1562226.754 1
  24339013.760    -1681819.731 2  -1310509.443 1
  21170150.805     2905998.988 4   2264408.959 3
 91  4 12 21  7 15.0000000  0  5 02 19 11 16 18
  23042952.496    -4069384.708 2  -3170933.350 1
  21006954.292      345170.712 3    268964.755 3
  23198067.814    -2016640.555 3  -1571397.913 1
  24336086.870    -1697172.332 2  -1322472.493 1
  21176662.302     2940210.730 4   2291067.386 3
 91  4 12 21  7 30.0000000  0  5 02 19 11 16 18
  23036400.236    -4103821.786 2  -3197767.301 1
  21008130.367      351351.320 3    273780.813 3
  23195858.040    -2028279.129 3  -1580466.837 2
  24333189.086    -1712402.231 2  -1334339.946 1
  21183194.180     2974528.308 4   2317808.289 3
 91  4 12 21  7 45.0000000  0  5 02 19 11 16 18
  23029859.354    -4138188.632 2  -3224546.516 1
  21009316.057      357581.580 3    278635.549 3
  23193663.256    -2039776.938 3  -1589426.107 1
  24330317.671    -1727499.533 2  -1346104.135 1
  21189747.644     3008960.857 4   2344638.781 3
 91  4 12 21  8  0.0000000  0  5 02 19 11 16 18
  23023335.276    -4172484.316 2  -3251270.289 1
  21010517.627      363862.408 3    283529.706 3
  23191503.862    -2051132.906 3  -1598274.822 2
  24327475.048    -1742463.127 2  -1357764.088 1
  21196320.286     3043508.930 4   2371559.293 3
 91  4 12 21  8 15.0000000  0  5 02 19 11 16 18
  23016824.390    -4206724.722 3  -3277950.993 1
  21011713.193      370177.977 3    288450.933 3
  23189369.037    -2062362.682 3  -1607025.229 1
  24324640.207    -1757309.318 2  -1369332.550 1
  21202913.624     3078157.010 4   2398557.728 3
 91  4 12 21  8 30.0000000  0  5 02 19 11 16 18
  23010321.584    -4240877.430 3  -3304563.361 2
  21012927.955      376560.641 3    293424.434 3
  23187260.597    -2073433.881 2  -1615652.071 1
  24321852.134    -1772005.469 2  -1380784.109 1
  21209534.236     3112937.019 4   2425658.968 3
 91  4 12 21  8 45.0000000  0  5 02 19 11 16 18
  23003833.471    -4274956.108 3  -3331118.047 2
  21014150.500      382996.419 3    298439.325 3
  23185186.621    -2084360.111 3  -1624165.956 1
  24319078.753    -1786565.391 2  -1392129.523 1
  21216172.858     3147834.790 4   2452851.968 3
 91  4 12 21  9  0.0000000  0  5 02 19 11 16 18
  22997365.164    -4308947.257 3  -3357604.523 1
  21015392.240      389498.611 3    303505.968 3
  23183133.952    -2095127.711 3  -1632556.224 2
  24316333.851    -1800975.514 2  -1403358.200 1
  21222837.532     3182863.549 4   2480147.033 3
 91  4 12 21  9 15.0000000  0  5 02 19 11 16 18
  22990911.829    -4342873.334 3  -3384040.294 2
  21016635.184      396044.847 3    308606.926 3
  23181110.652    -2105759.073 3  -1640840.316 2
  24313609.942    -1815258.799 2  -1414488.106 1
  21229524.403     3218000.604 4   2507526.489 3
 91  4 12 21  9 30.0000000  0  5 02 19 11 16 18
  22984470.482    -4376725.530 3  -3410418.485 2
  21017897.917      402643.924 3    313749.067 3
  23179115.533    -2116245.193 3  -1649011.245 1
  24310923.499    -1829406.025 2  -1425511.954 1
  21236234.361     3253254.481 4   2534996.972 3
 91  4 12 21  9 45.0000000  0  6 02 19 06 11 16 18
  22978035.139    -4410515.831 3  -3436748.470 2
  21019153.739      409283.792 3    318922.984 3
  24716656.906           0.709 2         0.472 1
  23177145.892    -2126597.948 2  -1657078.258 2
  24308260.142    -1843429.031 2  -1436438.958 1
  21242959.605     3288612.900 3   2562548.920 3
 91  4 12 21 10  0.0000000  0  6 02 19 06 11 16 18
  22971618.380    -4444241.109 3  -3463027.794 2
  21020427.867      415967.393 3    324130.988 3
  24711459.411      -27253.858 2    -21236.634 1
  23175200.542    -2136814.160 3  -1665038.863 1
  24305613.868    -1857324.689 2  -1447266.778 1
  21249713.625     3324079.090 3   2590184.831 3
 91  4 12 21 10 15.0000000  0  6 02 19 06 11 16 18
  22965223.503    -4477890.493 3  -3489247.964 2
  21021705.869      422705.603 3    329381.549 3
  24706288.894      -54487.984 2    -42457.862 1
  23173283.077    -2146882.692 3  -1672884.388 1
  24302992.497    -1871082.411 2  -1457987.085 1
  21256482.040     3359663.656 3   2617913.006 3
 91  4 12 21 10 30.0000000  0  6 02 19 06 11 16 18
  22958828.330    -4511464.839 3  -3515409.651 2
  21023006.084      429497.513 3    334673.939 3
  24701107.279      -81702.773 2    -63663.955 1
  23171398.576    -2156804.390 3  -1680615.535 1
  24300405.572    -1884702.927 2  -1468600.494 1
  21263277.434     3395365.406 4   2645732.479 3
 91  4 12 21 10 45.0000000  0  6 02 19 06 11 16 18
  22952450.258    -4544966.530 2  -3541514.745 2
  21024300.576      436340.675 3    340006.267 3
  24695927.461     -108900.666 2    -84856.908 1
  23169535.957    -2166581.340 2  -1688233.852 1
  24297836.062    -1898188.383 2  -1479108.669 1
  21270092.024     3431181.753 4   2673641.247 3
 91  4 12 21 11  0.0000000  0  6 02 19 06 11 16 18
  22946086.861    -4578405.069 3  -3567570.627 2
  21025620.267      443225.442 3    345371.021 3
  24690748.847     -136091.281 2   -106044.199 1
  23167702.131    -2176223.147 2  -1695746.866 1
  24295287.824    -1911548.161 2  -1489518.949 1
  21276927.885     3467102.970 4   2701631.732 3
 91  4 12 21 11 15.0000000  0  6 02 19 06 11 16 18
  22939741.753    -4611776.425 3  -3593574.153 2
  21026930.953      450155.904 3    350771.383 3
  24685583.425     -163270.877 2   -127222.925 1
  23165895.283    -2185725.596 2  -1703151.306 1
  24292781.851    -1924778.429 2  -1499828.265 1
  21283785.942     3503132.779 4   2729706.845 3
 91  4 12 21 11 30.0000000  0  6 02 19 06 11 16 18
  22933400.832    -4645080.071 3  -3619524.926 1
  21028263.835      457132.404 3    356207.615 3
  24680415.596     -190439.073 2   -148392.729 1
  23164112.726    -2195088.053 3  -1710446.665 1
  24290269.892    -1937878.683 2  -1510036.321 1
  21290659.583     3539271.500 4   2757866.814 3
 91  4 12 21 11 45.0000000  0  6 02 19 06 11 16 18
  22927072.511    -4678312.193 3  -3645419.974 1
  21029595.810      464158.654 3    361682.617 3
  24675251.081     -217592.289 2   -169550.854 1
  23162357.426    -2204306.574 2  -1717629.849 1
  24287819.096    -1950845.427 2  -1520140.287 1
  21297560.202     3575522.563 4   2786114.329 3
 91  4 12 21 12  0.0000000  0  6 02 19 06 11 16 18
  22920769.684    -4711473.121 3  -3671259.521 2
  21030948.185      471234.299 3    367196.111 3
  24670081.454     -244730.859 2   -190697.603 1
  23160626.731    -2213381.299 2  -1724701.004 1
  24285374.879    -1963678.460 2  -1530140.084 1
  21304479.109     3611885.424 4   2814448.950 3
 91  4 12 21 12 15.0000000  0  6 02 19 06 11 16 18
  22914468.637    -4744566.259 3  -3697046.255 1
  21032297.837      478355.949 3    372745.443 3
  24664925.334     -271858.400 2   -211836.181 1
  23158922.717    -2222315.581 3  -1731662.723 1
  24282951.061    -1976381.535 2  -1540038.627 1
  21311421.416     3648356.551 4   2842867.932 3
 91  4 12 21 12 30.0000000  0  6 02 19 06 11 16 18
  22908187.990    -4777593.334 3  -3722781.533 2
  21033667.888      485521.799 3    378329.227 3
  24659756.004     -298976.766 2   -232967.194 1
  23157256.466    -2231110.900 3  -1738516.160 2
  24280561.725    -1988956.299 2  -1549837.155 1
  21318381.383     3684934.166 4   2871369.896 3
 91  4 12 21 12 45.0000000  0  6 02 19 06 11 16 18
  22901923.833    -4810523.064 3  -3748440.937 1
  21035038.551      492762.905 3    383971.644 3
  24654612.465     -326054.940 2   -254066.877 1
  23155613.894    -2239736.021 3  -1745236.977 1
  24278198.756    -2001371.473 2  -1559511.383 1
  21325367.752     3721649.199 4   2899978.938 3
 91  4 12 21 13  0.0000000  0  6 02 19 06 11 16 18
  22895662.066    -4843394.461 3  -3774054.887 2
  21036432.282      500040.493 3    389642.488 3
  24649448.544     -353131.983 2   -275165.635 1
  23153996.521    -2248229.806 2  -1751855.425 1
  24275867.861    -2013665.949 2  -1569091.446 1
  21332374.800     3758462.067 4   2928664.213 3
 91  4 12 21 13 15.0000000  0  6 02 19 06 11 16 18
  22889417.087    -4876209.877 3  -3799625.239 1
  21037811.634      507352.012 3    395339.778 3
  24644303.504     -380210.512 2   -296265.630 1
  23152409.424    -2256594.528 2  -1758373.332 2
  24273539.077    -2025842.159 2  -1578579.460 1
  21339399.542     3795370.342 4   2957423.836 3
 91  4 12 21 13 30.0000000  0  6 02 19 06 11 16 18
  22883193.101    -4908948.113 3  -3825135.424 2
  21039218.244      514718.594 3    401079.968 3
  24639150.368     -407269.465 2   -317350.306 1
  23150843.301    -2264808.936 2  -1764774.092 2
  24271261.858    -2037878.987 2  -1587958.852 1
  21346441.665     3832394.754 4   2986273.955 3
 91  4 12 21 13 45.0000000  0  6 02 19 06 11 16 18
  22876971.505    -4941606.511 3  -3850583.392 2
  21040626.983      522142.831 3    406865.085 3
  24634001.437     -434306.428 2   -338417.874 1
  23149310.160    -2272870.265 2  -1771055.602 1
  24268990.329    -2049773.642 2  -1597227.408 1
  21353510.469     3869537.925 4   3015216.614 3
 91  4 12 21 14  0.0000000  0  6 02 19 06 11 16 18
  22870772.995    -4974207.232 3  -3875986.452 2
  21042050.694      529602.684 3    412677.960 3
  24628865.087     -461343.261 2   -359485.352 1
  23147799.512    -2280800.354 3  -1777234.811 2
  24266757.765    -2061548.143 2  -1606402.405 1
  21360597.561     3906777.928 4   3044234.726 3
 91  4 12 21 14 15.0000000  0  6 02 19 06 11 16 18
  22864590.680    -5006725.052 3  -3901324.899 2
  21043479.500      537123.115 3    418538.031 3
  24623722.159     -488355.177 2   -380533.399 1
  23146323.939    -2288573.979 2  -1783292.125 1
  24264529.721    -2073177.337 2  -1615464.132 1
  21367708.350     3944139.538 4   3073347.595 3
 91  4 12 21 14 30.0000000  0  6 02 19 06 11 16 18
  22858404.752    -5039183.651 3  -3926617.198 2
  21044921.499      544680.396 3    424426.825 3
  24618578.306     -515366.110 2   -401580.655 1
  23144867.247    -2296214.869 3  -1789246.002 2
  24262348.723    -2084685.119 2  -1624431.292 1
  21374833.815     3981598.489 4   3102536.315 3
 91  4 12 21 14 45.0000000  0  6 02 19 06 11 16 18
  22852237.723    -5071568.027 3  -3951851.667 2
  21046366.499      552289.592 3    430356.062 3
  24613448.867     -542361.113 2   -422615.561 1
  23143442.926    -2303707.731 3  -1795084.543 1
  24260177.637    -2096056.410 2  -1633292.081 1
  21381983.867     4019169.384 4   3131812.264 3
 91  4 12 21 15  0.0000000  0  6 02 19 06 11 16 18
  22846092.280    -5103885.374 3  -3977033.890 2
  21047830.398      559943.497 3    436320.138 3
  24608314.611     -569347.579 2   -443644.220 1
  23142041.097    -2311059.709 3  -1800813.304 1
  24258047.297    -2107298.091 2  -1642051.835 1
  21389152.800     4056845.289 4   3161170.034 3
 91  4 12 21 15 15.0000000  0  6 02 19 06 11 16 18
  22839956.731    -5136121.063 3  -4002152.496 2
  21049290.388      567656.516 3    442330.279 2
  24603180.670     -596310.993 2   -464654.519 1
  23140674.344    -2318256.268 3  -1806420.972 1
  24255930.760    -2118396.071 2  -1650699.630 1
  21396348.118     4094640.303 4   3190620.623 3
 91  4 12 21 15 30.0000000  0  6 02 19 06 11 16 18
  22833832.874    -5168289.888 3  -4027219.002 2
  21050768.055      575413.797 3    448374.912 3
  24598052.418     -623266.421 2   -485658.569 1
  23139335.179    -2325312.005 3  -1811918.880 1
  24253839.421    -2129365.158 2  -1659246.982 1
  21403557.519     4132539.512 4   3220152.399 3
 91  4 12 21 15 45.0000000  0  6 02 19 06 11 16 18
  22827734.180    -5200381.390 3  -4052225.245 2
  21052253.225      583225.825 3    454462.203 3
  24592929.871     -650203.455 2   -506648.260 1
  23138018.177    -2332216.252 3  -1817298.759 2
  24251780.749    -2140194.466 2  -1667685.431 1
  21410789.727     4170553.027 3   3249773.240 3
 91  4 12 21 16  0.0000000  0  6 02 19 06 11 16 18
  22821638.208    -5232399.383 3  -4077174.217 2
  21053753.996      591088.703 3    460589.119 3
  24587795.930     -677126.143 2   -527626.789 1
  23136729.077    -2338972.935 3  -1822563.645 1
  24249746.351    -2150888.176 2  -1676018.212 1
  21418047.394     4208676.828 4   3279480.017 3
 91  4 12 21 16 15.0000000  0  6 02 19 06 11 16 18
  22815554.818    -5264350.650 3  -4102071.196 2
  21055252.359      598995.685 3    466750.398 3
  24582670.365     -704041.275 2   -548599.446 1
  23135466.955    -2345588.484 3  -1827718.562 1
  24247743.135    -2161453.034 2  -1684250.598 1
  21425322.460     4246903.709 4   3309267.131 3
 91  4 12 21 16 30.0000000  0  6 02 19 06 11 16 18
  22809487.325    -5296234.627 3  -4126915.747 2
  21056773.791      606947.182 3    472946.366 3
  24577553.507     -730948.446 2   -569565.913 1
  23134238.093    -2352062.256 3  -1832763.008 2
  24245746.813    -2171888.273 2  -1692382.012 1
  21432614.609     4285233.960 4   3339134.788 3
 91  4 12 21 16 45.0000000  0  6 02 19 06 11 16 18
  22803439.306    -5328042.206 3  -4151700.760 2
  21058292.240      614952.339 3    479184.147 3
  24572441.152     -757838.884 2   -590519.278 1
  23133031.742    -2358385.205 3  -1837689.923 1
  24243787.084    -2182184.899 2  -1700405.363 1
  21439930.753     4323676.698 4   3369090.095 3
 91  4 12 21 17  0.0000000  0  6 02 19 06 11 16 18
  22797401.496    -5359773.026 3  -4176425.966 2
  21059830.180      623011.545 3    485464.051 3
  24567329.983     -784712.232 2   -611459.381 1
  23131864.043    -2364556.846 2  -1842498.944 1
  24241853.722    -2192342.597 2  -1708320.480 1
  21447270.855     4362231.990 4   3399133.109 3
 91  4 12 21 17 15.0000000  0  6 02 19 06 11 16 18
  22791374.156    -5391430.008 3  -4201093.634 2
  21061369.324      631121.782 3    491783.707 3
  24562215.830     -811571.446 2   -632388.442 1
  23130717.040    -2370579.931 2  -1847192.203 1
  24239957.529    -2202364.150 2  -1716129.524 1
  21454625.372     4400896.799 4   3429261.461 3
 91  4 12 21 17 30.0000000  0  6 02 19 06 11 16 18
  22785362.119    -5423027.448 3  -4225714.906 2
  21062920.142      639268.576 3    498131.857 3
  24557098.083     -838431.014 2   -653317.814 1
  23129593.421    -2376468.710 2  -1851780.806 2
  24238074.232    -2212264.110 2  -1723843.801 1
  21462000.566     4439656.502 4   3459463.755 3
 91  4 12 21 17 45.0000000  0  6 02 19 06 11 16 18
  22779359.977    -5454537.326 3  -4250267.946 2
  21064479.057      647479.928 3    504530.314 3
  24551998.606     -865263.244 2   -674225.859 1
  23128502.468    -2382195.163 2  -1856242.923 1
  24236217.319    -2222014.261 2  -1731441.377 1
  21469400.942     4478538.617 4   3489761.425 3
 91  4 12 21 18  0.0000000  0  6 02 19 06 11 16 18
  22773380.608    -5485980.283 3  -4274768.845 2
  21066060.466      655735.222 3    510963.007 3
  24546892.846     -892088.785 2   -695128.695 1
  23127440.605    -2387779.741 3  -1860594.501 1
  24234375.100    -2231635.729 2  -1738938.651 1
  21476820.810     4517522.301 4   3520138.242 3
 91  4 12 21 18 15.0000000  0  6 02 19 06 11 16 18
  22767408.445    -5517347.702 3  -4299210.882 1
  21067632.277      664043.019 3    517436.610 3
  24541790.664     -918899.223 2   -716019.732 1
  23126412.019    -2393213.857 3  -1864828.854 1
  24232585.335    -2241119.692 2  -1746328.788 1
  21484256.260     4556616.060 3   3550600.837 3
 91  4 12 21 18 30.0000000  0  6 02 19 06 11 16 18
  22761460.574    -5548632.583 3  -4323588.602 2
  21069227.174      672410.195 3    523956.483 3
  24536695.707     -945687.702 2   -736893.752 1
  23125400.517    -2398490.447 3  -1868940.432 1
  24230805.169    -2250459.081 2  -1753606.217 1
  21491719.893     4595826.783 3   3581154.566 3
 91  4 12 21 18 45.0000000  0  6 02 19 06 11 16 18
  22755521.689    -5579857.701 3  -4347919.765 2
  21070825.370      680814.299 3    530505.130 3
  24531600.418     -972476.991 2   -757768.759 1
  23124423.497    -2403631.966 3  -1872946.757 1
  24229048.072    -2259676.726 2  -1760788.798 1
  21499199.422     4635131.325 3   3611781.402 3
 91  4 12 21 19  0.0000000  0  6 02 19 06 11 16 18
  22749589.993    -5611008.304 3  -4372192.856 2
  21072439.759      689269.789 3    537093.826 3
  24526500.958     -999252.574 2   -778632.695 1
  23123474.659    -2408623.597 3  -1876836.292 2
  24227325.473    -2268757.730 2  -1767864.983 1
  21506699.317     4674544.219 3   3642492.676 3
 91  4 12 21 19 15.0000000  0  6 02 19 06 11 16 18
  22743669.693    -5642086.561 3  -4396409.583 2
  21074049.332      697774.334 3    543720.737 3
  24521407.781    -1026016.875 2   -799487.830 1
  23122560.878    -2413467.537 3  -1880610.734 1
  24225620.552    -2277704.212 2  -1774836.288 1
  21514218.424     4714062.954 3   3673286.411 3
 91  4 12 21 19 30.0000000  0  6 02 19 06 11 16 18
  22737776.074    -5673077.221 3  -4420558.030 2
  21075684.714      706343.273 3    550397.824 3
  24516316.104    -1052754.693 2   -820322.305 1
  23121663.012    -2418148.520 3  -1884258.197 1
  24223942.016    -2286501.142 2  -1781691.098 1
  21521762.694     4753702.799 3   3704174.520 3
 91  4 12 21 19 45.0000000  0  6 02 19 06 11 16 18
  22731894.129    -5703994.625 3  -4444649.405 2
  21077323.081      714962.206 3    557113.877 3
  24511237.323    -1079480.482 2   -841147.420 1
  23120805.003    -2422680.683 3  -1887789.703 2
  24222293.459    -2295162.970 2  -1788440.599 1
  21529325.252     4793448.807 3   3735145.357 3
 91  4 12 21 20  0.0000000  0  6 02 19 06 11 16 18
  22726022.096    -5734855.699 3  -4468696.894 2
  21078972.527      723614.132 3    563855.643 3
  24506145.942    -1106211.335 2   -861976.493 1
  23119964.984    -2427080.831 3  -1891218.335 2
  24220666.174    -2303706.336 2  -1795097.792 1
  21536908.209     4833283.698 3   3766185.447 2
 91  4 12 21 20 15.0000000  0  6 02 19 06 11 16 18
  22720164.162    -5765629.865 3  -4492676.651 2
  21080626.494      732329.720 3    570647.004 3
  24501056.674    -1132916.702 2   -882785.722 1
  23119159.133    -2431318.348 3  -1894520.265 1
  24219068.589    -2312100.822 2  -1801638.980 1
  21544509.140     4873238.040 3   3797318.620 3
 91  4 12 21 20 30.0000000  0  6 02 19 06 11 16 18
  22714326.297    -5796324.115 3  -4516594.152 2
  21082302.029      741101.952 3    577482.509 3
  24495978.189    -1159603.750 2   -903580.676 1
  23118380.277    -2435400.211 3  -1897700.886 1
  24217502.170    -2320353.423 2  -1808069.649 1
  21552137.066     4913304.751 4   3828539.348 3
 91  4 12 21 20 45.0000000  0  6 02 19 06 11 16 18
  22708498.639    -5826945.505 3  -4540454.860 2
  21083973.376      749923.731 3    584356.620 3
  24490913.490    -1186279.701 2   -924366.918 1
  23117633.495    -2439333.427 3  -1900765.673 2
  24215951.037    -2328471.470 2  -1814395.424 1
  21559778.482     4953476.363 3   3859841.817 3
 91  4 12 21 21  0.0000000  0  6 02 19 06 11 16 18
  22702682.656    -5857487.810 3  -4564253.966 2
  21085666.588      758801.221 3    591274.140 3
  24485837.100    -1212938.593 2   -945139.935 1
  23116911.301    -2443111.715 3  -1903709.741 2
  24214433.200    -2336448.474 2  -1820611.299 1
  21567444.170     4993758.526 3   3891230.417 3
 91  4 12 21 21 15.0000000  0  6 02 19 06 11 16 18
  22696887.980    -5887949.919 3  -4587990.573 2
  21087364.320      767735.277 3    598235.728 3
  24480755.317    -1239579.539 2   -965898.962 1
  23116222.366    -2446734.003 3  -1906532.237 1
  24212955.812    -2344283.867 2  -1826716.812 1
  21575128.758     5034152.207 3   3922705.944 3
 91  4 12 21 21 30.0000000  0  6 02 19 06 11 16 18
  22691104.978    -5918350.326 3  -4611679.099 2
  21089078.228      776707.599 3    605227.144 3
  24475691.526    -1266220.819 2   -986658.280 1
  23115562.224    -2450218.462 3  -1909247.362 2
  24211479.646    -2351995.789 2  -1832726.164 1
  21582835.507     5074638.887 4   3954253.916 3
 91  4 12 21 21 45.0000000  0  6 02 19 06 11 16 18
  22685332.166    -5948683.762 3  -4635315.435 2
  21090786.150      785723.493 3    612252.516 3
  24470623.843    -1292857.404 2  -1007413.868 1
  23114919.777    -2453559.751 3  -1911850.916 2
  24210043.633    -2359579.015 2  -1838635.204 1
  21590556.966     5115223.533 4   3985878.228 3
 91  4 12 21 22  0.0000000  0  6 02 19 06 11 16 18
  22679571.361    -5978939.834 3  -4658891.497 2
  21092521.644      794793.298 3    619319.897 3
  24465558.847    -1319479.030 2  -1028157.835 1
  23114324.079    -2456747.464 3  -1914334.800 2
  24208618.421    -2367023.028 2  -1844435.789 1
  21598302.106     5155916.214 4   4017586.722 3
 91  4 12 21 22 15.0000000  0  6 02 19 06 11 16 18
  22673827.343    -6009131.202 3  -4682417.126 2
  21094248.448      803904.397 3    626419.442 3
  24460481.864    -1346098.593 2  -1048900.159 1
  23113736.792    -2459794.121 3  -1916708.768 1
  24207225.894    -2374340.509 2  -1850137.734 1
  21606063.142     5196704.022 3   4049369.343 3
 91  4 12 21 22 30.0000000  0  6 02 19 06 11 16 18
  22668100.705    -6039241.837 3  -4705879.861 2
  21095992.946      813072.679 3    633563.551 3
  24455427.356    -1372700.212 2  -1069628.519 1
  23113191.473    -2462683.671 3  -1918960.316 2
  24205860.938    -2381515.500 2  -1855728.665 1
  21613845.748     5237602.850 4   4081238.463 3
 91  4 12 21 22 45.0000000  0  6 02 19 06 11 16 18
  22662377.661    -6069291.938 3  -4729295.423 2
  21097743.430      822277.692 3    640736.287 3
  24450358.469    -1399304.146 2  -1090358.763 1
  23112659.939    -2465436.429 3  -1921105.248 2
  24204513.955    -2388568.586 2  -1861224.620 1
  21621648.438     5278592.082 4   4113178.032 3
 91  4 12 21 23  0.0000000  0  6 02 19 06 11 16 18
  22656676.204    -6099261.146 3  -4752647.941 2
  21099511.015      831540.009 3    647953.669 2
  24445316.263    -1425890.107 2  -1111074.955 1
  23112169.483    -2468031.831 3  -1923127.600 2
  24203201.769    -2395479.169 2  -1866609.514 1
  21629467.340     5319692.130 3   4145203.944 3
 91  4 12 21 23 15.0000000  0  6 02 19 06 11 16 18
  22650986.456    -6129153.950 3  -4775940.939 2
  21101276.785      840855.206 3    655212.260 3
  24440246.766    -1452462.755 2  -1131780.734 1
  23111709.600    -2470474.297 3  -1925030.774 2
  24201915.356    -2402251.831 2  -1871886.926 1
  21637309.607     5360898.084 3   4177312.396 2
 91  4 12 21 23 30.0000000  0  6 02 19 06 11 16 18
  22645315.275    -6158975.356 3  -4799178.288 2
  21103066.846      850218.083 3    662508.005 3
  24435192.868    -1479027.178 2  -1152480.102 1
  23111267.708    -2472768.728 3  -1926818.570 2
  24200654.438    -2408891.382 2  -1877060.648 1
  21645166.568     5402204.513 3   4209499.140 3
 91  4 12 21 23 45.0000000  0  6 02 19 06 11 16 18
  22639651.301    -6188725.108 3  -4822359.813 2
  21104853.015      859628.875 3    669841.079 3
  24430150.960    -1505583.320 2  -1173173.039 1
  23110862.078    -2474914.824 3  -1928490.822 1
  24199414.792    -2415397.678 2  -1882130.510 1
  21653046.911     5443611.424 3   4241764.170 3
 91  4 12 21 24  0.0000000  0  6 02 19 06 11 16 18
  22634009.506    -6218400.036 3  -4845483.029 2
  21106656.565      869090.692 3    677213.919 3
  24425089.855    -1532128.141 2  -1193857.162 1
  23110483.443    -2476909.379 3  -1930044.944 1
  24198209.331    -2421767.809 2  -1887094.307 1
  21660943.449     5485121.653 3   4274109.713 3
 91  4 12 21 24 15.0000000  0  6 02 19 06 11 16 18
  22628370.398    -6247992.885 3  -4868542.290 2
  21108460.708      878610.975 3    684632.320 3
  24420045.556    -1558654.446 2  -1214526.856 1
  23110133.584    -2478745.041 3  -1931475.303 2
  24197022.158    -2427994.757 2  -1891946.478 1
  21668866.651     5526742.440 3   4306541.400 3
 91  4 12 21 24 30.0010000  0  6 02 19 06 11 16 18
  22922546.556    -6277513.664 3  -4891545.391 2
  21410077.115      888179.530 3    692088.333 3
  24714788.305    -1585172.535 2  -1235190.192 1
  23409603.160    -2480431.858 3  -1932789.676 1
  24495645.120    -2434088.509 2  -1896694.896 1
  21976600.912     5568463.511 3   4339051.227 2
 91  4 12 21 24 45.0010000  0  6 02 19 06 11 16 18
  22617151.866    -6306966.528 3  -4914495.583 2
  21112115.188      897794.938 3    699580.850 3
  24409949.142    -1611686.281 2  -1255850.030 1
  23109517.210    -2481971.946 3  -1933989.688 1
  24194729.936    -2440051.356 2  -1901341.293 1
  21684768.845     5610285.259 3   4371639.516 2
 91  4 12 21 25  0.0010000  0  6 02 19 06 11 16 18
  22611558.652    -6336350.678 3  -4937392.205 2
  21113961.317      907452.684 3    707106.361 3
  24404914.423    -1638195.419 2  -1276506.345 1
  23109248.302    -2483368.279 3  -1935077.701 2
  24193616.804    -2445885.379 2  -1905887.304 1
  21692743.019     5652198.715 3   4404299.262 2
 91  4 12 21 25 15.0010000  0  6 02 19 06 11 16 18
  22605978.910    -6365658.082 3  -4960229.048 2
  21115802.332      917163.396 3    714673.137 3
  24399865.325    -1664691.957 2  -1297152.837 1
  23109013.562    -2484610.822 3  -1936045.878 1
  24192527.962    -2451581.286 2  -1910325.710 1
  21700738.499     5694216.191 3   4437040.068 3
 91  4 12 21 25 30.0010000  0  6 02 19 06 11 16 18
  22600422.255    -6394893.091 3  -4983009.463 2
  21117663.747      926922.640 3    722277.747 3
  24394827.918    -1691180.284 2  -1317792.959 1
  23108805.800    -2485703.919 3  -1936897.587 1
  24191476.587    -2457143.877 2  -1914660.223 1
  21708751.343     5736333.098 3   4469858.350 2
 91  4 12 21 25 45.0010000  0  6 02 19 06 11 16 18
  22594873.103    -6424053.987 3  -5005732.136 2
  21119526.051      936732.235 3    729921.577 3
  24389787.510    -1717658.759 2  -1338425.383 1
  23108630.425    -2486645.802 3  -1937631.498 2
  24190439.904    -2462571.127 2  -1918889.303 1
  21716788.773     5778551.144 3   4502755.423 2
 91  4 12 21 26  0.0010000  0  6 02 19 06 11 16 18
  22589332.030    -6453140.757 3  -5028397.047 2
  21121402.753      946592.163 3    737604.632 3
  24384745.898    -1744127.393 2  -1359050.127 1
  23108480.528    -2487436.237 3  -1938247.379 1
  24189431.404    -2467862.906 2  -1923012.822 1
  21724840.897     5820869.950 3   4535731.033 2
 91  4 12 21 26 15.0010000  0  6 02 19 06 11 16 18
  22583814.045    -6482154.261 3  -5051004.868 2
  21123288.755      956501.393 3    745326.107 3
  24379719.868    -1770587.488 2  -1379668.251
  23108354.921    -2488076.225 3  -1938746.017 2
  24188451.975    -2473020.537 2  -1927031.784 1
  21732913.123     5863288.186 3   4568784.111 2
 91  4 12 21 26 30.0010000  0  6 02 19 06 11 16 18
  22578305.657    -6511092.975 3  -5073554.421 2
  21125180.742      966461.566 3    753087.275 3
  24374677.960    -1797037.411 2  -1400278.376 1
  23108261.091    -2488564.137 3  -1939126.171 2
  24187495.651    -2478042.397 2  -1930944.977 1
  21741003.324     5905807.322 3   4601915.803 3
 91  4 12 21 26 45.0010000  0  6 02 19 06 11 16 18
  22572810.775    -6539971.376 3  -5096056.956 2
  21127079.029      976458.123 3    760876.788 3
  24369644.741    -1823491.846 2  -1420892.144 1
  23108200.818    -2488914.443 3  -1939399.111 2
  24186556.987    -2482942.969 2  -1934763.629 1
  21749109.403     5948412.604 3   4635114.626 2
 91  4 12 21 27  0.0010000  0  6 02 19 06 11 16 18
  22567327.271    -6568766.602 3  -5118494.702 2
  21128997.995      986513.886 3    768712.450 3
  24364614.227    -1849928.220 2  -1441492.144 1
  23108159.461    -2489104.357 3  -1939547.054 2
  24185657.026    -2487699.531 2  -1938470.100 1
  21757240.681     5991126.323 3   4668397.945 2
 91  4 12 21 27 15.0010000  0  6 02 19 06 11 16 18
  22561869.244    -6597483.520 3  -5140871.417 2
  21130920.869      996624.108 3    776590.532 3
  24359589.402    -1876351.215 2  -1462081.359 1
  23108156.163    -2489138.530 3  -1939573.659 2
  24184775.930    -2492316.902 2  -1942068.067 1
  21765388.432     6033943.932 3   4701762.225 2
 91  4 12 21 27 30.0010000  0  6 02 19 06 11 16 18
  22556418.424    -6626125.294 3  -5163189.567 2
  21132858.123     1006785.626 3    784508.587 3
  24354555.887    -1902764.135 2  -1482662.682 1
  23108176.842    -2489019.935 3  -1939481.204 2
  24183921.218    -2496798.391 2  -1945560.193 1
  21773550.580     6076861.775 3   4735204.607 2
 91  4 12 21 27 45.0010000  0  6 02 19 06 11 16 18
  22550978.982    -6654690.036 3  -5185447.704 2
  21134798.691     1017000.283 3    792468.056 3
  24349535.267    -1929165.184 2  -1503234.790 1
  23108229.611    -2488746.748 3  -1939268.276 2
  24183097.690    -2501141.953 2  -1948944.831 1
  21781738.519     6119881.421 3   4768726.314 2
 91  4 12 21 28  0.0010000  0  6 02 19 06 11 16 18
  22545558.438    -6683175.067 3  -5207643.748 2
  21136757.234     1027270.700 3    800470.977 3
  24344519.446    -1955551.895 2  -1523795.681 1
  23108308.451    -2488316.377 3  -1938932.888 1
  24182295.137    -2505345.127 2  -1952220.077 1
  21789944.728     6163005.348 3   4802329.280 2
 91  4 12 21 28 15.0010000  0  6 02 19 06 11 16 18
  22540153.478    -6711593.318 3  -5229787.738 2
  21138713.665     1037583.879 3    808507.212 3
  24339496.122    -1981937.410 2  -1544355.660 1
  23108420.866    -2487741.657 3  -1938485.017 2
  24181518.079    -2509420.697 2  -1955395.863 1
  21798171.040     6206220.298 3   4836003.168 2
 91  4 12 21 28 30.0010000  0  6 02 19 06 11 16 18
  22534760.209    -6739933.801 3  -5251871.118 2
  21140691.106     1047951.025 3    816585.501 3
  24334475.799    -2008310.595 2  -1564906.003 1
  23108556.681    -2487011.410 3  -1937915.974 1
  24180772.501    -2513358.010 2  -1958463.944 1
  21806415.029     6249537.108 3   4869756.431 2
 91  4 12 21 28 45.0010000  0  6 02 19 06 11 16 18
  22529378.335    -6768204.191 3  -5273899.896 2
  21142669.734     1058364.602 3    824699.963 3
  24329456.959    -2034679.156 2  -1585452.745 1
  23108721.271    -2486133.192 3  -1937231.630 1
  24180044.007    -2517164.341 2  -1961429.978 1
  21814675.211     6292947.953 3   4903582.967 2
 91  4 12 21 29  0.0010000  0  6 02 19 06 11 16 18
  22524015.953    -6796396.103 3  -5295867.533 2
  21144668.744     1068832.660 3    832856.887 3
  24324443.547    -2061035.084 2  -1605989.654 1
  23108922.734    -2485098.813 3  -1936425.587 1
  24179346.993    -2520831.898 2  -1964287.861 1
  21822953.089     6336460.766 3   4937488.951 2
 91  4 12 21 29 15.0010000  0  6 02 19 06 11 16 18
  22518663.151    -6824513.867 3  -5317777.375 2
  21146661.472     1079350.825 3    841052.857 3
  24319428.912    -2087382.861 2  -1626520.207 1
  23109145.172    -2483912.499 3  -1935501.155 2
  24178679.347    -2524364.518 2  -1967040.604 1
  21831254.035     6380070.781 3   4971470.677 2
 91  4 12 21 29 30.0010000  0  6 02 19 06 11 16 18
  22513321.150    -6852559.540 3  -5339631.052 2
  21148675.471     1089917.199 3    849286.388 3
  24314408.886    -2113724.528 2  -1647046.013 1
  23109402.091    -2482576.115 3  -1934459.768 2
  24178034.195    -2527764.715 2  -1969690.115 1
  21839569.674     6423776.153 3   5005526.712 2
 91  4 12 21 29 45.0010000  0  6 02 19 06 11 16 18
  22508006.739    -6880514.007 3  -5361413.646 2
  21150697.881     1100550.797 3    857572.296 3
  24309411.353    -2140041.136 2  -1667552.305 1
  23109689.601    -2481070.792 3  -1933286.753 2
  24177419.616    -2531013.470 2  -1972221.676 1
  21847907.511     6467595.289 3   5039671.395 2
 91  4 12 21 30  0.0010000  0  6 02 19 06 11 16 18
  22502704.002    -6908400.741 3  -5383143.486 2
  21152731.966     1111228.166 3    865892.314 3
  24304389.529    -2166356.219 2  -1688057.344 1
  23110002.885    -2479419.909 3  -1932000.330 2
  24176825.733    -2534134.335 2  -1974653.554 1
  21856264.821     6511504.563 3   5073886.317 2
 91  4 12 21 30 15.0010000  0  6 02 19 06 11 16 18
  22497400.375    -6936215.451 3  -5404817.185 2
  21154770.553     1121953.508 3    874249.719 3
  24299391.089    -2192665.640 2  -1708558.017 1
  23110346.148    -2477619.244 3  -1930597.178 2
  24176254.919    -2537123.120 2  -1976982.523 1
  21864636.825     6555507.877 3   5108174.510 2
 91  4 12 21 30 30.0010000  0  6 02 19 06 11 16 18
  22492128.228    -6963953.104 3  -5426430.840 2
  21156827.131     1132731.863 3    882648.431 3
  24294392.945    -2218964.560 2  -1729050.517 1
  23110715.482    -2475663.755 3  -1929073.393 2
  24175713.508    -2539974.793 2  -1979204.656 1
  21873031.322     6599610.179 3   5142539.833 3
 91  4 12 21 30 45.0010000  0  6 02 19 06 11 16 18
  22486862.973    -6991612.811 3  -5447983.766 2
  21158882.819     1143564.321 3    891089.287 3
  24289385.204    -2245251.999 2  -1749534.088 1
  23111117.500    -2473552.220 3  -1927428.005 2
  24175193.963    -2542688.064 2  -1981318.927 1
  21881443.200     6643811.910 3   5176982.638 3
 91  4 12 21 31  0.0010000  0  6 02 19 06 11 16 18
  22481611.801    -7019193.667 3  -5469475.244 2
  21160955.870     1154451.792 3    899573.016 3
  24284384.373    -2271527.229 2  -1770008.085 1
  23111550.998    -2471283.836 3  -1925660.410 2
  24174703.507    -2545262.363 2  -1983324.921 1
  21889871.864     6688113.952 3   5211503.610 2
 91  4 12 21 31 15.0010000  0  6 02 19 06 11 16 18
  22476385.514    -7046694.192 3  -5490904.140 2
  21163035.831     1165395.692 3    908100.721 3
  24279392.529    -2297788.878 2  -1790471.532 1
  23112012.993    -2468857.123 3  -1923769.430 2
  24174234.323    -2547696.594 2  -1985221.813 1
  21898323.912     6732517.153 3   5246103.391 3
 91  4 12 21 31 30.0010000  0  6 02 19 06 11 16 18
  22471166.136    -7074113.935 3  -5512270.072 2
  21165131.689     1176396.518 3    916672.784 3
  24274389.586    -2324036.613 2  -1810924.162 1
  23112504.042    -2466271.422 3  -1921754.564 2
  24173805.624    -2549990.183 2  -1987009.004 1
  21906790.950     6777022.301 3   5280782.623 2
 91  4 12 21 31 45.0010000  0  6 02 19 06 11 16 18
  22465956.635    -7101456.815 3  -5533576.113 2
  21167234.720     1187450.251 3    925286.075 3
  24269401.651    -2350274.317 2  -1831368.969 1
  23113024.791    -2463530.734 3  -1919618.928 2
  24173400.308    -2552147.011 2  -1988689.705 1
  21915277.165     6821625.045 3   5315537.921 2
 91  4 12 21 32  0.0010000  0  6 02 19 06 11 16 18
  22460775.037    -7128715.893 3  -5554816.862 2
  21169353.368     1198563.752 3    933945.936 3
  24264415.199    -2376495.244 2  -1851800.683 1
  23113579.394    -2460628.158 3  -1917357.161 2
  24173005.479    -2554160.267 2  -1990258.491 1
  21923787.078     6866331.878 3   5350374.305 2
 91  4 12 21 32 15.0010000  0  6 02 19 06 11 16 18
  22455603.613    -7155892.251 3  -5575993.152 2
  21171473.500     1209736.030 3    942651.592 3
  24259423.058    -2402700.674 2  -1872220.307 1
  23114165.198    -2457564.722 3  -1914970.046 2
  24172655.916    -2556031.059 2  -1991716.313 1
  21932313.778     6911141.472 3   5385290.776 2
 91  4 12 21 32 30.0010000  0  6 02 19 06 11 16 18
  22450443.880    -7182989.373 3  -5597107.706 2
  21173611.012     1220963.793 3    951400.495 3
  24254435.995    -2428894.083 2  -1892630.596 1
  23114772.884    -2454344.017 3  -1912460.369 2
  24172318.359    -2557762.944 2  -1993065.851 1
  21940859.062     6956050.090 3   5420284.395 2
 91  4 12 21 32 45.0010000  0  6 02 19 06 11 16 18
  22445301.545    -7210001.276 3  -5618155.846 2
  21175760.826     1232252.894 3    960197.190 3
  24249449.857    -2455069.637 2  -1913026.977 1
  23115417.129    -2450959.899 3  -1909823.369 2
  24172016.156    -2559350.040 2  -1994302.604 1
  21949426.822     7001063.572 3   5455359.734 2
 91  4 12 21 33  0.0010000  0  6 02 19 06 11 16 18
  22440178.388    -7236944.518 3  -5639150.483 2
  21177921.425     1243586.692 3    969028.708 3
  24244479.896    -2481243.927 2  -1933422.353 1
  23116089.870    -2447428.936 3  -1907071.916 2
  24171740.356    -2560809.446 2  -1995439.813 1
  21958008.089     7046164.926 3   5490503.543 2
 91  4 12 21 33 15.0010000  0  6 02 19 06 11 16 18
  22435068.424    -7263813.583 3  -5660087.325 2
  21180083.228     1254970.756 3    977899.394 3
  24239496.148    -2507411.683 2  -1953812.673 1
  23116788.978    -2443745.604 3  -1904201.771 2
  24171499.927    -2562135.273 2  -1996473.004 1
  21966608.533     7091359.283 3   5525719.826 2
 91  4 12 21 33 30.0010000  0  6 02 19 06 11 16 18
  22429968.964    -7290598.509 3  -5680958.606 2
  21182262.725     1266415.317 3    986817.234 3
  24234520.498    -2533562.770 2  -1974189.969 1
  23117520.473    -2439899.856 3  -1901205.043 2
  24171259.480    -2563317.179 2  -1997394.022 1
  21975230.267     7136656.696 3   5561016.394 2
 91  4 12 21 33 45.0010000  0  6 02 19 06 11 16 18
  22424882.679    -7317314.611 3  -5701776.253 2
  21184446.707     1277904.877 3    995770.136 3
  24229541.235    -2559712.803 2  -1994566.486
  23118278.947    -2435907.148 3  -1898093.805 2
  24171071.210    -2564371.067 2  -1998215.280 1
  21983862.785     7182041.101 3   5596380.774 2
 91  4 12 21 34  0.0010000  0  6 02 19 06 11 16 18
  22419815.886    -7343959.201 3  -5722538.174 2
  21186645.382     1289441.935 3   1004760.047 3
  24224564.381    -2585859.169 2  -2014940.060 1
  23119071.606    -2431764.717 3  -1894865.913 2
  24170891.944    -2565294.424 2  -1998934.792 1
  21992516.296     7227515.410 3   5631815.198 2
 91  4 12 21 34 15.0010000  0  6 02 19 06 11 16 18
  22414761.675    -7370521.662 3  -5743236.107 2
  21188848.874     1301037.464 3   1013795.506 3
  24219601.626    -2611991.206 2  -2035302.565 1
  23119890.929    -2427461.734 3  -1891512.892 2
  24170739.045    -2566076.260 2  -1999544.032 1
  22001190.799     7273089.906 3   5667327.682 2
 91  4 12 21 34 30.0010000  0  6 02 19 06 11 16 18
  22409721.267    -7396997.698 3  -5763866.700 2
  21191074.823     1312695.525 3   1022879.699 3
  24214629.553    -2638104.852 2  -2055650.690 1
  23120736.043    -2422994.104 3  -1888031.578 2
  24170617.626    -2566712.766 2  -2000040.100 1
  22009880.275     7318768.414 3   5702921.222 2
 91  4 12 21 34 45.0010000  0  6 02 19 06 11 16 18
  22404696.756    -7423399.011 3  -5784439.068 2
  21193295.084     1324404.541 3   1032003.605 3
  24209662.296    -2664211.720 2  -2075993.534 1
  23121618.343    -2418373.316 3  -1884430.936 2
  24170525.890    -2567215.555 2  -2000431.890 1
  22018592.244     7364539.214 3   5738586.676 2
 91  4 12 21 35  0.0010000  0  6 02 19 06 11 16 18
  22399684.827    -7449727.411 3  -5804954.602 2
  21195534.244     1336162.604 3   1041165.730 3
  24204690.537    -2690313.743 2  -2096332.617 1
  23122526.400    -2413601.285 3  -1880712.440 2
  24170458.149    -2567586.342 2  -2000720.858 1
  22027317.998     7410399.856 3   5774322.145 3
 91  4 12 21 35 15.0010000  0  6 02 19 06 11 16 18
  22394693.279    -7475987.946 3  -5825417.258 2
  21197779.075     1347964.628 3   1050362.101 3
  24199726.579    -2716416.266 2  -2116672.071 1
  23123460.563    -2408683.195 3  -1876880.125 2
  24170411.068    -2567830.757 2  -2000911.356 1
  22036062.948     7456345.247 3   5810123.641 2
 91  4 12 21 35 30.0010000  0  6 02 19 06 11 16 18
  22389710.125    -7502174.295 3  -5845822.116 2
  21200042.211     1359817.172 3   1059597.846 3
  24194756.617    -2742512.929 2  -2137006.993 1
  23124425.001    -2403612.551 3  -1872928.927 2
  24170387.981    -2567942.263 2  -2000998.301 1
  22044821.980     7502381.507 3   5845995.954 3
 91  4 12 21 35 45.0010000  0  6 02 19 06 11 16 18
  22384738.069    -7528287.925 3  -5866170.311 2
  21202300.549     1371718.951 3   1068871.947 3
  24189789.064    -2768605.108 2  -2157338.705 2
  23125423.311    -2398390.807 3  -1868859.997 2
  24170387.091    -2567922.149 2  -2000982.664 1
  22053602.615     7548507.051 3   5881937.833 2
 91  4 12 21 36  0.0010000  0  6 02 19 06 11 16 18
  22379777.095    -7554334.012 3  -5886465.875 2
  21204580.768     1383664.407 3   1078180.093 3
  24184834.685    -2794698.357 2  -2177671.144 1
  23126442.595    -2393023.242 3  -1864677.447 2
  24170415.570    -2567775.951 2  -2000868.824 1
  22062393.128     7594716.247 3   5917944.901 2
 91  4 12 21 36 15.0010000  0  6 02 19 06 11 16 18
  22374839.817    -7580312.393 3  -5906708.691 2
  21206855.003     1395654.097 3   1087522.704 3
  24179872.227    -2820792.345 2  -2198003.918 1
  23127492.174    -2387509.425 3  -1860380.931 2
  24170471.027    -2567503.368 2  -2000656.478 1
  22071203.429     7641009.038 3   5954017.097 2
 91  4 12 21 36 30.0010000  0  6 02 19 06 11 16 18
  22369909.136    -7606212.413 3  -5926890.434 2
  21209153.214     1407698.488 3   1096907.935 3
  24174901.061    -2846876.480 2  -2218329.063 1
  23128572.621    -2381838.763 3  -1855962.194 2
  24170548.070    -2567093.962 2  -2000337.499 1
  22080032.314     7687395.717 3   5990162.448 2
 91  4 12 21 36 45.0010000  0  6 02 19 06 11 16 18
  22364993.131    -7632033.481 3  -5947010.657 2
  21211451.425     1419798.173 3   1106336.249 3
  24169934.398    -2872950.422 2  -2238646.253 1
  23129672.857    -2376010.693 3  -1851420.803 2
  24170649.403    -2566547.334 2  -1999911.608 1
  22088876.486     7733876.684 3   6026381.276 2
 91  4 12 21 37  0.0010000  0  6 02 19 06 11 16 18
  22360094.226    -7657775.860 3  -5967069.564 2
  21213765.813     1431952.959 3   1115807.504 3
  24164977.035    -2899014.528 2  -2258955.787 1
  23130817.470    -2370025.539 3  -1846757.018 2
  24170788.516    -2565863.724 2  -1999378.970 1
  22097738.352     7780451.505 3   6062673.238 2
 91  4 12 21 37 15.0010000  0  6 02 19 06 11 16 18
  22355211.202    -7683451.588 3  -5987076.549 2
  21216082.905     1444150.578 3   1125312.135 3
  24160012.466    -2925081.062 2  -2279267.202 1
  23131980.055    -2363895.563 3  -1841980.398 2
  24170940.507    -2565055.526 2  -1998749.272 1
  22106613.707     7827107.347 3   6099028.333 2
 91  4 12 21 37 30.0010000  0  6 02 19 06 11 16 18
  22350339.589    -7709047.867 3  -6007021.630 2
  21218423.991     1456404.036 3   1134860.275 3
  24155055.696    -2951137.083 2  -2299570.455 1
  23133177.734    -2357607.821 3  -1837080.824 2
  24171116.493    -2564109.774 2  -1998012.400 1
  22115514.243     7873857.117 3   6135456.628 2
 91  4 12 21 37 45.0010000  0  6 02 19 06 11 16 18
  22345486.544    -7734549.979 3  -6026893.304 2
  21220758.481     1468728.052 3   1144463.400 3
  24150093.535    -2977168.126 2  -2319854.235 1
  23134410.784    -2351147.567 3  -1832046.821 2
  24171327.833    -2563012.024 2  -1997157.106 1
  22124427.971     7920715.372 3   6171969.437 2
 91  4 12 21 38  0.0010000  0  6 02 19 06 11 16 18
  22340651.787    -7759975.657 3  -6046705.436 2
  21223120.840     1481105.044 3   1154107.799 3
  24145151.162    -3003191.761 2  -2340132.248 1
  23135671.701    -2344532.458 3  -1826892.180 2
  24171557.774    -2561779.702 2  -1996196.895 1
  22133365.693     7967664.034 3   6208552.704 2
 91  4 12 21 38 15.0010000  0  6 02 19 06 11 16 18
  22335816.733    -7785337.727 3  -6066468.002 2
  21225480.510     1493522.027 3   1163783.354 3
  24140203.380    -3029221.065 2  -2360414.665 1
  23136959.021    -2337775.499 3  -1821627.001 2
  24171822.197    -2560425.989 2  -1995142.099 1
  22142314.497     8014689.778 3   6245196.027 2
 91  4 12 21 38 30.0010000  0  6 02 19 06 11 16 18
  22331014.067    -7810612.067 3  -6086162.214 2
  21227857.265     1506003.240 3   1173508.979 3
  24135245.721    -3055231.884 2  -2380682.635 1
  23138268.207    -2330852.470 3  -1816232.388 2
  24172106.706    -2558926.586 2  -1993973.785 1
  22151282.181     8061816.776 3   6281918.239 2
 91  4 12 21 38 45.0010000  0  6 02 19 06 11 16 18
  22326217.089    -7835810.126 3  -6105796.961 2
  21230237.021     1518537.500 3   1183275.926 3
  24130293.750    -3081235.702 2  -2400945.186 1
  23139616.672    -2323774.794 3  -1810717.307 2
  24172414.283    -2557293.525 2  -1992701.343 1
  22160268.171     8109033.435 3   6318710.338 2
 91  4 12 21 39  0.0010000  0  6 02 19 06 11 16 18
  22321432.693    -7860924.023 3  -6125366.155 2
  21232633.547     1531132.510 3   1193090.203 3
  24125355.862    -3107224.692 2  -2421196.193 1
  23140996.618    -2316534.586 3  -1805075.556 2
  24172747.949    -2555518.748 2  -1991318.465 1
  22169268.243     8156347.243 3   6355578.132 2
 91  4 12 21 39 15.0010000  0  6 02 19 06 11 16 18
  22316672.588    -7885957.172 3  -6144872.417 2
  21235044.486     1543784.748 3   1202949.079 3
  24120414.990    -3133202.535 2  -2441438.508 1
  23142402.948    -2309135.365 3  -1799309.899 2
  24173120.005    -2553605.556 2  -1989827.711 1
  22178293.495     8203754.419 3   6392518.670 2
 91  4 12 21 39 30.0010000  0  6 02 19 06 11 16 18
  22311917.874    -7910946.514 3  -6164344.556 2
  21237457.223     1556457.649 3   1212824.060 3
  24115461.222    -3159206.039 2  -2461700.820 1
  23143835.350    -2301613.927 3  -1793449.006 2
  24173499.826    -2551591.262 2  -1988258.228 1
  22187323.233     8251217.881 3   6429503.078 2
 91  4 12 21 39 45.0010000  0  6 02 19 06 11 16 18
  22307189.546    -7935806.936 3  -6183716.244 2
  21239885.229     1569236.069 3   1222781.264 3
  24110534.432    -3185150.341 2  -2481917.023 1
  23145305.530    -2293885.234 3  -1787426.637 2
  24173921.650    -2549391.006 2  -1986543.784 1
  22196382.670     8298822.376 3   6466597.366 2
 91  4 12 21 40  0.0010000  0  6 02 19 06 11 16 18
  22302469.629    -7960587.223 3  -6203025.475 2
  21242334.541     1582071.268 3   1232782.697 3
  24105587.243    -3211084.146 2  -2502125.033 1
  23146806.598    -2285998.071 3  -1781280.777 2
  24174365.933    -2547053.206 2  -1984722.144 1
  22205458.284     8346518.922 3   6503763.398 2
 91  4 12 21 40 15.0010000  0  6 02 19 06 11 16 18
  22297769.482    -7985294.678 3  -6222277.967 2
  21244781.149     1594955.937 3   1242822.691 3
  24100654.765    -3237014.900 2  -2522330.611 1
  23148333.736    -2277959.884 3  -1775017.223 2
  24174836.303    -2544585.327 2  -1982799.180 1
  22214552.186     8394299.675 3   6540995.034 2
 91  4 12 21 40 30.0010000  0  6 02 19 06 11 16 18
  22293083.715    -8009935.179 3  -6241478.266 2
  21247243.340     1607884.252 3   1252896.688 3
  24095720.786    -3262948.630 2  -2542538.553 1
  23149896.560    -2269776.481 3  -1768640.544 2
  24175325.276    -2541993.508 2  -1980779.624 1
  22223659.873     8442158.669 3   6578287.640 2
 91  4 12 21 40 45.0010000  0  6 02 19 06 11 16 18
  22288400.670    -8034506.853 3  -6260624.934 2
  21249710.033     1620858.280 3   1263006.317 3
  24090789.790    -3288883.324 2  -2562747.229 1
  23151478.266    -2261445.921 3  -1762149.185 1
  24175845.415    -2539275.989 2  -1978662.130 1
  22232785.255     8490097.678 3   6615642.595 2
 91  4 12 21 41  0.0010000  0  6 02 19 06 11 16 18
  22283747.883    -8058991.418 3  -6279703.742 2
  21252196.811     1633896.302 3   1273165.811 3
  24085851.012    -3314800.962 2  -2582942.644 1
  23153100.141    -2252950.050 3  -1755528.991 1
  24176384.434    -2536414.646 2  -1976432.554 1
  22241921.736     8538134.407 3   6653073.712 2
 91  4 12 21 41 15.0010000  0  6 02 19 06 11 16 18
  22279101.396    -8083412.995 3  -6298733.474 2
  21254679.087     1646974.237 3   1283356.394 3
  24080920.034    -3340725.623 2  -2603143.538 1
  23154738.211    -2244312.944 3  -1748798.779 2
  24176960.937    -2533433.537 2  -1974109.663 1
  22251077.394     8586244.548 3   6690562.018 2
 91  4 12 21 41 30.0010000  0  6 02 19 06 11 16 18
  22274456.707    -8107800.192 3  -6317736.400 2
  21257175.166     1660063.470 3   1293555.783 3
  24075971.659    -3366685.991 2  -2623372.217 1
  23156405.945    -2235563.253 3  -1741980.807 2
  24177544.036    -2530361.609 2  -1971716.023 1
  22260243.853     8634399.215 3   6728085.006 2
 91  4 12 21 41 45.0010000  0  6 02 19 06 11 16 18
  22269835.121    -8132096.819 3  -6336668.764 2
  21259671.839     1673220.166 3   1303807.735 3
  24071037.662    -3392625.968 2  -2643585.076 1
  23158102.787    -2226644.910 3  -1735031.441 2
  24178162.804    -2527142.666 2  -1969207.798 1
  22269425.006     8682654.532 3   6765686.441 2
 91  4 12 21 42  0.0010000  0  6 02 19 06 11 16 18
  22265221.912    -8156313.158 3  -6355538.557 2
  21262191.895     1686434.143 3   1314104.328 3
  24066104.590    -3418556.049 2  -2663790.177 1
  23159830.481    -2217568.217 3  -1727958.679 2
  24178786.370    -2523787.095 2  -1966593.127 1
  22278625.634     8730999.818 3   6803357.967 2
 91  4 12 21 42 15.0010000  0  6 02 19 06 11 16 18
  22260632.976    -8180451.807 3  -6374347.828 2
  21264714.044     1699702.758 3   1324443.491 3
  24061174.799    -3444478.779 2  -2683989.551 1
  23161589.358    -2208335.824 3  -1720764.612 2
  24179454.015    -2520297.810 2  -1963874.279 1
  22287840.657     8779432.103 3   6841097.289 2
 91  4 12 21 42 30.0010000  0  6 02 19 06 11 16 18
  22256053.951    -8204522.747 3  -6393104.319 2
  21267247.589     1713016.312 3   1334817.677 3
  24056248.009    -3470404.039 2  -2704190.910 1
  23163375.527    -2198957.549 3  -1713456.844 2
  24180137.837    -2516684.507 2  -1961058.747 1
  22297071.264     8827941.376 3   6878896.601 2
 91  4 12 21 42 45.0010000  0  6 02 19 06 11 16 18
  22251486.619    -8228513.087 3  -6411798.011 2
  21269789.824     1726387.558 3   1345236.814 3
  24051307.434    -3496319.132 2  -2724384.344 1
  23165185.080    -2189420.579 3  -1706025.421 2
  24180855.843    -2512934.525 2  -1958136.764 1
  22306319.251     8876540.168 3   6916765.673 2
 91  4 12 21 43  0.0010000  0  6 02 19 06 11 16 18
  22246936.073    -8252429.511 3  -6430434.099 2
  21272350.958     1739809.931 3   1355695.792 3
  24046380.940    -3522230.791 2  -2744575.102 1
  23167027.003    -2179731.593 3  -1698475.551 2
  24181597.827    -2509054.449 2  -1955113.392 1
  22315582.839     8925221.479 3   6954699.043 2
 91  4 12 21 43 15.0010000  0  6 02 19 06 11 16 18
  22242399.906    -8276272.992 3  -6449013.361 2
  21274908.793     1753282.477 3   1366193.868 3
  24041455.651    -3548140.018 2  -2764763.935 1
  23168904.001    -2169891.530 3  -1690807.959 2
  24182356.597    -2505045.714 2  -1951989.720 1
  22324865.919     8973984.138 3   6992695.796 2
 91  4 12 21 43 30.0010000  0  6 02 19 06 11 16 18
  22237879.934    -8300025.631 3  -6467521.839 2
  21277490.605     1766823.184 3   1376745.058 3
  24036531.252    -3574029.003 2  -2784937.045 1
  23170806.179    -2159882.754 3  -1683008.893 2
  24183149.552    -2500890.316 2  -1948751.808 1
  22334160.690     9022845.823 3   7030769.719 2
 91  4 12 21 43 45.0010000  0  6 02 19 06 11 16 18
  22233375.247    -8323694.722 3  -6485965.198 2
  21280073.918     1780424.709 3   1387343.632 3
  24031606.871    -3599905.009 2  -2805100.014 1
  23172740.745    -2149712.473 3  -1675083.989 2
  24183975.489    -2496595.736 2  -1945405.445 1
  22343471.044     9071798.981 3   7068914.917 2
 91  4 12 21 44  0.0010000  0  6 02 19 06 11 16 18
  22228883.771    -8347300.997 3  -6504359.620 2
  21282671.610     1794066.384 3   1397973.492 3
  24026665.981    -3625788.905 2  -2825269.167 1
  23174704.994    -2139401.390 3  -1667049.380 2
  24184803.205    -2492182.773 2  -1941966.848 1
  22352805.672     9120822.426 3   7107114.887 2
 91  4 12 21 44 15.0010000  0  6 02 19 06 11 16 18
  22224406.359    -8370823.190 3  -6522688.521 2
  21285276.508     1807769.358 3   1408651.122 2
  24021754.181    -3651659.558 2  -2845428.004 1
  23176695.314    -2128928.373 3  -1658888.566 2
  24185687.599    -2487630.172 2  -1938419.416 1
  22362152.008     9169937.211 3   7145386.017 2
 91  4 12 21 44 30.0010000  0  6 02 19 06 11 16 18
  22219943.657    -8394281.784 3  -6540967.865 2
  21287897.287     1821513.429 3   1419360.775 3
  24016827.391    -3677537.363 2  -2865592.406 1
  23178718.003    -2118313.881 3  -1650617.525 2
  24186568.992    -2482958.646 2  -1934779.342 1
  22371509.426     9219122.678 3   7183712.221 2
 91  4 12 21 44 45.0010000  0  6 02 19 06 11 16 18
  22215493.538    -8417656.519 3  -6559181.858 2
  21290519.583     1835318.783 3   1430118.184 3
  24011908.995    -3703402.153 2  -2885746.636 1
  23180767.688    -2107537.791 3  -1642220.549 2
  24187480.051    -2478148.322 2  -1931031.122 1
  22380885.742     9268398.732 3   7222109.030 2
 91  4 12 21 45  0.0010000  0  6 02 19 06 11 16 18
  22211057.797    -8440955.127 3  -6577336.548 2
  21293160.150     1849177.684 3   1440917.318 3
  24006983.409    -3729261.802 2  -2905896.839 1
  23182850.040    -2096607.802 3  -1633703.678 2
  24188421.699    -2473206.884 2  -1927180.694 1
  22390279.735     9317757.636 3   7260570.394 2
 91  4 12 21 45 15.0010000  0  6 02 19 06 11 16 18
  22206637.064    -8464178.902 3  -6595432.919 2
  21295803.125     1863088.938 3   1451757.234 3
  24002054.229    -3755117.554 2  -2926044.089 1
  23184956.980    -2085525.125 3  -1625067.802 1
  24189385.545    -2468135.479 2  -1923229.075 1
  22399688.421     9367197.735 3   7299095.032 2
 91  4 12 21 45 30.0010000  0  6 02 19 06 11 16 18
  22202234.321    -8487331.493 3  -6613473.808 2
  21298465.872     1877049.036 3   1462635.217 3
  23997136.426    -3780973.031 2  -2946191.097 2
  23187092.712    -2074293.437 3  -1616315.830 2
  24190369.458    -2462937.973 2  -1919179.066 1
  22409112.394     9416714.936 3   7337679.743 2
 91  4 12 21 45 45.0010000  0  6 02 19 06 11 16 18
  22197842.957    -8510412.488 3  -6631458.917 2
  21301126.245     1891058.291 3   1473551.507 3
  23992221.328    -3806827.999 2  -2966337.676 1
  23189258.109    -2062912.551 3  -1607447.591 2
  24191383.054    -2457614.109 2  -1915030.697 1
  22418549.856     9466309.243 3   7376324.539 2
 91  4 12 21 46  0.0010000  0  6 02 19 06 11 16 18
  22193467.175    -8533415.485 3  -6649383.252 2
  21303805.778     1905123.306 3   1484511.250 2
  23987303.228    -3832675.998 2  -2986478.848 1
  23191453.190    -2051375.970 3  -1598458.040 2
  24192424.832    -2452157.244 2  -1910778.652 1
  22428005.012     9515987.040 3   7415034.377 2
 91  4 12 21 46 15.0010000  0  6 02 19 06 11 16 18
  22189109.105    -8556321.228 3  -6667231.798 2
  21306493.722     1919263.157 3   1495529.302 2
  23982381.237    -3858497.952 2  -3006599.737 2
  23193681.251    -2039664.677 3  -1589332.334 2
  24193493.291    -2446548.730 2  -1906408.420 1
  22437480.550     9565767.084 3   7453823.904 2
 91  4 12 21 46 30.0010000  0  6 02 19 06 11 16 18
  22184758.818    -8579167.340 3  -6685033.883 2
  21309194.248     1933440.271 3   1506576.393 3
  23977476.034    -3884331.499 2  -3026729.659 1
  23195938.384    -2027816.192 3  -1580099.745 1
  24194575.536    -2440826.340 2  -1901949.560 1
  22446961.497     9615611.678 3   7492663.727 2
 91  4 12 21 46 45.0010000  0  6 02 19 06 11 16 18
  22180421.706    -8601946.597 3  -6702783.885 2
  21311899.573     1947662.282 3   1517658.470 3
  23972549.855    -3910169.396 2  -3046862.958 1
  23198222.199    -2015823.335 3  -1570754.655 2
  24195686.277    -2434982.846 2  -1897396.197 1
  22456462.216     9665527.637 3   7531559.159 2
 91  4 12 21 47  0.0010000  0  6 02 19 06 11 16 18
  22176106.494    -8624642.850 3  -6720469.208 2
  21314622.889     1961945.203 3   1528788.014 3
  23967639.852    -3935995.630 2  -3066987.120 1
  23200532.398    -2003670.007 3  -1561284.512 2
  24196829.389    -2429002.290 2  -1892736.141 1
  22465980.333     9715531.030 3   7570522.716 2
 91  4 12 21 47 15.0010000  0  6 02 19 06 11 16 18
  22171800.583    -8647263.643 3  -6738095.722 2
  21317344.110     1976281.562 3   1539959.193 3
  23962726.551    -3961817.556 2  -3087107.972 1
  23202872.891    -1991363.775 3  -1551695.217 2
  24197987.787    -2422891.964 2  -1887974.902 1
  22475508.937     9765614.248 3   7609548.459 2
 91  4 12 21 47 30.0010000  0  6 02 19 06 11 16 18
  22167508.755    -8669809.210 3  -6755663.614 2
  21320086.011     1990671.137 3   1551171.833 3
  23957808.452    -3987635.647 2  -3107225.845 1
  23205246.941    -1978904.953 3  -1541987.045 2
  24199181.259    -2416652.500 2  -1883113.052 1
  22485053.124     9815776.419 3   7648635.746 2
 91  4 12 21 47 45.0010000  0  6 02 19 06 11 16 18
  22163234.010    -8692283.039 3  -6773175.610 2
  21322832.117     2005110.435 3   1562423.224 3
  23952902.358    -4013453.419 2  -3127343.455 1
  23207644.985    -1966297.078 3  -1532162.722 2
  24200388.518    -2410287.488 2  -1878153.394 1
  22494614.395     9866013.693 3   7687781.554 2
 91  4 12 21 48  0.0010000  0  6 02 19 06 11 16 18
  22158972.160    -8714670.563 3  -6790620.352 2
  21325595.900     2019614.047 3   1573724.725 3
  23947989.354    -4039256.378 2  -3147449.564 1
  23210071.211    -1953525.606 3  -1522210.914 2
  24201627.867    -2403782.623 2  -1873084.708 1
  22504185.578     9916340.495 3   7726997.119 2
 91  4 12 21 48 15.0010000  0  6 02 19 06 11 16 18
  22154727.709    -8736983.374 3  -6808006.898 2
  21328362.387     2034170.238 3   1585067.199 3
  23943078.758    -4065056.053 2  -3167553.094 1
  23212533.995    -1940602.226 3  -1512140.741 2
  24202885.783    -2397149.482 2  -1867916.095 1
  22513776.531     9966744.908 3   7766273.155 2
 91  4 12 21 48 30.0010000  0  6 02 19 06 11 16 18
  22150493.431    -8759228.944 3  -6825341.023 2
  21331145.348     2048771.911 3   1596445.124 3
  23938165.754    -4090860.025 2  -3187659.960 1
  23215021.384    -1927534.512 3  -1501958.109 2
  24204184.795    -2390395.443 2  -1862653.340 1
  22523383.993    10017219.512 3   7805603.895 2
 91  4 12 21 48 45.0010000  0  6 02 19 06 11 16 18
  22146275.050    -8781400.511 3  -6842617.491 2
  21333927.436     2063425.965 3   1607863.859 2
  23933264.738    -4116661.469 2  -3207764.851 1
  23217536.641    -1914315.654 3  -1491657.704 2
  24205487.698    -2383514.201 2  -1857291.401 1
  22533003.426    10067770.717 3   7844994.324 2
 91  4 12 21 49  0.0010000  0  6 02 19 06 11 16 18
  22142067.157    -8803511.740 3  -6859846.946 2
  21336728.981     2078118.647 3   1619312.690 3
  23928351.751    -4142474.162 2  -3227878.478 1
  23220076.468    -1900959.514 3  -1481250.317 2
  24206815.764    -2376519.360 2  -1851840.944 1
  22542636.050    10118384.308 3   7884433.354 2
 91  4 12 21 49 15.0010000  0  6 02 19 06 11 16 18
  22137878.774    -8825543.559 3  -6877014.515 2
  21339528.747     2092869.248 3   1630806.643 3
  23923436.042    -4168279.049 2  -3247986.056 1
  23222646.291    -1887446.974 3  -1470721.064 2
  24208179.220    -2369392.041 2  -1846287.280 1
  22552284.276    10169079.380 3   7923935.884 2
 91  4 12 21 49 30.0010000  0  6 02 19 06 11 16 18
  22133697.858    -8847495.049 3  -6894119.503 2
  21342353.396     2107678.380 3   1642346.236 2
  23918524.853    -4194075.251 2  -3268086.843 1
  23225253.284    -1873777.299 3  -1460069.349 2
  24209555.867    -2362131.507 2  -1840629.751 1
  22561948.992    10219856.390 3   7963502.269 2
 91  4 12 21 49 45.0010000  0  6 02 19 06 11 16 18
  22129537.639    -8869365.593 3  -6911161.402 2
  21345178.045     2122546.950 3   1653932.102 2
  23913619.352    -4219862.349 2  -3288180.576 1
  23227881.566    -1859949.888 3  -1449294.747 2
  24210960.697    -2354737.422 2  -1834868.228 1
  22571625.696    10270715.651 3   8003132.742 2
 91  4 12 21 50  0.0010000  0  6 02 19 06 11 16 18
  22125387.611    -8891160.859 3  -6928144.658 2
  21348026.968     2137469.543 3   1665560.091 3
  23908717.447    -4245645.688 2  -3308271.353 1
  23230542.236    -1845970.168 3  -1438401.456 2
  24212397.007    -2347215.262 2  -1829006.885 1
  22581323.079    10321651.539 3   8042822.921 2
 91  4 12 21 50 15.0010000  0  6 02 19 06 11 16 18
  22121258.575    -8912876.794 3  -6945066.089 2
  21350868.404     2152449.899 3   1677233.086 3
  23903806.537    -4271421.522 2  -3328356.289 1
  23233234.368    -1831834.475 3  -1427386.615 2
  24213855.496    -2339561.490 2  -1823042.969 1
  22591027.354    10372667.678 3   8082575.629 2
 91  4 12 21 50 30.0010000  0  6 02 19 06 11 16 18
  22117139.417    -8934519.526 3  -6961930.475 2
  21353737.115     2167482.050 3   1688946.441 2
  23898906.725    -4297195.914 2  -3348440.068 1
  23235951.088    -1817548.810 3  -1416254.899 2
  24215329.272    -2331782.143 2  -1816981.245 1
  22600744.229    10423757.463 3   8122385.723 2
 91  4 12 21 50 45.0010000  0  6 02 19 06 11 16 18
  22113033.171    -8956078.548 3  -6978729.632 2
  21356601.935     2182576.516 3   1700708.371 2
  23893999.724    -4322958.521 2  -3368514.702 1
  23238699.881    -1803102.907 3  -1404998.351 2
  24216838.140    -2323866.981 2  -1810813.678 1
  22610485.987    10474931.184 3   8162261.229 2
 91  4 12 21 51  0.0010000  0  6 02 19 06 11 16 18
  22108946.400    -8977559.744 3  -6995468.152 2
  21359486.543     2197727.563 3   1712514.372 2
  23889098.725    -4348715.164 2  -3388584.687 1
  23241477.467    -1788502.565 3  -1393621.451 2
  24218373.672    -2315821.934 2  -1804544.854 1
  22620241.235    10526182.876 3   8202197.491 2
 91  4 12 21 51 15.0010000  0  6 02 19 06 11 16 18
  22104871.914    -8998977.671 3  -7012157.379 2
  21362376.230     2212920.823 3   1724353.270 2
  23884198.006    -4374480.327 2  -3408661.306 1
  23244280.216    -1773762.384 3  -1382135.569 2
  24219925.398    -2307661.430 2  -1798186.108 1
  22630008.174    10577497.720 3   8242182.944 2
 91  4 12 21 51 30.0010000  0  6 02 19 06 11 16 18
  22100810.026    -9020322.053 3  -7028789.279 2
  21365279.422     2228166.645 3   1736233.115 3
  23879296.414    -4400243.743 2  -3428736.576 1
  23247118.355    -1758872.080 3  -1370532.752 2
  24221501.100    -2299375.312 2  -1791729.466 1
  22639781.413    10628885.692 3   8282225.396 2
 91  4 12 21 51 45.0010000  0  6 02 19 06 11 16 18
  22096765.223    -9041586.143 3  -7045358.646 2
  21368185.616     2243471.711 3   1748159.133 2
  23874393.601    -4425998.694 2  -3448805.232 1
  23249981.970    -1743825.168 3  -1358807.865 2
  24223102.594    -2290957.174 2  -1785169.959 1
  22649578.628    10680353.226 3   8322329.834 2
 91  4 12 21 52  0.0010000  0  6 02 19 06 11 16 18
  22092732.111    -9062790.235 3  -7061881.235 2
  21371112.489     2258815.850 3   1760115.591 3
  23869491.399    -4451765.666 2  -3468883.262 1
  23252872.564    -1728641.959 3  -1346976.795 2
  24224722.375    -2282427.690 2  -1778523.695 1
  22659380.642    10731879.831 3   8362480.305 2
 91  4 12 21 52 15.0010000  0  6 02 19 06 11 16 18
  22088710.412    -9083911.846 3  -7078339.565 2
  21374042.363     2274221.661 3   1772120.108 2
  23864588.882    -4477522.018 2  -3488953.011 1
  23255787.152    -1713300.055 3  -1335022.060 1
  24226376.935    -2273764.135 2  -1771772.971 1
  22669203.928    10783487.789 3   8402694.168 2
 91  4 12 21 52 30.0010000  0  6 02 19 06 11 16 18
  22084702.777    -9104969.057 3  -7094747.714 2
  21376984.522     2289670.936 3   1784158.484 2
  23859683.678    -4503286.017 2  -3509028.748 1
  23258732.923    -1697817.760 3  -1322957.937 2
  24228043.780    -2264984.895 2  -1764932.053 1
  22679029.343    10835158.675 3   8442957.068 2
 91  4 12 21 52 45.0010000  0  6 02 19 06 11 16 18
  22080708.335    -9125946.186 3  -7111093.457 2
  21379930.276     2305179.498 3   1796243.075 3
  23854787.182    -4529041.844 2  -3529098.085 1
  23261714.956    -1682179.172 3  -1310772.031 2
  24229749.294    -2256074.461 2  -1757988.926 1
  22688884.406    10886908.079 3   8483281.135 2
 91  4 12 21 53  0.0010000  0  6 02 19 06 11 16 18
  22076735.200    -9146824.810 3  -7127362.451 2
  21382901.821     2320765.749 3   1808388.195 3
  23849889.761    -4554771.294 2  -3549146.869 1
  23264718.278    -1666366.137 3  -1298450.155 2
  24231463.202    -2247014.440 2  -1750929.255 1
  22698748.490    10938753.822 3   8523680.276 2
 91  4 12 21 53 15.0010000  0  6 02 19 06 11 16 18
  22072777.333    -9167631.690 3  -7143575.528 2
  21385874.274     2336403.117 3   1820573.139 3
  23844988.152    -4580501.123 2  -3569195.950 1
  23267753.673    -1650405.616 3  -1286013.387 2
  24233214.000    -2237831.987 2  -1743774.207 1
  22708630.235    10990668.820 3   8564133.389 2
 91  4 12 21 53 30.0010000  0  6 02 19 06 11 16 18
  22068832.659    -9188367.098 3  -7159732.925 2
  21388863.496     2352091.447 3   1832797.796 3
  23840091.045    -4606231.487 2  -3589245.444 1
  23270822.643    -1634297.738 3  -1273461.790 2
  24234984.569    -2228527.455 2  -1736524.009 1
  22718521.594    11042652.675 3   8604640.159 2
 91  4 12 21 53 45.0010000  0  6 02 19 06 11 16 18
  22064900.288    -9209028.099 3  -7175832.331 2
  21391852.736     2367833.804 3   1845064.548 3
  23835189.750    -4631959.504 2  -3609293.100 1
  23273917.404    -1618039.683 3  -1260793.178 2
  24236771.332    -2219097.987 2  -1729176.434 1
  22728427.035    11094708.172 3   8645202.751 2
 91  4 12 21 54  0.0010000  0  6 02 19 06 11 16 18
  22060975.106    -9229626.041 3  -7191882.606 2
  21394863.841     2383618.580 3   1857364.356 3
  23830305.225    -4657696.698 2  -3629347.928 1
  23277033.437    -1601642.978 3  -1248016.502 2
  24238592.576    -2209555.038 2  -1721740.485 1
  22738346.577    11146823.619 3   8685812.055 2
 91  4 12 21 54 15.0010000  0  6 02 19 06 11 16 18
  22057074.807    -9250141.786 3  -7207868.840 2
  21397873.166     2399465.261 3   1869712.406 3
  23825406.006    -4683423.760 2  -3649394.874 1
  23280189.658    -1585088.565 3  -1235116.945 2
  24240427.606    -2199879.419 2  -1714201.122 1
  22748276.292    11199017.876 3   8726482.768 2
 91  4 12 21 54 30.0010000  0  6 02 19 06 11 16 18
  22053185.904    -9270585.661 3  -7223799.052 2
  21400901.965     2415363.430 3   1882100.577 3
  23820503.507    -4709150.998 2  -3669441.915 1
  23283361.462    -1568386.733 3  -1222102.533 2
  24242297.414    -2190081.721 2  -1706566.615 1
  22758224.312    11251280.386 3   8767206.688 2
 91  4 12 21 54 45.0010000  0  6 02 19 06 11 16 18
  22049305.377    -9290955.024 3  -7239671.229 2
  21403936.471     2431315.808 3   1894530.996 3
  23815618.389    -4734875.753 2  -3689487.051 1
  23286571.342    -1551534.884 3  -1208971.199 2
  24244178.897    -2180159.467 2  -1698835.076 1
  22768180.115    11303613.466 3   8807985.571 2
 91  4 12 21 55  0.0010000  0  6 02 19 06 11 16 18
  22045442.859    -9311263.130 3  -7255495.666 2
  21406983.558     2447309.229 3   1906993.378 3
  23810716.186    -4760611.476 2  -3709540.721 1
  23289807.293    -1534546.502 3  -1195733.502 2
  24246085.577    -2170126.256 2  -1691017.095 1
  22778150.314    11356003.433 3   8848808.785 2
 91  4 12 21 55 15.0010000  0  6 02 19 06 11 16 18
  22041589.030    -9331512.936 3  -7271274.659 2
  21410027.644     2463340.716 3   1919485.430 3
  23805822.377    -4786361.181 2  -3729605.283 1
  23293063.940    -1517424.736 3  -1182391.860 2
  24248020.440    -2159985.258 2  -1683115.123 1
  22788128.907    11408447.127 3   8889673.845 2
 91  4 12 21 55 30.0010000  0  6 02 19 06 11 16 18
  22037758.585    -9351658.528 3  -7286972.462 2
  21413101.412     2479456.698 3   1932043.334 3
  23800924.066    -4812078.788 2  -3749644.851 1
  23296348.176    -1500123.530 3  -1168910.402 2
  24249987.080    -2149690.597 2  -1675093.366 1
  22798129.086    11460990.230 3   8930616.388 2
 91  4 12 21 55 45.0010000  0  6 02 19 06 11 16 18
  22033935.923    -9371732.939 3  -7302614.787 2
  21416169.789     2495624.019 3   1944641.227 3
  23796032.648    -4837797.262 2  -3769685.089 1
  23299676.473    -1482675.877 3  -1155314.811 2
  24251963.317    -2139274.968 2  -1666977.384 1
  22808140.956    11513599.713 3   8971610.663 2
 91  4 12 21 56  0.0010000  0  6 02 19 06 11 16 18
  22030127.658    -9391758.632 3  -7318219.158 2
  21419257.064     2511820.229 3   1957261.634 2
  23791133.133    -4863539.190 2  -3789743.569 1
  23303019.464    -1465104.464 3  -1141622.805 2
  24253961.140    -2128761.334 2  -1658785.032 1
  22818163.018    11566252.755 3   9012638.861 2
 91  4 12 21 56 15.0010000  0  6 02 19 06 11 16 18
  22026331.694    -9411702.641 3  -7333759.874 2
  21422344.915     2528078.190 3   1969930.169 3
  23786237.527    -4889271.692 2  -3809794.757 1
  23306390.619    -1447376.560 3  -1127808.845 2
  24255991.926    -2118116.984 2  -1650490.827 1
  22828195.863    11618981.960 3   9053726.411 2
 91  4 12 21 56 30.0010000  0  6 02 19 06 11 16 18
  22022547.405    -9431586.892 3  -7349254.028 3
  21425450.775     2544376.368 3   1982630.017 3
  23781334.120    -4915016.547 2  -3829855.549 1
  23309790.271    -1429513.995 3  -1113889.954 2
  24258043.409    -2107363.906 2  -1642111.909 1
  22838232.321    11671765.094 3   9094856.000 2
 91  4 12 21 56 45.0010000  0  6 02 19 06 11 16 18
  22018779.013    -9451386.986 3  -7364682.595 2
  21428563.806     2560739.079 3   1995380.171 3
  23776438.217    -4940749.452 2  -3849907.030 1
  23313221.088    -1411492.519 3  -1099847.222 2
  24260114.680    -2096477.940 2  -1633629.429 1
  22848301.743    11724626.435 3   9136046.525 2
 91  4 12 21 57  0.0010000  0  6 02 19 06 11 16 18
  22015026.518    -9471106.531 3  -7380048.416 2
  21431692.142     2577162.765 3   2008177.833 2
  23771543.798    -4966473.967 2  -3869951.962 1
  23316678.308    -1393315.835 3  -1085683.570 2
  24262203.925    -2085462.768 2  -1625046.236 1
  22858375.369    11777562.222 3   9177295.047 1
 91  4 12 21 57 15.0010000  0  6 02 19 06 11 16 18
  22011289.903    -9490741.168 3  -7395348.064 2
  21434824.072     2593651.966 3   2021026.546 3
  23766655.084    -4992185.786 2  -3889987.004 1
  23320164.582    -1374979.710 3  -1071395.682 2
  24264335.451    -2074313.936 2  -1616358.961 1
  22868460.094    11830576.414 3   9218604.661 2
 91  4 12 21 57 30.0010000  0  6 02 19 06 11 16 18
  22007571.279    -9510283.874 3  -7410576.066 2
  21437982.701     2610213.710 3   2033931.785 3
  23761758.885    -5017877.840 2  -3910006.635 1
  23323690.748    -1356477.160 3  -1056978.105 2
  24266473.871    -2063024.795 2  -1607562.305 1
  22878564.905    11883675.603 3   9259980.504 2
 91  4 12 21 57 45.0010000  0  6 02 19 06 11 16 18
  22003865.237    -9529755.811 3  -7425748.936 2
  21441138.014     2626826.844 3   2046877.067 3
  23756864.465    -5043571.368 2  -3930027.475 1
  23327237.888    -1337829.570 3  -1042447.510 2
  24268649.163    -2051616.714 2  -1598672.982 1
  22888680.499    11936838.266 3   9301405.819 2
 91  4 12 21 58  0.0010000  0  6 02 19 06 11 16 18
  22000171.794    -9549164.156 3  -7440872.253 2
  21444318.508     2643484.269 3   2059856.863 2
  23751986.850    -5069273.415 2  -3950054.932 1
  23330817.713    -1319044.174 3  -1027809.537 1
  24270835.553    -2040097.184 2  -1589696.869 1
  22898813.474    11990057.419 3   9342875.146 2
 91  4 12 21 58 15.0010000  0  6 02 19 06 11 16 18
  21996494.841    -9568484.008 3  -7455926.625 2
  21447490.609     2660211.014 3   2072890.677 3
  23747089.726    -5094959.239 2  -3970069.727 1
  23334418.513    -1300096.097 3  -1013044.793 2
  24273056.407    -2028441.232 2  -1580614.381 1
  22908953.656    12043357.403 3   9384407.441 2
 91  4 12 21 58 30.0010000  0  6 02 19 06 11 16 18
  21992831.674    -9587730.368 3  -7470923.721 2
  21450688.798     2676992.038 3   2085966.783 2
  23742206.719    -5120643.609 2  -3990083.380 1
  23338051.998    -1281000.455 3   -998165.061 2
  24275288.971    -2016663.775 2  -1571437.274 1
  22919107.327    12096722.927 3   9425990.822 2
 91  4 12 21 58 45.0010000  0  6 02 19 06 11 16 18
  21989186.201    -9606903.758 3  -7485863.959 2
  21453889.377     2693826.922 3   2099084.857 3
  23737320.099    -5146327.315 2  -4010096.526 1
  23341712.460    -1261757.822 3   -983170.812 2
  24277565.299    -2004765.835 2  -1562166.254 1
  22929270.299    12150153.357 3   9467624.773 2
 91  4 12 21 59  0.0010000  0  6 02 19 06 11 16 18
  21985550.919    -9626002.225 3  -7500745.813 2
  21457106.761     2710717.829 3   2112246.590 3
  23732430.478    -5172008.210 2  -4030107.464 1
  23345403.809    -1242366.420 3   -968060.625 2
  24279857.507    -1992745.604 2  -1552799.938 1
  22939454.543    12203650.199 3   9509310.501 2
 91  4 12 21 59 15.0010000  0  6 02 19 06 11 16 18
  21981935.723    -9644990.291 3  -7515541.649 2
  21460333.114     2727700.049 3   2125479.470 3
  23727551.659    -5197651.063 2  -4050088.807 1
  23349131.141    -1222791.067 3   -952807.108 2
  24282167.410    -1980568.047 2  -1543310.993 1
  22949658.278    12257248.789 3   9551075.468 1
 91  4 12 21 59 30.0010000  0  6 02 19 06 11 16 18
  21978331.625    -9663931.360 3  -7530300.858 2
  21463581.367     2744710.566 3   2138734.403 3
  23722666.837    -5223319.145 2  -4070089.780 1
  23352880.931    -1203095.106 3   -937459.596 2
  24284504.291    -1968296.363 2  -1533748.778 1
  22959857.826    12310885.351 3   9592870.078 2
 91  4 12 21 59 45.0010000  0  6 02 19 06 11 16 18
  21974743.406    -9682790.294 3  -7544996.071 2
  21466819.133     2761784.585 3   2152038.829 3
  23717778.421    -5248977.119 2  -4090082.855 1
  23356653.232    -1183243.418 3   -921990.739 2
  24286862.461    -1955895.386 2  -1524085.750 1
  22970078.052    12364594.861 3   9634721.501 2
 91  4 12 22  0  0.0010000  0  6 02 19 06 11 16 18
  21971173.772    -9701546.865 3  -7559611.507 2
  21470087.768     2778942.473 3   2165408.583 3
  23712911.886    -5274604.955 2  -4110052.482 1
  23360465.389    -1163215.830 3   -906384.826 2
  24289246.702    -1943345.368 2  -1514306.655 1
  22980321.958    12418397.345 3   9676645.385 2
 91  4 12 22  0 15.0010000  0  6 02 19 06 11 16 18
  21967619.442    -9720233.604 3  -7574172.552 2
  21473363.907     2796151.683 3   2178818.342 3
  23708027.378    -5300235.047 2  -4130023.871 1
  23364305.135    -1143045.066 3   -890667.362 1
  24291654.046    -1930679.018 2  -1504436.827 1
  22990573.054    12472259.964 3   9718616.095 2
 91  4 12 22  0 30.0010000  0  6 02 19 06 11 16 18
  21964074.692    -9738845.307 3  -7588675.113 3
  21476652.017     2813417.350 3   2192272.098 3
  23703154.841    -5325862.257 2  -4149992.986 1
  23368168.247    -1122726.159 3   -874834.438 2
  24294099.450    -1917891.316 2  -1494472.506 1
  23000832.857    12526187.683 3   9760637.552 1
 91  4 12 22  0 45.0010000  0  6 02 19 06 11 16 18
  21960548.527    -9757382.155 3  -7603119.343 2
  21479948.241     2830739.541 3   2205769.898 3
  23698277.820    -5351486.711 2  -4169959.936 1
  23372063.763    -1102259.239 3   -858886.195 2
  24296551.450    -1904982.274 2  -1484413.650 1
  23011106.149    12580180.083 3   9802709.424 2
 91  4 12 22  1  0.0010000  0  6 02 19 06 11 16 18
  21957034.070    -9775843.127 3  -7617504.462 2
  21483261.252     2848119.447 3   2219312.668 3
  23693406.504    -5377107.365 2  -4189923.983 1
  23375988.946    -1081643.369 3   -842821.889 1
  24299032.836    -1891951.238 2  -1474259.658 1
  23021393.227    12634237.980 3   9844832.302 1
 91  4 12 22  1 15.0010000  0  6 02 19 06 11 16 18
  21953542.683    -9794209.846 4  -7631816.117 2
  21486572.151     2865575.524 3   2232914.799 3
  23688529.779    -5402706.015 2  -4209870.841 1
  23379943.793    -1060860.400 3   -826627.337 2
  24301545.092    -1878780.322 2  -1463996.720 1
  23031696.795    12688379.275 3   9887020.176 2
 91  4 12 22  1 30.0010000  0  6 02 19 06 11 16 18
  21950058.189    -9812523.516 3  -7646086.441 2
  21489908.249     2883066.630 3   2246544.212 3
  23683653.054    -5428323.577 2  -4229832.474 1
  23383921.151    -1039951.487 3   -810334.701 2
  24304055.846    -1865510.271 2  -1453656.502 1
  23042009.647    12742562.509 3   9929240.734 1
 91  4 12 22  1 45.0010000  0  6 02 19 06 11 16 18
  21946578.493    -9830792.989 3  -7660322.325 2
  21493235.343     2900583.864 3   2260193.984 3
  23678773.921    -5453968.906 2  -4249815.693 1
  23387923.673    -1018925.669 3   -793950.943 2
  24306613.385    -1852150.393 2  -1443246.312 1
  23052320.719    12796778.803 3   9971487.063 2
 91  4 12 22  2  0.0010000  0  6 02 19 06 11 16 18
  21943119.790    -9848987.964 3  -7674500.171 3
  21496582.818     2918157.810 3   2273887.948 3
  23673892.100    -5479611.745 2  -4269797.012 1
  23391950.189     -997752.782 3   -777452.597 2
  24309173.611    -1838670.574 2  -1432742.659 1
  23062656.954    12851057.835 3  10013782.266 2
 91  4 12 22  2 15.0010000  0  6 02 19 06 11 16 18
  21939669.184    -9867107.247 3  -7688619.023 2
  21499937.203     2935789.539 3   2287626.946 2
  23669014.782    -5505250.931 2  -4289775.464 1
  23396012.372     -976431.755 3   -760838.804 1
  24311762.020    -1825070.073 2  -1422144.953 1
  23072997.098    12905400.642 3  10056127.170 1
 91  4 12 22  2 30.0010000  0  6 02 19 06 11 16 18
  21936235.958    -9885153.045 3  -7702680.622 2
  21503308.062     2953476.793 3   2301409.203 2
  23664138.650    -5530888.761 2  -4309752.881 1
  23400094.659     -954964.963 3   -744111.447 2
  24314375.609    -1811350.962 2  -1411454.845 1
  23083348.323    12959804.927 3  10098519.971 2
 91  4 12 22  2 45.0010000  0  6 02 19 06 11 16 18
  21932820.131    -9903119.676 3  -7716680.535 2
  21506678.938     2971225.305 3   2315239.194 3
  23659261.942    -5556519.574 2  -4329724.864 1
  23404209.001     -933347.064 3   -727266.341 2
  24316995.794    -1797508.103 2  -1400668.282 1
  23093710.349    13014275.859 3  10140964.707 2
 91  4 12 22  3  0.0010000  0  6 02 19 06 11 16 18
  21929409.677    -9921021.875 3  -7730630.233 3
  21510068.084     2989020.879 3   2329105.850 2
  23654382.809    -5582157.951 2  -4349702.667 1
  23408343.447     -911592.636 3   -710314.842 2
  24319665.153    -1783556.098 2  -1389796.686 1
  23104083.771    13068798.743 3  10183449.924 2
 91  4 12 22  3 15.0010000  0  6 02 19 06 11 16 18
  21926021.124    -9938826.783 3  -7744504.121 3
  21513465.938     3006896.398 3   2343034.811 3
  23649502.193    -5607770.953 2  -4369660.739 1
  23412521.657     -889668.949 3   -693231.451 2
  24322338.998    -1769462.141 2  -1378814.485 1
  23114477.574    13123406.032 3  10226000.923 2
 91  4 12 22  3 30.0010000  0  6 02 19 06 11 16 18
  21922643.373    -9956567.704 3  -7758328.157 2
  21516876.374     3024818.322 3   2356999.928 2
  23644631.156    -5633392.077 2  -4389625.139 1
  23416716.340     -867609.711 3   -676042.449 2
  24325046.713    -1755260.124 2  -1367748.063 1
  23124881.272    13178063.938 3  10268591.356 2
 91  4 12 22  3 45.0010000  0  6 02 19 06 11 16 18
  21919284.503    -9974238.508 3  -7772097.549 2
  21520299.112     3042793.060 3   2371006.201 2
  23639753.838    -5659015.026 2  -4409590.966 1
  23420944.319     -845408.767 3   -658743.003 2
  24327768.232    -1740943.931 2  -1356592.683 1
  23135296.661    13232778.611 3  10311226.017 2
 91  4 12 22  4  0.0010000  0  6 02 19 06 11 16 18
  21915937.307    -9991819.470 3  -7785796.936 2
  21523732.634     3060840.567 3   2385069.180 3
  23634881.004    -5684619.948 2  -4429542.698 1
  23425199.572     -823046.174 3   -641317.611 2
  24330520.323    -1726493.618 2  -1345332.773 1
  23145717.757    13287569.363 3  10353919.944 2
 91  4 12 22  4 15.0010000  0  6 02 19 06 11 16 18
  21912610.510   -10009298.751 3  -7799417.093 2
  21527183.834     3078972.447 3   2399197.897 3
  23630017.785    -5710195.086 2  -4449471.268 1
  23429491.994     -800510.353 3   -623757.216 1
  24333295.519    -1711897.543 2  -1333959.349 1
  23156163.719    13342447.852 3  10396682.267 2
 91  4 12 22  4 30.0010000  0  6 02 19 06 11 16 18
  21909299.907   -10026709.516 4  -7812983.862 2
  21530644.945     3097155.740 3   2413366.681 3
  23625151.251    -5735773.625 2  -4469402.474 1
  23433803.611     -777834.813 3   -606087.997 2
  24336101.269    -1697189.608 2  -1322498.725 1
  23166618.685    13397380.681 3  10439486.915 2
 91  4 12 22  4 45.0010000  0  6 02 19 06 11 16 18
  21905999.198   -10044043.090 4  -7826490.474 2
  21534111.745     3115399.298 3   2427582.424 2
  23620278.121    -5761346.815 2  -4489329.495 1
  23438147.616     -755010.910 3   -588303.130 2
  24338913.913    -1682360.844 2  -1310943.965 1
  23177084.139    13452376.237 2  10482340.431 2
 91  4 12 22  5  0.0010000  0  6 02 19 06 11 16 18
  21902714.666   -10061305.978 4  -7839942.006 2
  21537599.537     3133696.699 3   2441840.131 3
  23615413.087    -5786920.995 2  -4509257.297 1
  23442516.784     -732045.124 3   -570407.728 2
  24341758.647    -1667418.168 2  -1299300.447 1
  23187554.689    13507427.890 2  10525237.677 2
 91  4 12 22  5 15.0010000  0  6 02 19 06 11 16 18
  21899447.828   -10078480.532 4  -7853324.708 2
  21541093.018     3152065.746 3   2456153.662 3
  23610553.760    -5812478.593 2  -4529172.228 1
  23446916.839     -708920.103 3   -552388.225 2
  24344625.264    -1652344.108 2  -1287554.486 1
  23198041.135    13562552.833 2  10568192.030 1
 91  4 12 22  5 30.0010000  0  6 02 19 06 11 16 18
  21896186.993   -10095593.794 4  -7866659.654 3
  21544595.190     3170479.410 3   2470501.947 3
  23605690.228    -5838046.658 2  -4549095.271 2
  23451339.980     -685662.965 3   -534265.774 2
  24347515.265    -1637165.664 2  -1275727.248 1
  23208547.056    13617723.803 2  10611182.253 1
 91  4 12 22  5 45.0010000  0  6 02 19 06 11 16 18
  21892951.618   -10112613.574 4  -7879921.765 2
  21548114.445     3188969.906 3   2484910.110 3
  23600823.693    -5863592.898 2  -4569001.280 1
  23455799.384     -662241.671 3   -516015.411 2
  24350424.460    -1621851.094 2  -1263793.932 1
  23219060.184    13672972.826 3  10654233.268 1
 91  4 12 22  6  0.0010000  0  6 02 19 06 11 16 18
  21889721.967   -10129570.322 3  -7893134.746 3
  21551645.706     3207507.178 3   2499354.720 2
  23595957.456    -5889147.640 2  -4588913.963 1
  23460278.593     -638686.623 3   -497660.822 1
  24353369.621    -1606430.786 2  -1251778.208 1
  23229585.894    13728269.479 3  10697321.396 1
 91  4 12 22  6 15.0010000  0  6 02 19 06 11 16 18
  21886507.288   -10146458.986 3  -7906294.683 3
  21555179.654     3226096.155 3   2513839.632 3
  23591099.019    -5914705.844 2  -4608829.323 2
  23464792.266     -614992.983 3   -479198.247 2
  24356323.175    -1590900.086 2  -1239676.466 1
  23240116.996    13783618.269 3  10740450.192 1
 91  4 12 22  6 30.0010000  0  6 02 19 06 11 16 18
  21883313.304   -10163260.428 3  -7919386.650 3
  21558732.798     3244755.893 3   2528379.672 3
  23586238.487    -5940248.597 2  -4628732.640 1
  23469329.916     -591141.971 3   -460613.034 2
  24359300.705    -1575240.291 2  -1227474.143 1
  23250660.696    13839037.692 2  10783633.998 1
 91  4 12 22  6 45.0010000  0  6 02 19 06 11 16 18
  21880124.713   -10179997.191 3  -7932428.211 3
  21562292.538     3263464.056 3   2542957.449 3
  23581371.360    -5965798.262 2  -4648641.380 1
  23473895.469     -567156.203 3   -441922.835 1
  24362299.525    -1559473.626 2  -1215188.512 1
  23261218.497    13894505.388 3  10826855.419 1
 91  4 12 22  7  0.0010000  0  6 02 19 06 11 16 18
  21876957.691   -10196653.251 3  -7945406.907 3
  21565862.172     3282236.685 3   2557585.447 3
  23576513.219    -5991338.829 2  -4668542.985 1
  23478488.575     -543019.814 3   -423115.281 2
  24365326.231    -1543584.400 2  -1202807.459 1
  23271784.377    13950036.932 3  10870126.605 1
 91  4 12 22  7 15.0010000  0  6 02 19 06 11 16 18
  21873805.675   -10213222.253 3  -7958317.750 3
  21569450.373     3301080.559 3   2572268.970 2
  23571649.686    -6016863.645 2  -4688432.336 1
  23483108.381     -518726.359 3   -404185.308 2
  24368373.929    -1527566.224 2  -1190325.848 1
  23282368.545    14005638.429 3  10913452.273 1
 91  4 12 22  7 30.0010000  0  6 02 19 06 11 16 18
  21870663.554   -10229723.055 3  -7971175.448 3
  21573045.187     3319976.820 3   2586993.309 2
  23566799.643    -6042391.652 2  -4708324.155 1
  23487756.369     -494294.905 3   -385147.824 2
  24371444.993    -1511438.387 2  -1177758.860 1
  23292953.917    14061290.908 3  10956817.673 1
 91  4 12 22  7 45.0010000  0  6 02 19 06 11 16 18
  21867529.216   -10246192.646 3  -7984008.828 3
  21576645.691     3338888.315 3   2601729.524 2
  23561936.110    -6067959.960 2  -4728247.442 1
  23492424.738     -469762.758 3   -366031.909 2
  24374520.279    -1495238.235 2  -1165135.432 1
  23303550.980    14116956.941 3  11000193.657 1
 91  4 12 22  8  0.0010000  0  6 02 19 06 11 16 18
  21864413.183   -10262573.340 3  -7996772.933 3
  21580257.903     3357872.877 3   2616522.663 3
  23557069.872    -6093510.836 2  -4748157.087 1
  23497122.476     -445072.437 3   -346792.701 2
  24377634.515    -1478908.107 2  -1152410.786 1
  23314154.047    14172693.985 3  11043624.968 1
 91  4 12 22  8 15.0010000  0  6 02 19 06 11 16 18
  21861303.729   -10278901.696 3  -8009496.267 2
  21583879.085     3376894.245 3   2631344.489 3
  23552206.340    -6119080.590 2  -4768081.451 1
  23501844.505     -420260.345 3   -327458.597 2
  24380763.444    -1462484.688 2  -1139613.376 1
  23324768.805    14228465.399 3  11087083.068 2
 91  4 12 22  8 30.0010000  0  6 02 19 06 11 16 18
  21858217.379   -10295141.039 4  -8022150.230 2
  21587509.271     3395989.090 3   2646223.567 3
  23547346.716    -6144632.658 2  -4787992.036 1
  23506601.016     -395290.170 3   -308001.325 2
  24383909.474    -1445931.673 2  -1126715.029 1
  23335391.939    14284307.535 2  11130596.244 1
 91  4 12 22  8 45.0010000  0  6 02 19 06 11 16 18
  21855139.108   -10311299.684 3  -8034741.311 3
  21591155.948     3415149.330 3   2661153.603 2
  23542481.682    -6170175.158 2  -4807895.165 2
  23511377.018     -370170.220 3   -288427.351 2
  24387079.777    -1429257.277 2  -1113722.089 1
  23346033.675    14340211.629 3  11174157.707 1
 91  4 12 22  9  0.0010000  0  6 02 19 06 11 16 18
  21852077.327   -10327388.151 3  -8047277.711 3
  21594812.816     3434364.296 3   2676126.282 2
  23537621.448    -6195718.768 2  -4827799.180 2
  23516182.983     -344911.266 3   -268745.058 2
  24390279.466    -1412472.504 2  -1100643.198 1
  23356680.210    14396166.975 2  11217759.116 1
 91  4 12 22  9 15.0010000  0  6 02 19 06 11 16 18
  21849030.223   -10343406.454 3  -8059759.440 3
  21598478.688     3453634.101 3   2691141.683 3
  23532755.507    -6221263.441 2  -4847704.014 1
  23521018.333     -319513.485 3   -248954.580 2
  24393490.533    -1395577.289 2  -1087478.200 1
  23367336.621    14452173.393 2  11261400.301 1
 91  4 12 22  9 30.0010000  0  6 02 19 06 11 16 18
  21846002.924   -10359323.089 3  -8072161.953 3
  21602162.533     3472990.259 3   2706224.393 2
  23527899.774    -6246777.629 2  -4867585.083 1
  23525883.663     -293945.539 3   -229031.498 2
  24396722.907    -1378540.568 2  -1074202.919 1
  23378005.336    14508262.138 2  11305105.670 1
 91  4 12 22  9 45.0010000  0  6 02 19 06 11 16 18
  21842990.319   -10375150.213 3  -8084494.704 3
  21605859.571     3492420.830 3   2721365.072 2
  23523054.233    -6272273.426 2  -4887451.813 1
  23530781.381     -268219.640 3   -208985.355 2
  24399992.135    -1361375.017 2  -1060827.314 1
  23388694.746    14564420.710 2  11348865.428 2
 91  4 12 22 10  0.0010000  0  6 02 19 06 11 16 18
  21839995.687   -10390907.519 3  -8096773.067 3
  21609568.615     3511906.375 3   2736548.593 2
  23518197.890    -6297770.377 2  -4907319.459 1
  23535699.167     -242355.579 3   -188831.546 2
  24403282.060    -1344099.923 2  -1047366.297 1
  23399393.736    14620629.113 2  11392664.018 1
 91  4 12 22 10 15.0010000  0  6 02 19 06 11 16 18
  21837006.150   -10406586.843 3  -8108990.651 3
  21613287.536     3531455.249 3   2751781.459 2
  23513349.050    -6323260.140 2  -4927181.490 1
  23540649.950     -216345.373 3   -168563.866 2
  24406588.771    -1326707.283 2  -1033813.713 1
  23410100.823    14676895.503 2  11436507.786 2
 91  4 12 22 10 30.0010000  0  6 02 19 06 11 16 18
  21834038.217   -10422205.681 3  -8121161.106 3
  21617022.947     3551049.955 3   2767050.037 2
  23508502.304    -6348760.228 2  -4947051.586 1
  23545625.008     -190206.734 3   -148196.085 2
  24409932.949    -1309215.029 2  -1020183.471 1
  23420821.696    14733202.079 2  11480382.876 1
 91  4 12 22 10 45.0010000  0  6 02 19 06 11 16 18
  21831081.958   -10437725.402 3  -8133254.330 3
  21620763.157     3570729.085 3   2782384.403 2
  23503649.259    -6374232.356 2  -4966899.872 1
  23550628.840     -163901.228 3   -127698.283 2
  24413278.941    -1291584.875 2  -1006445.837
  23431545.884    14789587.052 2  11524319.052 2
 91  4 12 22 11  0.0010000  0  6 02 19 06 11 16 18
  21828143.394   -10453170.582 3  -8145289.473 3
  21624515.966     3590468.287 3   2797765.578 2
  23498803.718    -6399700.603 2  -4986745.133 1
  23555659.651     -137453.397 3   -107089.604 1
  24416645.908    -1273841.457 2   -992619.936 1
  23442286.842    14846025.554 2  11568296.932 2
 91  4 12 22 11 15.0010000  0  6 02 19 06 11 16 18
  21825216.521   -10468545.819 4  -8157270.108 3
  21628284.951     3610263.023 3   2813190.027 2
  23493953.081    -6425169.502 2  -5006590.903 1
  23560721.645     -110867.925 3    -86373.660 2
  24420057.844    -1255989.265 2   -978709.304 1
  23453034.711    14902512.997 2  11612312.938 2
 91  4 12 22 11 30.0010000  0  6 02 19 06 11 16 18
  21822309.437   -10483831.078 4  -8169180.636 3
  21632065.924     3630133.342 3   2828673.368 2
  23489115.025    -6450619.123 2  -5026421.685 1
  23565808.226      -84125.119 3    -65535.130 1
  24423474.876    -1238008.698 2   -964698.542 1
  23463799.349    14959068.998 3  11656382.397 2
 91  4 12 22 11 45.0010000  0  6 02 19 06 11 16 18
  21819410.729   -10499049.058 4  -8181038.732 3
  21635855.012     3650056.744 3   2844198.058 2
  23484273.968    -6476072.270 2  -5046255.188 1
  23570923.583      -57247.888 3    -44591.843 2
  24426917.402    -1219922.653 2   -950605.615 1
  23474568.803    15015670.435 2  11700487.245 2
 91  4 12 22 12  0.0010000  0  6 02 19 06 11 16 18
  21816527.639   -10514203.014 4  -8192846.944 3
  21639661.481     3670030.180 3   2859761.762 2
  23479423.925    -6501531.913 2  -5066093.745 1
  23576063.824      -30239.562 3    -23546.410 2
  24430376.402    -1201734.590 2   -936433.192 1
  23485349.931    15072313.984 2  11744624.912 2
 91  4 12 22 12 15.0010000  0  6 02 19 06 11 16 18
  21813659.521   -10529290.472 4  -8204603.335 3
  21643470.340     3690056.034 3   2875366.303 3
  23474575.085    -6526995.599 2  -5085935.451 1
  23581228.652       -3097.882 3     -2397.053 2
  24433860.582    -1183442.367 2   -922179.628 1
  23496133.468    15129001.734 2  11788797.020 1
 91  4 12 22 12 30.0010000  0  6 02 19 06 11 16 18
  21810807.597   -10544276.192 4  -8216280.458 3
  21647296.283     3710169.647 3   2891039.222 2
  23469744.236    -6552428.012 2  -5105752.840 1
  23586426.164       24212.109 3     18883.477 2
  24437363.068    -1165010.625 2   -907817.329 1
  23506936.479    15185769.101 2  11833031.162 2
 91  4 12 22 12 45.0010000  0  6 02 19 06 11 16 18
  21807968.866   -10559185.382 4  -8227897.950 3
  21651134.824     3730346.130 3   2906761.139 2
  23464901.382    -6577854.262 2  -5125565.391 1
  23591651.841       51665.316 3     40275.548 2
  24440892.514    -1146465.355 2   -893366.546 1
  23517748.197    15242590.255 2  11877307.208 1
 91  4 12 22 13  0.0010000  0  6 02 19 06 11 16 18
  21805146.014   -10574016.628 4  -8239454.699 3
  21654988.967     3750586.873 3   2922533.134 2
  23460063.344    -6603272.854 2  -5145371.933 1
  23596906.294       79262.913 3     61780.157 2
  24444447.769    -1127804.630 2   -878825.860 1
  23528575.202    15299466.356 2  11921626.075 2
 91  4 12 22 13 15.0010000  0  6 02 19 06 11 16 18
  21802337.262   -10588780.972 4  -8250959.322 3
  21658847.001     3770880.900 3   2938346.644 2
  23455233.386    -6628694.998 2  -5165181.311 2
  23602178.144      106993.636 3     83388.510 2
  24448015.885    -1109040.090 2   -864204.274 1
  23539402.818    15356385.994 2  11965978.877 1
 91  4 12 22 13 30.0010000  0  6 02 19 06 11 16 18
  21799539.887   -10603473.422 4  -8262407.916 3
  21662728.400     3791233.239 3   2954205.578 2
  23450392.329    -6654115.405 2  -5184989.288 1
  23607485.680      134862.383 3    105104.399 2
  24451602.009    -1090167.139 2   -849498.156 1
  23550246.907    15413354.061 2  12010369.400 2
 91  4 12 22 13 45.0010000  0  6 02 19 06 11 16 18
  21796757.520   -10618086.371 4  -8273794.575 3
  21666606.222     3811651.589 3   2970115.964 3
  23445553.383    -6679526.512 2  -5204790.049 1
  23612816.879      162876.472 3    126933.558 2
  24455213.908    -1071178.205 2   -834701.724 1
  23561099.389    15470377.928 2  12054803.420 2
 91  4 12 22 14  0.0010000  0  6 02 19 06 11 16 18
  21793988.031   -10632637.352 4  -8285132.944 3
  21670502.926     3832118.686 3   2986064.317 2
  23440717.125    -6704945.722 2  -5224597.125 1
  23618169.978      191018.255 3    148862.198 2
  24458855.192    -1052090.955 2   -819828.646 1
  23571962.063    15527439.766 2  12099267.010 1
 91  4 12 22 14 15.0010000  0  6 02 19 06 11 16 18
  21791236.533   -10647110.203 4  -8296410.434 3
  21674411.914     3852650.643 3   3002063.218 2
  23435885.370    -6730356.937 2  -5244397.946 1
  23623556.354      219303.641 3    170902.743 2
  24462507.261    -1032889.671 2   -804866.703 1
  23582825.958    15584555.384 2  12143772.501 1
 91  4 12 22 14 30.0010000  0  6 02 19 06 11 16 18
  21788494.039   -10661520.473 4  -8307639.150 3
  21678325.405     3873231.989 3   3018100.604 2
  23431044.923    -6755775.652 2  -5264204.614 1
  23628957.109      247716.959 3    193042.979 2
  24466178.525    -1013589.870 2   -789828.030 1
  23593703.027    15641709.071 2  12188307.697 2
 91  4 12 22 14 45.0010000  0  6 02 19 06 11 16 18
  21785765.331   -10675860.521 4  -8318813.157 3
  21682253.292     3893870.689 3   3034182.697 2
  23426202.977    -6781193.936 2  -5284010.956 1
  23634395.347      276265.709 3    215288.754 2
  24469881.845     -994183.980 2   -774706.676 1
  23604586.990    15698908.400 2  12232878.427 2
 91  4 12 22 15  0.0010000  0  6 02 19 06 11 16 18
  21783054.911   -10690108.463 4  -8329915.395 3
  21686201.264     3914588.770 3   3050326.628 2
  23421371.221    -6806589.773 2  -5303799.812 1
  23639855.468      304971.705 3    237657.049 2
  24473594.484     -974650.382 2   -759485.791 1
  23615489.834    15756174.800 2  12277501.415 1
 91  4 12 22 15 15.0010000  0  6 02 19 06 11 16 18
  21780354.681   -10704297.850 4  -8340971.998 3
  21690148.922     3935352.644 3   3066506.252 2
  23416538.575    -6831996.906 2  -5323597.471 1
  23645336.878      333801.140 3    260121.517 2
  24477322.705     -955022.975 2   -744191.863 1
  23626392.991    15813474.618 2  12322150.454 1
 91  4 12 22 15 30.0010000  0  6 02 19 06 11 16 18
  21777666.737   -10718425.058 4  -8351980.148 3
  21694113.070     3956166.150 3   3082724.549 2
  23411703.207    -6857411.461 2  -5343400.886 1
  23650850.658      362757.549 3    282684.927 2
  24481077.608     -935298.225 2   -728821.999 1
  23637301.838    15870811.149 2  12366828.085 2
 91  4 12 22 15 45.0010000  0  6 02 19 06 11 16 18
  21774994.690   -10732463.065 4  -8362918.800 3
  21698082.925     3977056.182 3   3099002.476 2
  23406869.060    -6882806.542 2  -5363189.134 1
  23656388.118      391867.650 3    305368.119 1
  24484864.288     -915449.338 2   -713355.466 1
  23648221.469    15928211.093 2  12411555.155 1
 91  4 12 22 16  0.0010000  0  6 02 19 06 11 16 18
  21772333.427   -10746454.525 4  -8373821.175 3
  21702066.269     3997980.227 3   3115306.904 2
  23402031.912    -6908224.560 2  -5382995.274 1
  23661949.869      421088.765 3    328137.794 2
  24488650.061     -895519.279 2   -697825.685 1
  23659150.104    15985631.486 2  12456298.148 1
 91  4 12 22 16 15.0010000  0  6 02 19 06 11 16 18
  21769688.358   -10760353.122 4  -8384651.196 3
  21706063.712     4018984.983 3   3131674.235 2
  23397201.360    -6933619.125 2  -5402783.162 1
  23667541.599      450467.047 3    351029.927 2
  24492458.623     -875461.866 2   -682196.660 1
  23670088.633    16043118.629 2  12501093.151 1
 91  4 12 22 16 30.0010000  0  6 02 19 06 11 16 18
  21767061.280   -10774165.537 4  -8395414.064 3
  21710073.720     4040063.590 3   3148099.092 2
  23392365.696    -6958997.126 2  -5422558.095 1
  23673157.917      479995.302 3    374038.936 2
  24496302.557     -855284.106 2   -666473.834 1
  23681041.856    16100665.203 2  12545934.464 1
 91  4 12 22 16 45.0010000  0  6 02 19 06 11 16 18
  21764443.189   -10787903.078 4  -8406118.583 3
  21714097.252     4061204.851 3   3164572.787 2
  23387538.739    -6984369.587 2  -5442328.708 1
  23678805.698      509662.181 3    397155.973 1
  24500168.984     -834997.438 2   -650666.175 1
  23691999.877    16158259.815 2  12590813.201 1
 91  4 12 22 17  0.0010000  0  6 02 19 06 11 16 18
  21761846.091   -10801555.492 4  -8416756.770 3
  21718133.644     4082419.278 3   3181103.484 2
  23382721.972    -7009726.237 2  -5462087.031 1
  23684474.488      539477.999 3    420389.050 2
  24504042.601     -814591.841 2   -634765.848 1
  23702975.279    16215912.713 2  12635737.362 2
 91  4 12 22 17 15.0010000  0  6 02 19 06 11 16 18
  21759260.370   -10815136.297 4  -8427339.158 3
  21722178.744     4103693.622 3   3197680.875 2
  23377895.015    -7035080.210 2  -5481843.277 1
  23690178.929      569429.280 3    443727.701 2
  24507954.294     -794081.112 2   -618783.558 1
  23713951.274    16273610.270 2  12680696.337 1
 91  4 12 22 17 30.0010000  0  6 02 19 06 11 16 18
  21756689.656   -10828644.424 4  -8437864.917 3
  21726245.134     4125028.720 3   3214305.601 2
  23373067.762    -7060430.576 2  -5501596.707 1
  23695904.974      599516.477 3    467172.244 2
  24511878.586     -773464.359 2   -602718.727 1
  23724940.758    16331352.853 2  12725690.369 1
 91  4 12 22 17 45.0010000  0  6 02 19 06 11 16 18
  21754136.026   -10842081.141 4  -8448335.032 2
  21730311.226     4146423.444 3   3230976.797 2
  23368243.806    -7085778.685 2  -5521348.370 1
  23701654.384      629738.179 3    490721.613 2
  24515819.945     -752742.843 2   -586572.168 1
  23735932.353    16389138.970 2  12770718.339 2
 91  4 12 22 18  0.0010000  0  6 02 19 06 11 16 18
  21751594.088   -10855432.311 4  -8458738.474 3
  21734398.887     4167892.255 3   3247705.713 2
  23363427.040    -7111110.113 2  -5541087.047 1
  23707434.682      660108.408 3    514386.701 2
  24519789.800     -731902.944 2   -570333.411 1
  23746939.235    16446982.696 2  12815791.195 2
 91  4 12 22 18 15.0010000  0  6 02 19 06 11 16 18
  21749065.935   -10868720.835 4  -8469093.114 3
  21738492.848     4189412.333 3   3264474.581 2
  23358605.772    -7136447.763 2  -5560830.545 1
  23713234.768      690604.072 3    538149.562 2
  24523775.237     -710967.529 2   -554020.182 1
  23757958.105    16504860.799 2  12860890.821 1
 91  4 12 22 18 30.0010000  0  6 02 19 06 11 16 18
  21746553.383   -10881913.016 4  -8479372.672 3
  21742606.911     4211017.524 3   3281309.769 2
  23353792.914    -7161757.790 2  -5580552.549 1
  23719071.726      721258.680 3    562036.241 2
  24527779.870     -689903.202 2   -537606.588 1
  23768985.369    16562806.671 2  12906043.278 1
 91  4 12 22 18 45.0010000  0  6 02 19 06 11 16 18
  21744060.008   -10895019.673 4  -8489585.595 3
  21746732.946     4232697.169 3   3298202.974 2
  23348973.147    -7187050.953 2  -5600261.402 1
  23724934.162      752061.341 3    586038.284 2
  24531808.480     -668721.162 2   -521101.222 1
  23780018.636    16620809.373 2  12951240.010 1
 91  4 12 22 19  0.0010000  0  6 02 19 06 11 16 18
  21741581.624   -10908047.542 4  -8499737.132 3
  21750870.689     4254444.658 3   3315149.053 2
  23344166.275    -7212333.741 2  -5619962.176 2
  23730817.904      783005.166 3    610150.344 2
  24535868.867     -647428.313 2   -504509.504 1
  23791068.689    16678861.900 2  12996475.566 1
 91  4 12 22 19 15.0010000  0  6 02 19 06 11 16 18
  21739111.022   -10921036.406 4  -8509858.265 3
  21755014.418     4276219.791 3   3332116.675 2
  23339345.303    -7237646.313 2  -5639686.158 1
  23736725.902      814049.827 3    634340.974 2
  24539930.457     -626064.570 2   -487862.551 1
  23802118.132    16736923.863 2  13041718.481 1
 91  4 12 22 19 30.0010000  0  6 02 19 06 11 16 18
  21736646.441   -10933967.233 4  -8519934.173 3
  21759166.243     4298042.033 3   3349120.988 2
  23334529.148    -7262969.153 2  -5659418.150 1
  23742658.208      845214.387 3    658625.008 2
  24544011.539     -604610.950 2   -471145.590 1
  23813169.093    16795014.598 2  13086983.799 1
 91  4 12 22 19 45.0010000  0  6 02 19 06 11 16 18
  21734200.723   -10946833.195 4  -8529959.549 3
  21763327.666     4319918.407 3   3366167.493 2
  23329708.473    -7288295.543 2  -5679152.875 1
  23748610.879      876505.589 3    683007.737 2
  24548105.500     -583061.089 2   -454353.571 1
  23824233.230    16853140.398 2  13132276.468 1
 91  4 12 22 20  0.0010000  0  6 02 19 06 11 16 18
  21731768.215   -10959614.309 4  -8539918.800 3
  21767503.172     4341868.998 3   3383271.815 2
  23324894.411    -7313605.244 2  -5698874.610 2
  23754595.640      907943.141 3    707504.498 2
  24552233.349     -561395.281 2   -437471.367 1
  23835305.166    16911321.059 2  13177611.834 1
 91  4 12 22 20 15.0010000  0  6 02 19 06 11 16 18
  21729346.788   -10972323.643 4  -8549822.118 3
  21771692.167     4363880.712 3   3400423.775 2
  23320075.551    -7338911.314 2  -5718593.536 1
  23760601.970      939513.854 3    732105.017 2
  24556380.673     -539626.687 2   -420508.855 1
  23846379.789    16969543.264 2  13222979.605 1
 91  4 12 22 20 30.0010000  0  6 02 19 06 11 16 18
  21726944.242   -10984969.779 4  -8559676.196 3
  21775897.058     4385945.115 3   3417616.795 2
  23315256.080    -7364222.409 2  -5738316.341 2
  23766633.202      971208.797 3    756802.345 2
  24560537.297     -517764.151 2   -403473.231 1
  23857468.513    17027797.959 2  13268372.694 1
 91  4 12 22 20 45.0010000  0  6 02 19 06 11 16 18
  21724547.105   -10997555.616 4  -8569483.277 3
  21780101.653     4408059.701 3   3434848.912 2
  23310441.426    -7389541.053 2  -5758045.071 1
  23772686.909     1003025.014 3    781594.180 2
  24564699.610     -495810.639 2   -386366.761 1
  23868559.034    17086082.068 2  13313788.690 2
 91  4 12 22 21  0.0010000  0  6 02 19 06 11 16 18
  21722167.053   -11010068.369 4  -8579233.426 3
  21784320.034     4430237.100 3   3452129.982 2
  23305622.251    -7414854.436 2  -5777769.670 1
  23778767.595     1034975.119 3    806490.350 2
  24568910.505     -473753.657 2   -369179.636 1
  23879659.152    17144408.437 2  13359237.633 1
 91  4 12 22 21 15.0010000  0  6 02 19 06 11 16 18
  21719803.490   -11022490.940 4  -8588913.292 3
  21788555.795     4452494.541 3   3469473.414 2
  23300807.579    -7440145.404 2  -5797476.829 1
  23784875.869     1067076.083 3    831504.072 2
  24573136.965     -451576.394 2   -351898.800 1
  23890770.962    17202793.868 2  13404732.557 1
 91  4 12 22 21 30.0010000  0  6 02 19 06 11 16 18
  21717451.916   -11034837.786 4  -8598534.162 3
  21792804.155     4474817.774 3   3486868.113 2
  23296000.114    -7465428.326 2  -5817177.734 1
  23791010.528     1099313.212 3    856623.890 2
  24577369.149     -429293.522 2   -334535.629 1
  23901889.368    17261223.444 2  13450261.899 2
 91  4 12 22 21 45.0010000  0  6 02 19 06 11 16 18
  21715113.535   -11047122.877 4  -8608106.899 3
  21797062.113     4497192.973 3   3504303.325 2
  23291186.943    -7490717.082 2  -5836883.149 1
  23797169.163     1131672.356 3    881838.792 2
  24581632.481     -406919.299 2   -317101.167 1
  23913014.964    17319683.185 2  13495814.745 1
 91  4 12 22 22  0.0010000  0  6 02 19 06 11 16 18
  21712793.145   -11059340.960 4  -8617627.425 3
  21801334.153     4519625.322 3   3521783.053 2
  23286376.476    -7516006.475 2  -5856589.052 1
  23803350.886     1164158.383 3    907152.562 2
  24585907.523     -384448.775 2   -299591.425 1
  23924148.063    17378177.807 2  13541394.804 1
 91  4 12 22 22 15.0010000  0  6 02 19 06 11 16 18
  21710479.054   -11071493.407 4  -8627096.806 3
  21805610.085     4542113.558 3   3539306.336 2
  23281563.915    -7541297.708 2  -5876296.413 1
  23809557.195     1196769.668 3    932563.923 2
  24590200.852     -361883.593 2   -282008.282 1
  23935283.257    17436705.766 2  13587000.794 2
 91  4 12 22 22 30.0010000  0  6 02 19 06 11 16 18
  21708176.637   -11083581.756 4  -8636516.246 3
  21809900.413     4564656.466 3   3556872.205 2
  23276748.946    -7566592.215 2  -5896006.338 1
  23815788.668     1229504.618 3    958071.659 2
  24594515.471     -339225.418 2   -264352.719 1
  23946426.233    17495265.295 2  13632631.384 1
 91  4 12 22 22 45.0010000  0  6 02 19 06 11 16 18
  21705892.526   -11095583.822 4  -8645868.448 3
  21814206.935     4587276.289 3   3574498.018 3
  23271940.871    -7591867.614 2  -5915701.363 1
  23822043.245     1262385.120 2    983692.807 2
  24598848.378     -316452.237 2   -246607.483 1
  23957578.510    17553878.278 2  13678303.646 2
 91  4 12 22 23  0.0010000  0  6 02 19 06 11 16 18
  21703622.497   -11107520.498 4  -8655169.692 3
  21818526.056     4609952.123 3   3592167.475 2
  23267129.496    -7617144.725 2  -5935397.718 1
  23828320.594     1295390.196 3   1009411.012 2
  24603200.462     -293585.044 2   -228789.003 1
  23968741.292    17612523.643 2  13724001.136 2
 91  4 12 22 23 15.0010000  0  6 02 19 06 11 16 18
  21701366.550   -11119385.141 4  -8664414.825 3
  21822849.050     4632690.838 3   3609885.930 2
  23262321.124    -7642416.730 2  -5955090.080 1
  23834630.034     1328526.452 2   1035231.438 2
  24607572.335     -270617.473 2   -210892.304 1
  23979905.558    17671208.047 2  13769729.043 1
 91  4 12 22 23 30.0010000  0  6 02 19 06 11 16 18
  21699118.107   -11131178.374 4  -8673604.306 3
  21827187.349     4655492.043 3   3627653.077 2
  23257509.767    -7667684.165 2  -5974778.892 1
  23840957.448     1361793.147 2   1061153.506 2
  24611960.087     -247549.998 2   -192917.830 1
  23991079.124    17729930.527 2  13815486.602 1
 91  4 12 22 23 45.0010000  0  6 02 19 06 11 16 18
  21696890.360   -11142894.980 4  -8682734.075 3
  21831538.840     4678360.897 3   3645472.940 2
  23252704.989    -7692941.616 2  -5994459.920 1
  23847314.249     1395194.988 2   1087180.893 2
  24616373.038     -224378.228 2   -174862.001 1
  24002263.771    17788695.714 2  13861277.448 1
 91  4 12 22 24  0.0010000  0  6 02 19 06 11 16 18
  21694671.896   -11154541.483 4  -8691809.229 3
  21835899.929     4701290.842 3   3663340.408 2
  23247902.620    -7718195.798 2  -6014138.417 1
  23853696.230     1428725.315 3   1113308.390 2
  24620801.572     -201108.760 2   -156730.068 1
  24013452.031    17847497.035 2  13907096.468 1
 91  4 12 22 24 15.0010000  0  6 02 19 06 11 16 18
  21692470.813   -11166130.855 4  -8700839.860 3
  21840276.897     4724269.104 3   3681245.522 2
  23243090.635    -7743459.460 2  -6033824.269 1
  23860101.594     1462370.919 2   1139525.712 2
  24625236.108     -177754.995 2   -138532.497 1
  24024650.778    17906321.454 2  13952933.478 1
 91  4 12 22 24 30.0010000  0  6 02 19 06 11 16 18
  21690277.233   -11177640.525 4  -8709808.378 3
  21844663.759     4747318.418 3   3699206.005 2
  23238287.061    -7768709.964 2  -6053499.896 1
  23866528.544     1496154.199 2   1165850.321 2
  24629708.407     -154294.501 2   -120251.704 1
  24035849.228    17965190.918 2  13998805.597 1
 91  4 12 22 24 45.0010000  0  6 02 19 06 11 16 18
  21688102.535   -11189077.431 4  -8718720.197 3
  21849059.312     4770432.148 3   3717216.676 2
  23233481.690    -7793953.925 2  -6073170.426 2
  23872983.973     1530068.064 3   1192276.681 2
  24634187.302     -130734.172 2   -101893.125 1
  24047065.059    18024098.633 2  14044707.502 1
 91  4 12 22 25  0.0010000  0  6 02 19 06 11 16 18
  21685938.341   -11200445.331 4  -8727578.252 3
  21853469.262     4793606.604 3   3735274.666 2
  23228677.820    -7819195.170 2  -6092838.836 2
  23879458.003     1564108.581 3   1218801.728 2
  24638694.083     -107078.160 2    -83460.005 1
  24058276.108    18083040.326 2  14090635.900 1
 91  4 12 22 25 15.0010000  0  6 02 19 06 11 16 18
  21683787.934   -11211743.062 4  -8736381.627 3
  21857888.494     4816842.853 3   3753380.812 2
  23223876.340    -7844432.546 2  -6112504.220 2
  23885961.089     1598276.484 3   1245426.042 2
  24643214.963      -83325.867 2    -64951.855 1
  24069502.723    18142016.687 2  14136591.312 1
 91  4 12 22 25 30.0010000  0  6 02 19 06 11 16 18
  21681653.999   -11222948.999 4  -8745113.482 3
  21862329.924     4840162.753 3   3771552.129 2
  23219076.361    -7869644.172 2  -6132149.561 2
  23892491.170     1632593.342 3   1272166.422 1
  24647752.613      -59455.584 2    -46351.771 1
  24080736.859    18201049.663 2  14182590.825 1
 91  4 12 22 25 45.0010000  0  6 02 19 06 11 16 18
  21679536.572   -11234094.720 4  -8753798.403 3
  21866776.745     4863534.803 3   3789764.094 2
  23214279.994    -7894861.509 2  -6151799.347 1
  23899047.339     1667027.414 3   1298998.149 2
  24652317.258      -35499.190 2    -27684.586 1
  24091972.479    18260107.299 2  14228609.566 1
 91  4 12 22 26  0.0010000  0  6 02 19 06 11 16 18
  21677427.835   -11245166.459 4  -8762425.689 3
  21871242.448     4886972.766 3   3808027.410 2
  23209480.312    -7920070.795 2  -6171442.826 2
  23905623.889     1701592.248 3   1325931.730 2
  24656889.686      -11442.944 2     -8939.549 1
  24103212.897    18319203.023 2  14274658.010 2
 91  4 12 22 26 15.0010000  0  6 02 19 06 11 16 18
  21675336.182   -11256164.307 4  -8770995.386 3
  21875707.261     4910476.950 3   3826342.326 2
  23204688.429    -7945271.741 2  -6191079.865 1
  23912225.010     1736287.579 3   1352967.032 2
  24661485.201       12712.955 2      9883.119 1
  24114473.697    18378336.652 2  14320735.933 1
 91  4 12 22 26 30.0010000  0  6 02 19 06 11 16 18
  21673255.017   -11267092.410 4  -8779510.743 3
  21880194.863     4934043.040 3   3844705.488 2
  23199891.452    -7970468.683 2  -6210713.756 1
  23918848.031     1771108.870 3   1380100.447 2
  24666101.115       36963.643 2     28779.582 1
  24125725.213    18437503.410 2  14366839.701 1
 91  4 12 22 26 45.0010000  0  6 02 19 06 11 16 18
  21671191.250   -11277947.976 4  -8787969.578 3
  21884686.951     4957674.195 3   3863119.354 2
  23195096.865    -7995658.475 2  -6230342.073 1
  23925501.328     1806058.999 3   1407334.290 2
  24670733.503       61311.897 2     47752.181 1
  24136996.501    18496706.137 2  14412971.495 1
 91  4 12 22 27  0.0010000  0  6 02 19 06 11 16 18
  21669136.766   -11288753.687 4  -8796389.561 3
  21889196.122     4981347.808 3   3881566.299 2
  23190303.779    -8020863.704 2  -6249982.432 1
  23932178.898     1841115.123 3   1434650.722 2
  24675375.801       85734.652 2     66782.711 1
  24148266.899    18555921.952 2  14459113.468 1
 91  4 12 22 27 15.0010000  0  6 02 19 06 11 16 18
  21667090.693   -11299468.284 4  -8804738.549 3
  21893712.203     5005105.072 3   3900078.415 2
  23185511.896    -8046043.167 2  -6269602.672 2
  23938871.772     1876317.918 3   1462081.458 2
  24680039.058      110273.075 2     85903.547 1
  24159545.986    18615191.581 2  14505297.389 1
 91  4 12 22 27 30.0010000  0  6 02 19 06 11 16 18
  21665069.486   -11310118.267 4  -8813037.199 3
  21898253.762     5028919.794 3   3918635.309 2
  23180718.531    -8071223.123 2  -6289223.345 1
  23945591.310     1911640.770 3   1489605.713 2
  24684729.921      134900.468 2    105093.507 1
  24170829.891    18674488.318 2  14551502.456 1
 91  4 12 22 27 45.0010000  0  6 02 19 06 11 16 18
  21663058.174   -11320678.880 4  -8821266.200 3
  21902794.117     5052816.766 3   3937256.305 2
  23175931.430    -8096378.708 2  -6308824.978 1
  23952338.733     1947108.337 2   1517242.751 1
  24689456.452      159641.186 2    124371.894 1
  24182121.263    18733837.052 2  14597747.989 1
 91  4 12 22 28  0.0010000  0  6 02 19 06 11 16 18
  21661060.962   -11331169.469 4  -8829440.631 3
  21907356.354     5076776.709 3   3955926.362 2
  23171147.942    -8121529.132 2  -6328422.636 2
  23959115.857     1982700.951 3   1544977.231 2
  24694166.789      184475.996 2    143723.561 1
  24193421.937    18793218.141 2  14644018.725 1
 91  4 12 22 28 15.0010000  0  6 02 19 06 11 16 18
  21659076.035   -11341597.888 4  -8837566.634 3
  21911922.500     5100792.169 3   3974639.683 2
  23166358.764    -8146682.049 2  -6348022.209 2
  23965911.251     2018410.673 3   1572802.965 2
  24698913.405      209396.491 2    163141.936 1
  24204722.611    18852623.195 2  14690308.166 1
 91  4 12 22 28 30.0010000  0  6 02 19 06 11 16 18
  21657106.394   -11351952.062 4  -8845634.775 3
  21916509.918     5124875.212 3   3993405.648 2
  23161574.072    -8171825.382 2  -6367614.328 1
  23972730.918     2054249.285 2   1600729.127 2
  24703677.402      234414.440 2    182636.339 1
  24216042.480    18912064.266 2  14736625.696 1
 91  4 12 22 28 45.0010000  0  6 02 19 06 11 16 18
  21655150.556   -11362238.204 4  -8853649.894 3
  21921099.744     5149019.569 3   4012219.393 2
  23156792.380    -8196965.243 2  -6387203.743 1
  23979575.487     2090210.380 3   1628750.728 2
  24708450.996      259523.695 2    202201.806 1
  24227355.159    18971534.949 2  14782966.244 1
 91  4 12 22 29  0.0010000  0  6 02 19 06 11 16 18
  21653203.705   -11372465.108 4  -8861618.870 3
  21925705.153     5173216.643 3   4031074.225 2
  23152002.610    -8222110.319 2  -6406797.208 1
  23986439.530     2126284.998 3   1656860.794 2
  24713249.475      284715.194 2    221831.428 1
  24238677.105    19031025.867 2  14829322.600 1
 91  4 12 22 29 15.0010000  0  6 02 19 06 11 16 18
  21651270.936   -11382618.150 4  -8869530.280 3
  21930320.457     5197481.186 3   4049981.623 2
  23147217.621    -8247245.872 2  -6426383.264 1
  23993328.160     2162487.419 3   1685070.437 1
  24718060.238      310003.037 2    241536.101 1
  24250003.867    19090551.479 2  14875705.966 1
 91  4 12 22 29 30.0010000  0  6 02 19 06 11 16 18
  21649351.674   -11392707.054 4  -8877391.713 3
  21934953.751     5221803.691 3   4068934.193 2
  23142441.025    -8272381.489 2  -6445969.361 1
  24000238.673     2198807.618 2   1713371.861 2
  24722890.197      335377.354 2    261308.108 1
  24261336.021    19150101.785 2  14922108.589 1
 91  4 12 22 29 45.0010000  0  6 02 19 06 11 16 18
  21647445.587   -11402726.762 4  -8885199.231 3
  21939588.843     5246189.257 3   4087935.903 2
  23137656.035    -8297511.862 2  -6465551.389 2
  24007178.869     2235250.604 2   1741768.960 1
  24727737.536      360842.794 2    281151.221 1
  24272673.584    19209681.901 2  14968534.426 1
 91  4 12 22 30  0.0010000  0  6 02 19 06 11 16 18
  21645553.599   -11412677.112 4  -8892952.722 3
  21944246.708     5270637.904 3   4106986.770 2
  23132877.642    -8322636.980 2  -6485129.309 1
  24014132.868     2271816.136 2   1770261.550 1
  24732596.287      386399.058 2    301065.019 1
  24284015.318    19269291.449 2  15014983.208 1
 91  4 12 22 30 15.0010000  0  6 02 19 06 11 16 18
  21643673.303   -11422542.189 4  -8900639.729 3
  21948909.982     5295165.941 3   4126099.495 2
  23128094.154    -8347740.419 2  -6504690.326 1
  24021117.126     2308520.269 3   1798862.119 1
  24737480.795      412062.575 2    321062.436 1
  24295370.873    19328946.393 2  15061467.355 1
 91  4 12 22 30 30.0010000  0  6 02 19 06 11 16 18
  21641811.889   -11432334.182 4  -8908269.806 3
  21953591.247     5319761.112 3   4145264.530 2
  23123327.156    -8372834.601 2  -6524244.123 2
  24028130.770     2345350.212 3   1827560.738 2
  24742381.514      437820.579 2    341133.477 1
  24306730.598    19388634.023 2  15107976.976 1
 91  4 12 22 30 45.0010000  0  6 02 19 06 11 16 18
  21639959.461   -11442061.342 4  -8915849.360 3
  21958283.890     5344415.326 3   4164475.566 2
  23118548.169    -8397927.649 2  -6543797.075 1
  24035156.699     2382297.549 3   1856350.845 2
  24747304.098      463664.402 2    361271.387 1
  24318089.137    19448346.086 2  15154505.625 1
 91  4 12 22 31  0.0010000  0  6 02 19 06 11 16 18
  21638123.837   -11451717.875 4  -8923373.895 3
  21962987.945     5369134.696 3   4183737.386 2
  23113774.261    -8423013.047 2  -6563344.046 2
  24042209.623     2419368.322 3   1885237.120 2
  24752239.875      489600.202 2    381480.900 1
  24329453.068    19508088.308 2  15201057.792 1
 91  4 12 22 31 15.0010000  0  6 02 19 06 11 16 18
  21636296.311   -11461310.194 4  -8930848.383 3
  21967702.174     5393912.871 3   4203045.031 2
  23108995.868    -8448097.525 2  -6582890.310 1
  24049291.323     2456555.615 3   1914214.195 1
  24757190.659      515620.909 2    401756.676 1
  24340828.987    19567853.709 2  15247627.999 1
 91  4 12 22 31 30.0010000  0  6 02 19 06 11 16 18
  21634490.353   -11470821.014 4  -8938259.365 3
  21972434.393     5418767.211 3   4222412.022 2
  23104235.762    -8473163.718 2  -6602422.313 1
  24056388.309     2493876.315 2   1943295.226 2
  24762161.807      541743.427 2    422111.753 1
  24352209.112    19627659.245 2  15294229.499 1
 91  4 12 22 31 45.0010000  0  6 02 19 06 11 16 18
  21632691.899   -11480252.011 4  -8945608.146 3
  21977176.822     5443696.154 3   4241837.154 2
  23099465.466    -8498212.908 3  -6621941.065 2
  24063513.774     2531328.688 2   1972478.849 2
  24767152.464      567966.044 2    442544.788 1
  24363603.022    19687503.486 2  15340861.163 1
 91  4 12 22 32  0.0010000  0  6 02 19 06 11 16 18
  21630913.826   -11489610.461 4  -8952900.403 3
  21981935.130     5468692.524 3   4261314.806 2
  23094699.672    -8523252.480 2  -6641452.331 2
  24070668.031     2568905.329 2   2001759.318 2
  24772158.984      594281.233 2    463050.005 1
  24374991.837    19747378.636 2  15387516.902 1
 91  4 12 22 32 15.0010000  0  6 02 19 06 11 16 18
  21629141.163   -11498921.280 4  -8960155.540 3
  21986702.128     5493731.407 3   4280825.598 2
  23089927.578    -8548307.101 2  -6660975.324 2
  24077838.465     2606580.942 2   2031116.903 2
  24777177.510      620663.697 2    483607.628 1
  24386387.562    19807259.584 2  15434177.147 1
 91  4 12 22 32 30.0010000  0  6 02 19 06 11 16 18
  21627378.971   -11508181.900 4  -8967371.558 3
  21991470.016     5518815.571 3   4300371.662 2
  23085163.582    -8573374.076 3  -6680507.948 2
  24085023.593     2644357.797 2   2060553.380 2
  24782216.121      647115.546 2    504219.311 1
  24397785.957    19867148.613 2  15480843.697 1
 91  4 12 22 32 45.0010000  0  6 02 19 06 11 16 18
  21625619.203   -11517401.907 3  -8974555.935 3
  21996251.707     5543935.689 3   4319945.754 2
  23080387.579    -8598462.867 2  -6700057.564 2
  24092231.789     2682226.184 2   2090061.188 2
  24787253.248      673627.414 2    524877.787 1
  24409185.870    19927035.681 2  15527508.725 1
 91  4 12 22 33  0.0010000  0  6 02 19 06 11 16 18
  21623879.801   -11526564.086 4  -8981695.250 3
  22001044.497     5569109.022 3   4339561.310 2
  23075610.984    -8623556.191 2  -6719610.733 1
  24099458.587     2720203.074 2   2119653.531 2
  24792318.244      700216.013 2    545596.007 1
  24420583.986    19986937.928 2  15574185.566 1
 91  4 12 22 33 15.0010000  0  6 02 19 06 11 16 18
  21622152.997   -11535648.379 4  -8988773.875 3
  22005847.477     5594355.689 3   4359234.002 2
  23070838.593    -8648633.789 2  -6739151.621 2
  24106710.566     2758308.228 2   2149345.840 2
  24797400.323      726901.240 2    566389.583 1
  24431984.195    20046875.193 2  15620889.727 1
 91  4 12 22 33 30.0010000  0  6 02 19 06 11 16 18
  21620436.681   -11544653.838 4  -8995791.071 3
  22010663.632     5619676.854 3   4378964.762 2
  23066069.187    -8673694.519 2  -6758679.368 1
  24113979.943     2796542.452 2   2179138.707 2
  24802489.592      753683.755 2    587258.961 1
  24443402.379    20106848.221 2  15667621.729 1
 91  4 12 22 33 45.0010000  0  6 02 19 06 11 16 18
  21618738.356   -11553569.339 4  -9002738.166 3
  22015499.594     5645083.757 3   4398762.309 2
  23061304.894    -8698727.107 3  -6778185.197 2
  24121287.379     2834916.757 2   2209040.724 1
  24807608.247      780574.501 2    608212.632 1
  24454819.987    20166867.914 2  15714390.095 1
 91  4 12 22 34  0.0010000  0  6 02 19 06 11 16 18
  21617055.020   -11562428.350 4  -9009641.243 3
  22020343.635     5670542.959 3   4418600.613 2
  23056542.991    -8723765.146 3  -6797695.287 2
  24128613.416     2873397.140 2   2239025.379 2
  24812738.890      807539.400 2    629224.096 1
  24466242.969    20226900.467 2  15761168.472 1
 91  4 12 22 34 15.0010000  0  6 02 19 06 11 16 18
  21615380.079   -11571201.713 4  -9016477.591 3
  22025205.370     5696083.804 3   4438502.533 2
  23051780.792    -8748779.178 2  -6817186.641 1
  24135958.928     2912012.632 2   2269115.336 2
  24817896.825      834607.585 2    650316.070 1
  24477673.751    20286974.805 2  15807979.421 1
 91  4 12 22 34 30.0010000  0  6 02 19 06 11 16 18
  21613730.318   -11579903.195 4  -9023257.909 3
  22030077.890     5721692.687 3   4458457.479 2
  23047020.686    -8773782.586 2  -6836669.737 2
  24143332.326     2950749.424 3   2299299.835 2
  24823054.150      861765.143 2    671477.639 1
  24489113.538    20347077.044 2  15854812.567 1
 91  4 12 22 34 45.0010000  0  6 02 19 06 11 16 18
  21612085.669   -11588531.648 4  -9029981.337 3
  22034967.214     5747370.724 3   4478466.300 2
  23042274.070    -8798774.281 2  -6856143.693 2
  24150727.606     2989608.440 2   2329579.554 1
  24828244.159      889013.084 2    692709.691 1
  24500557.513    20407208.125 2  15901667.707 1
 91  4 12 22 35  0.0010000  0  6 02 19 06 11 16 18
  21610456.884   -11597096.525 4  -9036655.220 3
  22039864.024     5773108.611 3   4498521.773 2
  23037513.057    -8823763.588 2  -6875615.797 2
  24158139.673     3028579.773 2   2359946.769 1
  24833444.062      916341.227 2    714004.179 1
  24512007.194    20467358.344 2  15948537.800 1
 91  4 12 22 35 15.0010000  0  6 02 19 06 11 16 18
  21608841.918   -11605592.113 4  -9043275.108 3
  22044771.619     5798912.144 3   4518628.393 2
  23032757.454    -8848744.613 3  -6895081.431 2
  24165575.124     3067669.000 2   2390405.878 1
  24838651.154      943755.306 2    735365.729 1
  24523453.263    20527533.154 2  15995427.017 1
 91  4 12 22 35 30.0010000  0  6 02 19 06 11 16 18
  21607242.815   -11613998.866 4  -9049825.779 3
  22049702.911     5824801.034 3   4538801.511 2
  23028014.729    -8873697.643 3  -6914525.286 2
  24173043.555     3106895.405 2   2420971.872 1
  24843898.731      971274.652 2    756809.225 1
  24534909.837    20587751.904 2  16042350.522 1
 91  4 12 22 35 45.0010000  0  6 02 19 06 11 16 18
  21605654.514   -11622328.685 4  -9056316.497 3
  22054638.687     5850763.519 3   4559031.988 2
  23023267.816    -8898634.528 3  -6933956.527 2
  24180530.571     3146246.890 2   2451635.340 1
  24849146.902      998886.896 2    778325.116 1
  24546380.197    20648002.299 2  16089299.117 1
 91  4 12 22 36  0.0010000  0  6 02 19 06 11 16 18
  21604083.907   -11630590.215 4  -9062753.997 3
  22059593.956     5876790.953 3   4579313.070 2
  23018521.218    -8923563.662 3  -6953381.741 2
  24188044.565     3185714.558 2   2482389.320 2
  24854416.048     1026583.505 2    799906.714 1
  24557846.962    20708275.472 2  16136264.998 1
 91  4 12 22 36 15.0010000  0  6 02 19 06 11 16 18
  21602521.694   -11638787.872 4  -9069141.735 3
  22064556.728     5902879.028 3   4599641.399 2
  23013778.493    -8948489.275 2  -6972804.213 2
  24195577.144     3225293.737 2   2513230.215 2
  24859713.375     1054359.545 2    821550.352 1
  24569322.121    20768566.924 2  16183245.110 1
 91  4 12 22 36 30.0010000  0  6 02 19 06 11 16 18
  21600978.047   -11646916.183 4  -9075475.433 3
  22069537.177     5929033.510 3   4620021.476 2
  23009031.877    -8973405.673 2  -6992219.515 2
  24203127.417     3264989.865 2   2544162.232 1
  24865018.207     1082220.493 2    843260.033 1
  24580805.969    20828881.945 2  16230243.599 1
 91  4 12 22 36 45.0010000  0  6 02 19 06 11 16 18
  21599441.922   -11654975.125 4  -9081755.086 3
  22074524.222     5955254.382 3   4640453.300 2
  23004296.655    -8998312.964 2  -7011627.706 2
  24210704.982     3304802.465 2   2575184.988 1
  24870331.431     1110165.979 2    865035.625 1
  24592282.611    20889220.176 2  16277260.166 1
 91  4 12 22 37  0.0010000  0  6 02 19 06 11 16 18
  21597915.971   -11662990.047 4  -9088000.436 3
  22079524.757     5981516.480 3   4660917.230 2
  22999552.447    -9023236.313 2  -7031048.415 1
  24218294.832     3344705.920 2   2606278.556 1
  24875653.940     1138170.121 2    886856.819 1
  24603767.664    20949555.932 2  16324275.272 1
 91  4 12 22 37 15.0010000  0  6 02 19 06 11 16 18
  21596411.011   -11670912.815 4  -9094173.971 3
  22084534.889     6007868.252 3   4681451.047 2
  22994814.521    -9048127.249 2  -7050443.866 1
  24225921.240     3384748.352 2   2637480.400 1
  24881002.833     1166281.303 2    908761.405 1
  24615256.015    21009937.298 2  16371325.445 1
 91  4 12 22 37 30.0010000  0  6 02 19 06 11 16 18
  21594912.945   -11678774.123 4  -9100299.620 3
  22089560.918     6034278.932 3   4702030.761 2
  22990079.300    -9073016.321 3  -7069837.861 1
  24233559.061     3424898.734 2   2668766.381 1
  24886375.720     1194468.161 2    930725.076 1
  24626741.661    21070333.210 2  16418386.948 1
 91  4 12 22 37 45.0010000  0  6 02 19 06 11 16 18
  21593433.777   -11686570.482 4  -9106374.660 3
  22094597.435     6060752.094 3   4722659.167 2
  22985345.876    -9097899.999 3  -7089227.657 1
  24241213.965     3465160.254 2   2700138.950 2
  24891752.795     1222734.194 2    952750.401
  24638245.891    21130747.176 2  16465462.558 1
 91  4 12 22 38  0.0010000  0  6 02 19 06 11 16 18
  21591957.594   -11694301.692 4  -9112398.937 3
  22099651.925     6087288.082 3   4743336.523 2
  22980612.749    -9122777.858 3  -7108612.928 2
  24248898.535     3505532.940 2   2731598.127 2
  24897145.157     1251079.028 2    974837.205 1
  24649746.841    21191179.079 2  16512552.128 1
 91  4 12 22 38 15.0010000  0  6 02 19 06 11 16 18
  21590500.902   -11701965.390 4  -9118370.590 3
  22104714.233     6113889.469 3   4764064.850 2
  22975879.935    -9147647.335 3  -7127991.666 2
  24256611.601     3546018.945 2   2763145.643 1
  24902554.620     1279505.003 2    996987.559 1
  24661243.568    21251631.011 2  16559657.300 1
 91  4 12 22 38 30.0010000  0  6 02 19 06 11 16 18
  21589054.715   -11709566.169 4  -9124293.234 3
  22109791.514     6140551.698 3   4784840.575 2
  22971147.698    -9172512.741 3  -7147367.206 2
  24264329.763     3586613.502 2   2794777.724 2
  24907974.867     1308007.528 2   1019197.158 1
  24672754.116    21312098.245 2  16606774.868 1
 91  4 12 22 38 45.0010000  0  6 02 19 06 11 16 18
  21587622.593   -11717091.885 4  -9130157.378 3
  22114875.094     6167286.990 3   4805673.226 2
  22966417.276    -9197362.051 3  -7166730.227 2
  24272079.387     3627328.362 2   2826503.544 2
  24913418.200     1336598.272 2   1041475.516 1
  24684271.242    21372592.566 2  16653913.074 1
 91  4 12 22 39  0.0010000  0  6 02 19 06 11 16 18
  21586204.885   -11724551.588 4  -9135970.091 3
  22119981.150     6194086.526 3   4826555.943 2
  22961686.260    -9222204.062 2  -7186087.554 2
  24279851.504     3668154.178 2   2858315.819 2
  24918873.226     1365267.668 2   1063815.177 1
  24695786.571    21433104.467 2  16701064.995 1
 91  4 12 22 39 15.0010000  0  6 02 19 06 11 16 18
  21584792.866   -11731951.034 4  -9141735.848 3
  22125082.721     6220944.654 3   4847484.335 2
  22956962.434    -9247044.279 2  -7205443.499 2
  24287634.127     3709085.052 2   2890209.977 1
  24924343.241     1394009.886 2   1086211.467 1
  24707303.383    21493628.245 2  16748226.608 1
 91  4 12 22 39 30.0010000  0  6 02 19 06 11 16 18
  21583401.822   -11739280.877 4  -9147447.360 3
  22130210.380     6247870.726 3   4868465.653 2
  22952238.904    -9271873.272 3  -7224790.680 2
  24295443.117     3750130.013 2   2922193.009 2
  24929832.433     1422833.850 2   1108671.528 1
  24718822.010    21554173.051 2  16795404.143 1
 91  4 12 22 39 45.0010000  0  6 02 19 06 11 16 18
  21582018.281   -11746531.319 4  -9153097.011 3
  22135347.916     6274874.770 3   4889507.721 2
  22947517.765    -9296681.120 3  -7244121.413 2
  24303280.882     3791298.655 2   2954272.417 1
  24935338.117     1451749.360 2   1131202.932 1
  24730349.327    21614748.592 2  16842606.105 1
 91  4 12 22 40  0.0010000  0  6 02 19 06 11 16 18
  21580647.933   -11753742.381 4  -9158715.974 3
  22140497.755     6301916.775 3   4910579.376 2
  22942790.030    -9321507.561 3  -7263466.608 2
  24311127.059     3832550.792 2   2986416.908 2
  24940843.207     1480716.128 2   1153774.386 1
  24741866.471    21675314.553 2  16889800.147 1
 91  4 12 22 40 15.0010000  0  6 02 19 06 11 16 18
  21579291.964   -11760864.917 4  -9164265.951 3
  22145653.578     6329046.222 3   4931719.176 2
  22938072.503    -9346303.094 3  -7282787.730 2
  24319006.198     3873935.414 2   3018664.640 1
  24946376.775     1509782.914 2   1176423.587 1
  24753404.572    21735919.792 2  16937024.773 1
 91  4 12 22 40 30.0010000  0  6 02 19 06 11 16 18
  21577950.095   -11767918.571 4  -9169762.265 3
  22150832.506     6356243.390 3   4952911.735 2
  22933358.868    -9371087.701 3  -7302100.344 2
  24326899.141     3915432.380 2   3050999.898 1
  24951916.940     1538929.689 2   1199135.213 1
  24764944.785    21796544.159 2  16984264.307 1
 91  4 12 22 40 45.0010000  0  6 02 19 06 11 16 18
  21576623.512   -11774883.834 4  -9175189.694 3
  22156018.013     6383527.806 3   4974172.283 2
  22928651.218    -9395841.528 3  -7321388.944 2
  24334823.547     3957060.934 2   3083437.684 1
  24957488.289     1568175.891 2   1221924.275 1
  24776493.985    21857206.951 2  17031533.771 1
 91  4 12 22 41  0.0010000  0  6 02 19 06 11 16 18
  21575310.418   -11781784.035 4  -9180566.428 3
  22161225.699     6410876.422 3   4995482.862 2
  22923936.082    -9420587.376 3  -7340671.369 2
  24342766.554     3998797.746 2   3115959.843 1
  24963068.624     1597497.975 2   1244772.561 1
  24788042.295    21917884.725 2  17078814.923 1
 91  4 12 22 41 15.0010000  0  6 02 19 06 11 16 18
  21574007.218   -11788618.807 4  -9185892.183 3
  22166440.889     6438289.713 3   5016843.843 2
  22919231.747    -9445325.229 3  -7359947.530 2
  24350731.445     4040642.725 2   3148566.280 1
  24968661.559     1626895.835 2   1267679.871 1
  24799585.212    21978577.724 2  17126108.406 1
 91  4 12 22 41 30.0010000  0  5 02 19 06 11 18
  21572724.121   -11795379.367 4  -9191160.108 3
  22171671.975     6465776.412 3   5038262.001 2
  22914526.209    -9470045.982 3  -7379210.387 2
  24358717.606     4082604.338 2   3181263.619 1
  24811139.508    22039294.313 2  17173419.831 1
 91  4 12 22 41 45.0010000  0  5 02 19 06 11 18
  21571449.993   -11802068.951 4  -9196372.724 3
  22176917.144     6493333.540 3   5059735.056 2
  22909822.764    -9494752.604 3  -7398462.223 2
  24366721.166     4124679.272 2   3214049.255 2
  24822699.509    22100031.370 2  17220747.171 1
 91  4 12 22 42  0.0010000  0  5 02 19 06 11 18
  21570187.871   -11808692.118 4  -9201533.599 3
  22182173.708     6520956.666 3   5081259.528 2
  22905126.806    -9519449.567 3  -7417706.519 2
  24374747.219     4166862.720 2   3246919.433 1
  24834260.104    22160783.954 2  17268086.615 1
 91  4 12 22 42 15.0010000  0  5 02 19 06 11 18
  21568939.832   -11815258.464 4  -9206650.190 3
  22187441.650     6548636.343 2   5102828.071 2
  22900425.473    -9544146.141 3  -7436950.532 2
  24382795.748     4209144.884 2   3279866.535 2
  24845820.105    22221542.094 2  17315430.371 1
 91  4 12 22 42 30.0010000  0  5 02 19 06 11 18
  21567702.594   -11821772.459 4  -9211725.988 3
  22192724.598     6576368.041 3   5124437.159 2
  22895725.013    -9568846.598 3  -7456197.588 2
  24390861.361     4251520.989 2   3312886.842 2
  24857380.997    22282301.041 2  17362774.768 1
 91  4 12 22 42 45.0010000  0  5 02 19 06 11 18
  21566476.733   -11828212.797 4  -9216744.395 3
  22198005.732     6604173.275 3   5146103.543 2
  22891028.164    -9593529.605 3  -7475431.005 1
  24398943.464     4294012.025 2   3345996.677 1
  24868949.985    22343082.092 2  17410136.417 1
 91  4 12 22 43  0.0010000  0  5 02 19 06 11 18
  21565265.269   -11834579.670 4  -9221705.552 3
  22203315.956     6632051.878 3   5167827.097 2
  22886335.225    -9618195.183 3  -7494650.860 2
  24407049.248     4336617.574 2   3379195.752 2
  24880522.865    22403884.795 2  17457514.935 1
 91  4 12 22 43 15.0010000  0  6 02 19 06 11 16 18
  21564067.905   -11840869.640 4  -9226606.788 3
  22208637.574     6660007.564 3   5189610.704 2
  22881643.769    -9642839.765 3  -7513854.359 2
  24415182.323     4379340.791 2   3412486.540 2
  25013947.299      113812.73212     88653.942 1
  24892095.465    22464712.244 2  17504912.707 1
 91  4 12 22 43 30.0020000  0  5 02 19 06 11 18
  21562883.423   -11847089.814 4  -9231453.642 3
  22213964.885     6688035.683 2   5211450.745 2
  22876957.411    -9667471.381 3  -7533047.743 2
  24423327.983     4422177.785 2   3445865.970 1
  24903677.649    22525561.664 2  17552328.064 1
 91  4 12 22 43 45.0020000  0  6 02 19 06 11 16 18
  21561712.129   -11853251.570 4  -9236254.965 3
  22219310.200     6716120.271 2   5233334.797 2
  22872273.755    -9692098.757 3  -7552237.833 2
  24431509.012     4465110.282 3   3479319.822 1
  25025416.772       91820.50712     71517.233 1
  24915258.626    22586412.643 2  17599744.187 1
 91  4 12 22 44  0.0020000  0  6 02 19 06 11 16 18
  21560550.137   -11859342.228 4  -9241000.889 3
  22224672.879     6744276.201 3   5255274.438 2
  22867590.693    -9716710.295 3  -7571415.570 2
  24439695.153     4508154.009 3   3512860.364 2
  25031169.777      122060.211 2     95080.482 1
  24926843.808    22647282.272 2  17647174.848 1
 91  4 12 22 44 15.0020000  0  6 02 19 06 11 16 18
  21559404.931   -11865367.486 4  -9245695.856 3
  22230038.856     6772498.072 3   5277265.461 2
  22862905.536    -9741311.512 3  -7590585.279 2
  24447908.273     4551302.961 2   3546482.889 2
  25036930.897      152372.638 2    118700.431 1
  24938421.486    22708164.315 2  17694615.213 1
 91  4 12 22 44 30.0020000  0  6 02 19 06 11 16 18
  21558273.826   -11871323.813 4  -9250337.106 3
  22235422.231     6800789.534 3   5299310.710 2
  22858227.273    -9765898.855 3  -7609744.174 2
  24456136.068     4594560.369 2   3580189.897 2
  25042714.789      182760.902 2    142379.389 1
  24950015.358    22769061.845 2  17742068.080 1
 91  4 12 22 44 45.0020000  0  6 02 19 06 11 16 18
  21557156.488   -11877210.851 4  -9254924.368 3
  22240820.892     6829151.295 3   5321410.741 2
  22853551.417    -9790471.548 3  -7628891.644 2
  24464392.359     4637926.396 2   3613981.554 1
  25048519.674      213225.132 2    166117.643 1
  24961609.545    22829975.326 2  17789533.376 1
 91  4 12 22 45  0.0020000  0  6 02 19 06 11 16 18
  21556044.857   -11883036.353 4  -9259463.687 3
  22246231.559     6857575.641 3   5343559.533 2
  22848880.046    -9815037.144 3  -7648033.587 2
  24472663.029     4681392.910 2   3647851.522 2
  25054330.544      243757.547 2    189908.995 1
  24973198.008    22890896.821 2  17837004.472 1
 91  4 12 22 45 15.0020000  0  6 02 19 06 11 16 18
  21554948.512   -11888794.733 4  -9263950.697 3
  22251654.807     6886068.169 3   5365761.465 2
  22844208.378    -9839590.092 3  -7667165.670 2
  24480949.597     4724965.304 2   3681804.005 1
  25060143.822      274363.142 2    213757.357 1
  24984790.693    22951831.470 2  17884486.250 1
 91  4 12 22 45 30.0020000  0  6 02 19 06 11 16 18
  21553862.969   -11894488.911 4  -9268387.674 3
  22257092.731     6914626.153 3   5388014.390 2
  22839536.711    -9864132.942 3  -7686289.888 2
  24489262.828     4768640.559 2   3715836.638 1
  25065974.795      305038.917 2    237660.408 1
  24996390.254    23012776.417 2  17931975.569 1
 91  4 12 22 45 45.0020000  0  6 02 19 06 11 16 18
  21552789.414   -11900136.854 4  -9272788.630 3
  22262526.781     6943231.567 3   5410304.272 2
  22834862.059    -9888683.652 3  -7705420.227 2
  24497594.365     4812400.375 2   3749935.135 2
  25071828.540      335766.857 2    261604.020 1
  25007989.222    23073713.436 2  17979458.756 1
 91  4 12 22 46  0.0020000  0  6 02 19 06 11 16 18
  21551725.143   -11905732.685 4  -9277148.980 3
  22267982.103     6971890.442 3   5432635.813 2
  22830189.188    -9913236.131 3  -7724551.959 2
  24505933.702     4856250.257 2   3784103.839 2
  25077689.475      366551.992 2    285592.312 1
  25019585.206    23134647.867 2  18026939.937 1
 91  4 12 22 46 15.0020000  0  6 02 19 06 11 16 18
  21550670.486   -11911250.448 4  -9281448.490 3
  22273453.008     7000628.874 3   5455029.356 2
  22825525.320    -9937764.230 3  -7743664.672 2
  24514303.908     4900216.035 2   3818362.836 2
  25083564.806      397420.289 2    309645.466 1
  25031179.968    23195605.650 2  18074439.259 1
 91  4 12 22 46 30.0020000  0  6 02 19 06 11 16 18
  21549637.399   -11916691.061 4  -9285687.895 3
  22278938.606     7029445.955 3   5477484.178 2
  22820858.451    -9962268.519 3  -7762758.844 2
  24522689.697     4944296.465 2   3852711.204 2
  25089451.236      428370.669 2    333762.532 1
  25042787.033    23256585.460 2  18121955.798 1
 91  4 12 22 46 45.0020000  0  6 02 19 06 11 16 18
  21548613.298   -11922065.694 4  -9289875.877 3
  22284438.008     7058330.768 3   5499991.786 2
  22816198.772    -9986760.090 3  -7781843.091 2
  24531100.074     4988480.309 2   3887140.124 2
  25095369.146      459391.641 2    357934.840
  25054392.911    23317576.223 2  18169480.846 1
 91  4 12 22 47  0.0020000  0  6 02 19 06 11 16 18
  21547604.501   -11927385.811 4  -9294021.384 3
  22289940.986     7087271.941 3   5522543.306 2
  22811541.204   -10011250.090 3  -7800926.131 2
  24539525.737     5032755.751 2   3921640.452 1
  25101277.755      490471.475 2    382152.713 1
  25065999.662    23378565.953 2  18217005.091 1
 91  4 12 22 47 15.0020000  0  6 02 19 06 11 16 18
  21546602.003   -11932649.142 4  -9298122.648 3
  22295460.473     7116271.886 3   5545140.624 2
  22806876.430   -10035736.225 3  -7820006.173 1
  24547970.299     5077124.799 2   3956213.675 1
  25107198.055      521612.180 2    406418.022 1
  25077603.742    23439556.957 2  18264530.305 1
 91  4 12 22 47 30.0020000  0  6 02 19 06 11 16 18
  21545612.384   -11937855.062 4  -9302179.172 3
  22300989.539     7145331.229 3   5567784.216 2
  22802220.345   -10060217.712 3  -7839082.563 2
  24556429.833     5121587.711 2   3990860.068 1
  25113133.939      552814.205 2    430731.208 1
  25089209.010    23500549.622 2  18312056.833 1
 91  4 12 22 47 45.0020000  0  6 02 19 06 11 16 18
  21544630.565   -11943005.613 4  -9306192.551 3
  22306528.814     7174448.060 3   5590472.616 2
  22797563.981   -10084696.269 3  -7858156.665 2
  24564910.970     5166142.199 2   4025577.808 1
  25119078.827      584075.004 2    455090.073 1
  25100814.574    23561541.513 2  18359582.754 1
 91  4 12 22 48  0.0020000  0  6 02 19 06 11 16 18
  21543665.829   -11948089.097 4  -9310153.674 4
  22312085.766     7203634.075 3   5613214.923 2
  22792906.693   -10109160.124 3  -7877219.337 2
  24573403.782     5210799.593 2   4060375.742 1
  25125054.584      615406.119 2    479503.749 1
  25112424.029    23622544.280 2  18407117.202 1
 91  4 12 22 48 15.0020000  0  7 02 19 06 11 16 15 18
  21542714.583   -11953077.714 4  -9314040.880 3
  22317653.817     7232917.262 3   5636032.940 2
  22788258.408   -10133581.379 3  -7896248.801 2
  24581929.278     5255587.377 2   4095275.259 1
  25131030.655      646834.733 2    503993.432
  25302889.072           0.385 2         0.306 1
  25124035.892    23683585.442 2  18454681.531 1
 91  4 12 22 48 30.0020000  0  7 02 19 06 11 16 15 18
  21541774.139   -11958015.223 4  -9317888.241 3
  22323234.745     7262254.124 3   5658892.788 2
  22783613.736   -10158003.352 3  -7915278.819 2
  24590469.170     5300461.777 2   4130242.269 1
  25137015.399      678317.090 1    528524.946 1
  25297808.494      -26655.706 2    -20770.513 1
  25135653.445    23744620.914 2  18502241.401 1
 91  4 12 22 48 45.0020000  0  7 02 19 06 11 16 15 18
  21540843.588   -11962906.883 4  -9321699.887 3
  22328833.072     7291639.359 3   5681790.319 2
  22778966.045   -10182431.110 3  -7934313.340 2
  24599021.051     5345417.224 2   4165272.434 1
  25143006.460      709847.736 1    553094.152 1
  25292745.296      -53283.896 2    -41519.579 1
  25147269.514    23805645.205 2  18549792.615 1
 91  4 12 22 49  0.0020000  0  7 02 19 06 11 16 15 18
  21539922.025   -11967739.591 4  -9325465.600 3
  22334436.790     7321086.264 3   5704735.917 2
  22774318.075   -10206851.475 3  -7953342.109 2
  24607592.720     5390466.529 2   4200375.747 1
  25149043.974      741439.404 2    577710.919 1
  25287681.801      -79870.724 2    -62236.391 1
  25158886.159    23866671.175 2  18597345.090 1
 91  4 12 22 49 15.0020000  0  7 02 19 06 11 16 15 18
  21539017.248   -11972507.110 4  -9329180.510 3
  22340049.513     7350601.421 3   5727734.685 2
  22769674.886   -10231257.937 3  -7972360.049 2
  24616187.476     5435615.811 2   4235556.933 1
  25155053.620      773098.415 1    602380.118 1
  25282632.406     -106409.231 2    -82915.581 1
  25170497.429    23927705.253 2  18644903.898 1
 91  4 12 22 49 30.0020000  0  7 02 19 06 11 16 15 18
  21538117.864   -11977214.362 4  -9332848.455 4
  22345682.007     7380179.911 3   5750782.813 2
  22765025.694   -10255655.003 3  -7991370.664 2
  24624796.314     5480859.949 2   4270812.056 1
  25161093.838      804819.582 1    627097.818 1
  25277590.183     -132903.986 2   -103560.679
  25182123.671    23988742.135 2  18692465.352 1
 91  4 12 22 49 45.0020000  0  7 02 19 06 11 16 15 18
  21537237.972   -11981865.590 4  -9336472.757 3
  22351320.504     7409817.520 3   5773877.005 2
  22760389.102   -10280046.922 3  -8010377.277 2
  24633421.031     5526194.337 2   4306137.512 1
  25167134.353      836598.141 2    651860.144 1
  25272562.967     -159358.814 2   -124174.711 1
  25193731.643    24049777.406 2  18740025.119 1
 91  4 12 22 50  0.0020000  0  7 02 19 06 11 16 15 18
  21536367.084   -11986432.280 4  -9340031.174 3
  22356976.696     7439542.702 3   5797039.429 2
  22755753.120   -10304405.234 3  -8029357.694 2
  24642070.057     5571646.896 2   4341555.033 1
  25173205.755      868462.161 2    676689.114 1
  25267536.641     -185745.109 2   -144735.296 1
  25205344.711    24110838.981 2  18787605.810 1
 91  4 12 22 50 15.0020000  0  7 02 19 06 11 16 15 18
  21535509.982   -11990944.390 4  -9343547.067 3
  22362643.061     7469325.669 3   5820246.898 2
  22751118.028   -10328759.525 3  -8048334.996 2
  24650732.851     5617187.653 2   4377041.303 1
  25179275.342      900381.674 2    701561.336 1
  25262523.822     -212092.067 2   -165265.216 1
  25216967.359    24171896.765 2  18835183.108 1
 91  4 12 22 50 30.0020000  0  7 02 19 06 11 16 15 18
  21534657.067   -11995393.071 4  -9347013.545 3
  22368327.137     7499175.319 3   5843506.304 2
  22746485.937   -10353100.795 3  -8067302.135 2
  24659425.032     5662825.108 2   4412602.891 1
  25185362.938      932364.809 2    726483.132 1
  25257508.891     -238390.686 2   -185757.451 1
  25228586.708    24232959.603 2  18882764.311 1
 91  4 12 22 50 45.0020000  0  7 02 19 06 11 16 15 18
  21533828.740   -11999773.591 4  -9350426.894 3
  22374019.590     7529096.563 3   5866821.504 2
  22741856.238   -10377423.990 3  -8086255.192 2
  24668125.012     5708563.774 2   4448243.354 1
  25191460.114      964416.273 2    751458.131 1
  25252528.738     -264635.588 2   -206207.826 1
  25240207.576    24294031.921 2  18930352.939 1
 91  4 12 22 51  0.0020000  0  7 02 19 06 11 16 15 18
  21533005.806   -12004097.640 4  -9353796.245 3
  22379732.129     7559077.693 2   5890183.365 2
  22737231.947   -10401740.823 3  -8105203.301 2
  24676846.579     5754391.604 2   4483953.319 1
  25197571.686      996524.152 2    776477.140 1
  25247538.988     -290838.023 2   -226625.152 1
  25251817.031    24355101.817 2  18977939.648 1
 91  4 12 22 51 15.0020000  0  7 02 19 06 11 16 15 18
  21532190.374   -12008361.535 4  -9357118.726 3
  22385439.885     7589122.748 3   5913595.052 2
  22732608.250   -10426047.148 3  -8124143.209 2
  24685587.026     5800312.049 2   4519735.407 1
  25203688.947     1028691.724 2    801542.635 1
  25242559.132     -316993.962 2   -247006.213 1
  25263443.885    24416172.802 2  19025527.241 1
 91  4 12 22 51 30.0020000  0  7 02 19 06 11 16 15 18
  21531394.121   -12012561.343 4  -9360391.270 3
  22391171.322     7619235.673 3   5937059.620 2
  22727981.238   -10450338.925 3  -8143071.791 2
  24694340.370     5846328.865 2   4555592.660 1
  25209835.891     1060922.654 2    826657.476 1
  25237586.780     -343098.602 2   -267347.351 1
  25275074.333    24477248.432 2  19073118.885 1
 91  4 12 22 51 45.0020000  0  7 02 19 06 11 16 15 18
  21530602.980   -12016700.053 4  -9363616.192 3
  22396916.545     7649413.532 3   5960574.795 2
  22723362.637   -10474618.948 3  -8161991.201 2
  24703114.985     5892438.868 2   4591522.458 1
  25215979.240     1093213.970 2    851819.432 1
  25232634.810     -369154.574 2   -287650.558 1
  25286691.588    24538325.706 2  19120711.356 1
 91  4 12 22 52  0.0020000  0  7 02 19 06 11 16 15 18
  21529831.908   -12020774.702 4  -9366791.216 4
  22402671.958     7679659.583 3   5984143.105 2
  22718744.035   -10498883.911 3  -8180898.902 2
  24711912.704     5938644.697 2   4627526.976 1
  25222128.592     1125568.154 2    877030.304 1
  25227689.732     -395158.605 2   -307913.257 1
  25298318.441    24599407.184 2  19168307.135 1
 91  4 12 22 52 15.0020000  0  7 02 19 06 11 16 15 18
  21529068.338   -12024783.982 4  -9369915.296 3
  22408436.969     7709975.119 3   6007765.558 2
  22714125.730   -10523132.517 3  -8199793.845 2
  24720720.597     5984947.431 2   4663606.977 1
  25228292.620     1157986.433 2    902291.132 1
  25222743.765     -421108.782 2   -328133.985 1
  25309939.588    24660493.857 2  19215906.915 1
 91  4 12 22 52 30.0020000  0  7 02 19 06 11 16 15 18
  21528316.758   -12028736.523 4  -9372995.164 3
  22414221.158     7740351.564 2   6031435.462 2
  22709516.726   -10547372.916 3  -8218682.404 2
  24729546.795     6031338.265 2   4699755.632 1
  25234477.029     1190460.133 2    927595.181 1
  25217817.865     -447013.466 2   -348319.425 1
  25321570.333    24721577.366 2  19263504.246 1
 91  4 12 22 52 45.0020000  0  7 02 19 06 11 16 15 18
  21527577.462   -12032615.039 4  -9376017.361 4
  22420014.647     7770806.120 2   6055166.227 2
  22704911.021   -10571587.925 3  -8237551.177 2
  24738397.563     6077833.934 2   4735985.954 1
  25240669.850     1223005.527 2    952955.060 1
  25212896.170     -472855.192 2   -368455.619 1
  25333193.592    24782674.451 2  19311112.197 1
 91  4 12 22 53  0.0020000  0  7 02 19 06 11 16 15 18
  21526854.674   -12036430.718 4  -9378990.585 3
  22425821.626     7801327.964 2   6078949.426 2
  22700308.002   -10595788.298 3  -8256408.545 2
  24747260.930     6124423.089 2   4772289.167 1
  25246872.250     1255611.645 2    978362.267 1
  25208007.160     -498644.331 2   -388550.862 1
  25344820.741    24843773.798 2  19358721.883 1
 91  4 12 22 53 15.0020000  0  7 02 19 06 11 16 15 18
  21526138.464   -12040198.024 4  -9381926.118 4
  22431642.094     7831902.804 2   6102773.943 2
  22695695.997   -10619988.289 3  -8275265.623 2
  24756139.880     6171091.022 2   4808653.755 1
  25253087.547     1288263.622 2   1003805.183 1
  25203089.672     -524394.860 2   -408616.030 1
  25356441.609    24904860.700 2  19406321.861 1
 91  4 12 22 53 30.0020000  0  7 02 19 06 11 16 15 18
  21525432.149   -12043900.133 4  -9384810.840 3
  22437471.863     7862547.422 3   6126652.813 2
  22691096.276   -10644170.981 3  -8294109.208 2
  24765041.026     6217854.313 2   4845092.640 1
  25259321.131     1320978.018 2   1029296.749 1
  25198199.457     -550089.537 2   -428637.726 1
  25368075.355    24965951.794 2  19453925.125 1
 91  4 12 22 53 45.0020000  0  7 02 19 06 11 16 15 18
  21524739.341   -12047533.780 4  -9387642.224 4
  22443319.309     7893265.090 2   6150588.609 2
  22686501.058   -10668332.921 3  -8312936.630 2
  24773953.847     6264715.966 2   4881608.145 1
  25265543.320     1353758.082 2   1054839.547 1
  25193326.327     -575724.661 2   -448613.024 1
  25379698.300    25027049.814 2  19501533.793 1
 91  4 12 22 54  0.0020000  0  7 02 19 06 11 16 15 18
  21524055.798   -12051122.392 4  -9390438.513 3
  22449171.867     7924032.510 3   6174563.179 2
  22681900.745   -10692497.311 3  -8331765.962 2
  24782892.459     6311652.122 2   4918181.726 1
  25271809.292     1386579.623 2   1080414.588 1
  25188452.900     -601323.306 2   -468559.884 1
  25391321.558    25088131.191 2  19549129.486
 91  4 12 22 54 15.0020000  0  7 02 19 06 11 16 15 18
  21523383.075   -12054655.894 4  -9393191.857 4
  22455036.694     7954859.984 3   6198584.531 2
  22677301.338   -10716653.996 3  -8350589.286 2
  24791837.371     6358672.580 2   4954821.008 1
  25278062.962     1419452.133 2   1106029.368 1
  25183593.852     -626874.743 1   -488469.879 1
  25402940.611    25149205.949 2  19596719.991 1
 91  4 12 22 54 30.0020000  0  6 02 19 06 11 15 18
  21522720.525   -12058128.615 4  -9395897.845 4
  22460915.637     7985753.232 3   6222657.144 2
  22672710.308   -10740796.904 3  -8369401.882 2
  24800804.166     6405782.916 2   4991530.304 2
  25178738.730     -652373.054 2   -508338.650 1
  25414566.854    25210279.686 2  19644309.739 1
 91  4 12 22 54 45.0020000  0  6 02 19 06 11 15 18
  21522077.781   -12061521.774 4  -9398541.830 4
  22466813.444     8016731.155 2   6246795.736 2
  22668121.093   -10764907.049 3  -8388188.934 2
  24809786.543     6453001.605 2   5028324.045 1
  25173901.268     -677799.029 2   -528150.871 1
  25426190.409    25271370.874 2  19691913.065 1
 91  4 12 22 55  0.0020000  0  6 02 19 06 11 15 18
  21521446.415   -12064834.330 4  -9401123.003 3
  22472726.555     8047794.744 2   6271001.080 2
  22663539.050   -10788983.446 3  -8406949.703 2
  24818789.302     6500329.252 2   5065202.694 2
  25169080.907     -703151.076 2   -547905.559 1
  25437818.466    25332480.033 2  19739530.414 1
 91  4 12 22 55 15.0020000  0  6 02 19 06 11 15 18
  21520831.836   -12068075.635 4  -9403648.671 3
  22478648.950     8078935.063 2   6295266.232 2
  22658962.119   -10813034.711 3  -8425690.901 2
  24827822.948     6547756.510 2   5102158.956 1
  25164267.736     -728438.007 2   -567609.528 1
  25449449.804    25393597.842 2  19787154.498 1
 91  4 12 22 55 30.0020000  0  6 02 19 06 11 15 18
  21520227.465   -12071253.095 4  -9406124.574 4
  22484582.146     8110144.920 2   6319585.539 2
  22654389.691   -10837068.305 3  -8444418.317 2
  24836860.503     6595275.659 2   5139186.819 1
  25159463.272     -753666.963 2   -587268.286 1
  25461085.958    25454716.854 2  19834779.481 1
 91  4 12 22 55 45.0020000  0  5 02 19 06 11 15
  21519631.767   -12074373.361 4  -9408555.918 3
  22490536.020     8141417.553 2   6343953.782 2
  22649814.855   -10861090.525 3  -8463136.863 2
  24845922.018     6642879.783 2   5176280.908 1
  25154666.888     -778844.059 2   -606886.615 1
 91  4 12 22 56  0.0020000  0  5 02 19 06 11 15
  21519046.870   -12077428.172 4  -9410936.261 4
  22496502.791     8172761.354 2   6368377.460 2
  22645250.820   -10885092.897 3  -8481839.947 2
  24854997.649     6690576.930 2   5213447.479 1
  25149886.994     -803960.611 2   -626457.763 1
 91  4 12 22 56 15.0020000  0  5 02 19 06 11 15
  21518479.668   -12080408.112 4  -9413258.267 4
  22502485.458     8204185.818 2   6392864.011 2
  22640687.675   -10909065.885 3  -8500520.134 2
  24864087.642     6738376.273 2   5250693.665 1
  25145118.198     -829006.535 2   -645973.990 1
 91  4 12 22 56 30.0020000  0  5 02 19 06 11 15
  21517922.657   -12083351.382 4  -9415551.687 3
  22508473.501     8235652.683 2   6417383.595 2
  22636123.937   -10933047.502 3  -8519207.047 2
  24873199.535     6786239.112 2   5287989.349 2
  25140370.081     -854019.687 2   -665464.565 1
 91  4 12 22 56 45.0020000  0  5 02 19 06 11 15
  21517379.136   -12086215.556 4  -9417783.477 4
  22514476.847     8267204.507 2   6441969.382 2
  22631565.888   -10956995.040 3  -8537867.396 2
  24882322.526     6834207.568 2   5325367.308 1
  25135613.274     -878957.267 2   -684896.284 1
 91  4 12 22 57  0.0020000  0  5 02 19 06 11 15
  21516844.600   -12089011.437 4  -9419962.055 4
  22520491.291     8298830.551 2   6466613.005 2
  22627012.952   -10980919.260 3  -8556509.590 2
  24891477.591     6882270.517 2   5362818.879 2
  25130878.960     -903829.964 2   -704277.452 1
 91  4 12 22 57 15.0020000  0  5 02 19 06 11 15
  21516327.760   -12091742.548 4  -9422090.157 4
  22526526.414     8330527.433 2   6491311.836 2
  22622466.891   -11004823.382 3  -8575136.105 2
  24900634.453     6930424.380 2   5400341.333 1
  25126165.011     -928640.414 2   -723610.159 1
 91  4 12 22 57 30.0020000  0  5 02 19 06 11 15
  21515827.410   -12094359.507 4  -9424129.305 4
  22532579.528     8362344.650 3   6516104.414 2
  22617927.426   -11028657.773 3  -8593708.288 2
  24909825.483     6978718.221 2   5437972.845 1
  25121460.973     -953339.025 2   -742855.636 1
 91  4 12 22 57 45.0020000  0  5 02 19 06 11 15
  21515333.045   -12096958.043 4  -9426154.106 4
  22538638.628     8394186.484 2   6540916.178 2
  22613392.778   -11052517.964 3  -8612300.591 2
  24919023.719     7027055.906 2   5475638.513 1
  25116764.125     -978020.837 2   -762088.063 1
 91  4 12 22 58  0.0020000  0  5 02 19 06 11 15
  21514847.685   -12099507.375 4  -9428140.563 3
  22544714.514     8426084.037 2   6565771.361 2
  22608852.109   -11076372.988 3  -8630888.851 2
  24928243.228     7075467.996 2   5513362.170 1
  25112077.764    -1002654.725 2   -781283.193 1
 91  4 12 22 58 15.0020000  0  5 02 19 06 11 15
  21514372.219   -12102009.472 4  -9430090.216 4
  22550787.120     8458035.484 2   6590668.545 2
  22604310.864   -11100224.403 3  -8649474.306 2
  24937472.351     7123952.338 2   5551142.120 2
  25107397.406    -1027241.973 2   -800441.921 1
 91  4 12 22 58 30.0020000  0  5 02 19 06 11 15
  21513906.629   -12104449.802 4  -9431991.745 4
  22556882.795     8490055.459 2   6615619.112 2
  22599776.495   -11124057.447 3  -8668045.446 2
  24946712.852     7172523.243 2   5588989.520 1
  25102736.244    -1051767.574 2   -819552.620 1
 91  4 12 22 58 45.0020000  0  5 02 19 06 11 15
  21513455.437   -12106825.380 4  -9433842.808 3
  22562992.570     8522146.876 2   6640625.355 2
  22595245.145   -11147869.099 3  -8686599.924 2
  24955970.734     7221183.277 2   5626906.375 1
  25098074.767    -1076228.401 2   -838612.881 1
 91  4 12 22 59  0.0020000  0  5 02 19 06 11 15
  21513015.656   -12109135.842 4  -9435643.130 4
  22569111.332     8554309.958 2   6665687.452 2
  22590718.576   -11171658.757 3  -8705137.265 2
  24965244.216     7269932.444 2   5664892.700 1
  25093427.076    -1100623.948 2   -857622.245 1
 91  4 12 22 59 15.0020000  0  5 02 19 06 11 15
  21512586.346   -12111383.483 4  -9437394.507 4
  22575242.693     8586542.782 2   6690803.884 2
  22586195.601   -11195428.408 3  -8723659.016 2
  24974535.096     7318768.294 2   5702946.570 1
  25088801.879    -1124955.581 2   -876581.766 1
 91  4 12 22 59 30.0020000  0  5 02 19 06 11 15
  21512171.432   -12113566.415 4  -9439095.459 4
  22581389.637     8618847.452 2   6715976.315 2
  22581675.035   -11219175.959 3  -8742163.527 2
  24983852.343     7367692.449 2   5741069.238 1
  25084187.186    -1149220.804 2   -895489.620 1
 91  4 12 22 59 45.0020000  0  5 02 19 06 11 15
  21511766.116   -12115695.422 4  -9440754.387 4
  22587551.867     8651213.040 2   6741196.200 2
  22577156.860   -11242912.006 3  -8760659.092 2
  24993174.982     7416693.752 2   5779252.009 1
  25079582.073    -1173430.242 2   -914353.946 1
 91  4 12 23  0  0.0020000  0  5 02 19 06 11 15
  21511374.585   -12117744.291 4  -9442350.876 4
  22593722.788     8683665.955 2   6766484.119 2
  22572648.875   -11266610.015 3  -8779125.003 2
  25002512.018     7465798.276 2   5817515.220 1
  25074997.343    -1197557.368 2   -933154.131 1
 91  4 12 23  0 15.0020000  0  5 02 19 06 11 15
  21511000.749   -12119735.301 4  -9443902.287 4
  22599916.498     8716183.997 2   6791822.800 2
  22568146.300   -11290292.066 3  -8797578.490 2
  25011881.127     7514983.477 2   5855841.304 1
  25070404.219    -1221623.784 2   -951907.035 1
 91  4 12 23  0 30.0020000  0  5 02 19 06 11 15
  21510630.805   -12121664.375 4  -9445405.424 3
  22606117.416     8748771.403 2   6817215.538 2
  22563644.022   -11313953.849 3  -8816016.172 2
  25021248.456     7564253.135 2   5894233.213 1
  25065850.375    -1245625.124 2   -970609.250 1
 91  4 12 23  0 45.0020000  0  5 02 19 06 11 15
  21510275.850   -12123538.172 4  -9446865.502 4
  22612327.320     8781421.580 2   6842657.178 2
  22559137.835   -11337601.619 3  -8834442.946 2
  25030645.451     7613600.419 2   5932685.570 1
  25061289.324    -1269567.467 2   -989265.512 1
 91  4 12 23  1  0.0020000  0  5 02 19 06 11 15
  21509928.381   -12125355.703 4  -9448281.729 4
  22618553.994     8814135.708 2   6868148.652 2
  22554643.042   -11361234.302 3  -8852857.955 2
  25040048.727     7663025.890 2   5971198.852 1
  25056740.576    -1293449.393 2  -1007874.672 1
 91  4 12 23  1 15.0020000  0  5 02 19 06 11 15
  21509594.122   -12127123.343 4  -9449659.077 3
  22624786.095     8846907.093 2   6893684.745 2
  22550151.252   -11384858.214 3  -8871266.139 2
  25049467.622     7712522.746 2   6009767.797 1
  25052201.129    -1317276.933 2  -1026441.423 1
 91  4 12 23  1 30.0020000  0  5 02 19 06 11 15
  21509268.536   -12128825.632 4  -9450985.505 4
  22631041.562     8879751.720 2   6919277.903 2
  22545659.461   -11408457.345 3  -8889655.009 2
  25058902.990     7762106.477 2   6048404.426 1
  25047690.143    -1341033.905 2  -1044953.185 1
 91  4 12 23  1 45.0020000  0  5 02 19 06 11 15
  21508952.565   -12130484.482 4  -9452278.076 4
  22637301.827     8912647.629 2   6944911.021 2
  22541165.280   -11432053.532 3  -8908041.583 2
  25068354.237     7811754.668 2   6087091.246 1
  25043172.264    -1364741.960 2  -1063426.888 1
 91  4 12 23  2  0.0020000  0  5 02 19 06 11 15
  21508649.175   -12132081.062 4  -9453522.144 4
  22643577.676     8945613.489 2   6970598.643 2
  22536680.382   -11455627.913 3  -8926411.179 2
  25077817.193     7861485.720 2   6125842.694 1
  25038676.285    -1388381.940 2  -1081847.504 1
 91  4 12 23  2 15.0020000  0  5 02 19 06 11 15
  21508357.478   -12133614.993 4  -9454717.387 4
  22649862.825     8978649.919 2   6996341.259 2
  22532194.280   -11479179.705 3  -8944763.157 2
  25087296.030     7911299.891 2   6164658.859 1
  25034188.997    -1411953.050 2  -1100214.560 2
 91  4 12 23  2 30.0020000  0  5 02 19 06 11 15
  21508078.361   -12135069.344 4  -9455850.625 4
  22656161.167     9011773.911 2   7022152.105 2
  22527725.576   -11502691.838 3  -8963084.250 2
  25096788.651     7961213.845 2   6203552.755 1
  25029721.776    -1435437.986 2  -1118514.289 1
 91  4 12 23  2 45.0020000  0  5 02 19 06 11 15
  21507813.956   -12136458.769 4  -9456933.266 4
  22662480.485     9044971.331 2   7048020.166 2
  22523252.980   -11526178.364 3  -8981385.376 2
  25106309.159     8011212.887 2   6242513.030 1
  25025265.374    -1458850.447 2  -1136757.557 1
 91  4 12 23  3  0.0020000  0  5 02 19 06 11 15
  21507561.818   -12137798.304 4  -9457977.036 4
  22668810.603     9078227.046 2   7073933.657 2
  22518787.260   -11549654.311 3  -8999678.277 2
  25115835.965     8061281.577 2   6281527.502 1
  25020821.851    -1482205.314 2  -1154956.037 1
 91  4 12 23  3 15.0020000  0  5 02 19 06 11 15
  21507319.294   -12139063.100 4  -9458962.562 4
  22675152.711     9111565.863 2   7099911.889 2
  22514328.747   -11573094.664 3  -9017943.421 2
  25125382.857     8111444.364 2   6320615.354 1
  25016391.816    -1505477.365 2  -1173090.006 1
 91  4 12 23  3 30.0020000  0  5 02 19 06 11 15
  21507092.058   -12140262.662 4  -9459897.258 4
  22681518.515     9144978.276 2   7125947.465 2
  22509871.734   -11596508.604 3  -9036187.994 2
  25134945.646     8161691.509 2   6359768.914 1
  25011982.460    -1528675.681 2  -1191166.491 1
 91  4 12 23  3 45.0020000  0  5 02 19 06 11 15
  21506875.902   -12141406.732 4  -9460788.713 4
  22687883.098     9178454.621 2   7152032.869 2
  22505420.114   -11619905.715 3  -9054419.446 2
  25144512.013     8212013.041 2   6398980.459 1
  25007577.310    -1551809.695 2  -1209192.841 1
 91  4 12 23  4  0.0020000  0  5 02 19 06 11 15
  21506672.048   -12142486.746 4  -9461630.251 4
  22694268.377     9212003.821 2   7178175.023 2
  22500973.903   -11643277.070 3  -9072630.821 2
  25154106.579     8262417.180 2   6438256.360 1
  25003188.947    -1574870.100 2  -1227161.863 1
 91  4 12 23  4 15.0020000  0  5 02 19 06 11 15
  21506473.884   -12143513.165 4  -9462430.037 4
  22700659.066     9245615.282 2   7204365.710 2
  22496523.173   -11666632.905 3  -9090830.126 2
  25163719.415     8312893.149 2   6477588.261 1
  24998817.981    -1597866.738 2  -1245081.169 1
 91  4 12 23  4 30.0020000  0  5 02 19 06 11 15
  21506292.209   -12144462.110 4  -9463169.456 4
  22707074.917     9279312.861 2   7230623.499 2
  22492087.450   -11689949.284 3  -9108998.674 2
  25173334.363     8363464.447 2   6516994.411 1
  24994451.500    -1620775.579 2  -1262932.088 1
 91  4 12 23  4 45.0020000  0  5 02 19 06 11 15
  21506116.224   -12145373.321 4  -9463879.460 4
  22713499.180     9313056.817 2   7256917.430 2
  22487653.227   -11713265.690 3  -9127167.241 2
  25182974.195     8414091.197 2   6556443.778 1
  24990097.915    -1643635.996 2  -1280745.292 1
 91  4 12 23  5  0.0020000  0  5 02 19 06 11 15
  21505955.839   -12146233.282 4  -9464549.531 4
  22719939.305     9346861.137 2   7283258.386 2
  22483215.986   -11736568.234 3  -9145325.020 2
  25192621.809     8464786.678 2   6595946.692 1
  24985766.510    -1666433.942 2  -1298509.794 1
 91  4 12 23  5 15.0020000  0  5 02 19 06 11 15
  21505805.942   -12147023.367 4  -9465165.169 4
  22726379.448     9380744.761 2   7309661.149 2
  22478792.547   -11759837.863 3  -9163457.145 2
  25202282.320     8515569.410 2   6635517.603 1
  24981444.701    -1689150.360 2  -1316210.769 1
 91  4 12 23  5 30.0020000  0  5 02 19 06 11 15
  21505669.237   -12147754.470 4  -9465734.845 4
  22732840.286     9414696.530 2   7336117.022 2
  22474364.625   -11783085.215 3  -9181571.921 2
  25211957.227     8566428.079 2   6675147.681 1
  24977123.504    -1711795.669 2  -1333856.250 1
 91  4 12 23  5 45.0020000  0  5 02 19 06 11 15
  21505537.331   -12148426.674 4  -9466258.615 4
  22739310.111     9448716.176 2   7362625.762 2
  22469948.672   -11806310.547 3  -9199669.511 2
  25221657.611     8617362.108 2   6714836.497 1
  24972840.959    -1734369.683 2  -1351446.296 1
 91  4 12 23  6  0.0020000  0  5 02 19 06 11 15
  21505420.100   -12149039.929 4  -9466736.455 4
  22745793.722     9482804.073 2   7389187.698 2
  22465533.331   -11829513.252 3  -9217749.481 2
  25231358.588     8668371.407 2   6754583.931 1
  24968558.728    -1756871.779 2  -1368980.278 1
 91  4 12 23  6 15.0020000  0  5 02 19 06 11 15
  21505315.783   -12149586.935 4  -9467162.676 4
  22752307.609     9516967.622 2   7415808.568 1
  22461120.084   -11852685.874 3  -9235806.014 2
  25241079.965     8719462.984 2   6794395.463 1
  24964284.279    -1779294.042 2  -1386452.025 1
 91  4 12 23  6 30.0020000  0  5 02 19 06 11 15
  21505223.436   -12150082.838 4  -9467549.067 4
  22758808.897     9551191.723 2   7442476.625 2
  22456712.839   -11875843.326 3  -9253850.721 2
  25250808.531     8770621.463 2   6834259.150 1
  24960038.921    -1801651.201 2  -1403873.039 1
 91  4 12 23  6 45.0020000  0  5 02 19 06 11 15
  21505138.610   -12150533.411 4  -9467900.144 4
  22765336.291     9585470.566 2   7469187.359 2
  22452311.284   -11898991.109 3  -9271887.891 2
  25260561.370     8821840.693 2   6874170.177 1
  24955783.964    -1823948.847 2  -1421247.748 1
 91  4 12 23  7  0.0020000  0  5 02 19 06 11 15
  21505060.050   -12150933.409 4  -9468211.805 4
  22771867.872     9619809.511 2   7495944.915 2
  22447907.634   -11922123.755 3  -9289913.282 2
  25270327.420     8873125.752 2   6914132.508 2
  24951560.191    -1846181.095 2  -1438571.449 1
 91  4 12 23  7 15.0020000  0  5 02 19 06 11 15
  21504996.793   -12151280.356 4  -9468482.140 4
  22778421.023     9654211.198 2   7522751.357 2
  22443505.782   -11945238.450 3  -9307924.671 2
  25280089.560     8924478.731 2   6954147.744 2
  24947343.015    -1868345.377 2  -1455842.209 1
 91  4 12 23  7 30.0020000  0  5 02 19 06 11 15
  21504943.430   -12151564.736 4  -9468703.713 4
  22784976.895     9688685.415 2   7549614.305 2
  22439113.230   -11968325.416 3  -9325914.461 2
  25289882.570     8975909.111 2   6994223.309 2
  24943136.622    -1890431.360 2  -1473051.975 1
 91  4 12 23  7 45.0020000  0  5 02 19 06 11 15
  21504896.977   -12151786.959 4  -9468876.846 4
  22791549.240     9723231.630 2   7576533.362 1
  22434729.352   -11991384.853 3  -9343882.787 2
  25299684.287     9027416.027 2   7034358.509 1
  24938949.722    -1912439.093 2  -1490200.729 1
 91  4 12 23  8  0.0020000  0  5 02 19 06 11 15
  21504868.481   -12151949.655 4  -9469003.601 4
  22798136.575     9757847.550 2   7603506.752 2
  22430344.601   -12014419.076 3  -9361831.474 2
  25309506.387     9078996.603 2   7074551.100 1
  24934768.527    -1934370.526 2  -1507290.087 1
 91  4 12 23  8 15.0020000  0  5 02 19 06 11 15
  21504848.099   -12152061.613 4  -9469090.831 4
  22804735.916     9792524.154 2   7630527.417 2
  22425965.835   -12037436.757 3  -9379767.282 2
  25319328.189     9130641.524 2   7114793.870 1
  24930619.092    -1956234.276 2  -1524326.632 1
 91  4 12 23  8 30.0020000  0  5 02 19 06 11 15
  21504832.813   -12152132.416 4  -9469145.972 4
  22811347.228     9827251.947 2   7657587.954 1
  22421585.254   -12060447.309 3  -9397697.528 2
  25329164.092     9182341.064 2   7155079.164 1
  24926465.469    -1978039.595 2  -1541317.685 1
 91  4 12 23  8 45.0020000  0  5 02 19 06 11 15
  21504827.717   -12152150.451 4  -9469159.999 4
  22817963.059     9862042.785 2   7684697.647 2
  22417211.881   -12083438.680 3  -9415612.825 2
  25339018.265     9234106.672 2   7195415.958 1
  24922325.632    -1999774.317 2  -1558253.672 1
 91  4 12 23  9  0.0020000  0  5 02 19 06 11 15
  21504836.111   -12152117.137 4  -9469134.014 4
  22824596.864     9896895.083 2   7711855.212 2
  22412837.321   -12106412.209 3  -9433514.213 2
  25348877.533     9285936.394 2   7235802.707 1
  24918200.191    -2021439.556 2  -1575135.603 1
 91  4 12 23  9 15.0020000  0  5 02 19 06 11 15
  21504853.195   -12152024.263 4  -9469061.630 4
  22831242.954     9931817.390 2   7739067.331 2
  22408469.932   -12129359.221 3  -9451394.954 2
  25358763.186     9337838.299 2   7276245.704 1
  24914097.226    -2043026.465 2  -1591956.395 1
 91  4 12 23  9 30.0020000  0  5 02 19 06 11 15
  21504880.173   -12151891.662 4  -9468958.278 4
  22837899.549     9966789.798 2   7766318.483 2
  22404103.155   -12152299.479 3  -9469270.427 2
  25368642.557     9389792.274 2   7316729.286 1
  24909998.170    -2064554.586 2  -1608731.446 1
 91  4 12 23  9 45.0020000  0  5 02 19 06 11 15
  21504916.748   -12151697.026 4  -9468806.595 4
  22844566.038    10001834.604 2   7793626.072 2
  22399748.383   -12175210.326 3  -9487122.976 2
  25378545.294     9441820.252 2   7357270.519 1
  24905922.497    -2086001.286 2  -1625443.053 1
 91  4 12 23 10  0.0020000  0  5 02 19 06 11 15
  21504963.829   -12151441.739 4  -9468607.647 4
  22851254.410    10036950.461 2   7820988.998 2
  22395391.797   -12198093.000 3  -9504953.577 2
  25388455.534     9493920.521 2   7397868.086 1
  24901846.510    -2107367.437 2  -1642091.880 1
 91  4 12 23 10 15.0020000  0  5 02 19 06 11 15
  21505024.381   -12151130.367 4  -9468364.998 4
  22857943.672    10072133.023 2   7848403.918 2
  22391043.307   -12220951.641 3  -9522765.446 2
  25398384.656     9546088.452 2   7438518.385 1
  24897801.410    -2128657.014 2  -1658681.001 1
 91  4 12 23 10 30.0020000  0  5 02 19 06 11 15
  21505093.938   -12150765.211 4  -9468080.433 4
  22864652.425    10107380.137 2   7875869.126 1
  22386701.711   -12243788.396 3  -9540560.274 2
  25408323.078     9598321.400 2   7479219.355 2
  24893772.207    -2149872.158 2  -1675212.198 1
 91  4 12 23 10 45.0020000  0  5 02 19 06 11 15
  21505176.373   -12150332.655 4  -9467743.357 4
  22871372.871    10142705.521 2   7903395.337 1
  22382358.910   -12266589.189 3  -9558327.069 2
  25418276.194     9650632.825 2   7519981.437 1
  24889747.489    -2170998.354 2  -1691674.034 1
 91  4 12 23 11  0.0020000  0  5 02 19 06 11 15
  21505270.517   -12149820.633 4  -9467344.361 4
  22878114.012    10178121.151 2   7930991.856 2
  22378029.912   -12289341.960 3  -9576056.449 2
  25428252.082     9703034.259 2   7560813.706 1
  24885743.467    -2192023.579 2  -1708057.225 1
 91  4 12 23 11 15.0020000  0  5 02 19 06 11 15
  21505382.338   -12149252.445 4  -9466901.596 4
  22884865.344    10213603.720 2   7958640.547 2
  22373701.805   -12312069.758 3  -9593766.373 2
  25438238.772     9755502.183 2   7601697.764 1
  24881753.824    -2212970.501 2  -1724379.370 1
 91  4 12 23 11 30.0020000  0  5 02 19 06 11 15
  21505499.551   -12148630.137 4  -9466416.654 4
  22891630.759    10249151.294 2   7986339.882 2
  22369381.497   -12334774.233 3  -9611458.122 2
  25448235.059     9808034.230 2   7642631.790 1
  24877787.564    -2233840.953 2  -1740641.982 1
 91  4 12 23 11 45.0020000  0  5 02 19 06 11 15
  21505629.956   -12147950.101 4  -9465886.732 4
  22898405.160    10284767.652 2   8014092.834 2
  22365064.191   -12357451.582 3  -9629128.738 2
  25458246.930     9860633.782 2   7683618.396 1
  24873832.105    -2254630.681 2  -1756841.662 1
 91  4 12 23 12  0.0020000  0  5 02 19 06 11 15
  21505772.664   -12147207.239 4  -9465307.856 4
  22905198.757    10320458.238 2   8041903.613 2
  22360757.076   -12380096.192 3  -9646773.851 2
  25468265.693     9913305.785 2   7724661.477 1
  24869882.947    -2275334.051 2  -1772974.053 1
 91  4 12 23 12 15.0020000  0  5 02 19 06 11 15
  21505919.263   -12146410.220 4  -9464686.779 4
  22912005.249    10356214.220 2   8069765.340 2
  22356454.446   -12402716.745 3  -9664400.178 2
  25478305.135     9966041.233 2   7765753.968 1
  24865964.954    -2295959.289 2  -1789045.493 1
 91  4 12 23 12 30.0020000  0  5 02 19 06 11 15
  21506087.449   -12145543.009 4  -9464011.014 4
  22918824.026    10392051.691 2   8097690.573 2
  22352156.928   -12425296.935 3  -9681995.086 2
  25488355.675    10018855.627 2   7806907.934 1
  24862058.653    -2316490.180 2  -1805043.493 1
 91  4 12 23 12 45.0020000  0  5 02 19 06 11 15
  21506261.323   -12144625.408 4  -9463295.973 4
  22925656.903    10427951.026 2   8125664.015 2
  22347861.801   -12447856.202 3  -9699573.677 2
  25498407.716    10071729.045 2   7848108.043 1
  24858161.059    -2336946.182 2  -1820983.115 1
 91  4 12 23 13  0.0020000  0  5 02 19 06 11 15
  21506438.495   -12143685.064 4  -9462563.219 4
  22932497.563    10463884.287 2   8153663.891 2
  22343566.971   -12470422.103 3  -9717157.446 2
  25508478.655    10124633.468 2   7889332.222 1
  24854281.440    -2357354.553 2  -1836885.611 1
 91  4 12 23 13 15.0020000  0  6 02 13 19 06 11 15
  21506622.874   -12142734.606 4  -9461822.582 4
  24802629.301           0.609 2         0.342 1
  22939332.831    10499839.142 2   8181680.587 2
  22339273.048   -12493006.746 3  -9734755.818 2
  25518549.577    10177556.211 2   7930570.672 1
  24850403.321    -2377726.984 2  -1852760.111 1
 91  4 12 23 13 30.0020000  0  6 02 13 19 06 11 15
  21506818.648   -12141704.219 4  -9461019.657 4
  24792176.132      -54912.100 2    -42789.005 1
  22946187.590    10535885.493 2   8209768.562 2
  22334982.110   -12515539.980 3  -9752314.123 2
  25528637.583    10230566.781 2   7971877.591 1
  24846546.194    -2397993.472 2  -1868552.065 1
 91  4 12 23 13 45.0020000  0  6 02 13 19 06 11 15
  21507026.392   -12140615.251 4  -9460171.093 4
  24781730.170     -109799.123 2    -85558.344 1
  22953069.625    10572001.990 2   8237911.218 1
  22330700.786   -12538043.135 3  -9769849.009 2
  25538737.298    10283643.403 2   8013235.993 1
  24842713.952    -2418175.234 2  -1884277.966 1
 91  4 12 23 14  0.0020000  0  6 02 13 19 06 11 15
  21507241.938   -12139464.736 4  -9459274.570 4
  24771294.696     -164656.981 2   -128304.490 1
  22959954.957    10608191.655 2   8266110.880 2
  22326427.542   -12560512.989 3  -9787357.938 2
  25548853.503    10336788.798 2   8054647.934 1
  24838882.303    -2438268.591 2  -1899935.051 1
 91  4 12 23 14 15.0020000  0  6 02 13 19 06 11 15
  21507470.082   -12138262.889 4  -9458338.044 4
  24760861.612     -219495.648 2   -171036.095 1
  22966851.685    10644444.254 2   8294359.579 2
  22322153.687   -12582959.509 3  -9804848.683 2
  25558978.085    10389992.423 2   8096105.272 1
  24835074.334    -2458283.395 2  -1915530.880 1
 91  4 12 23 14 30.0020000  0  6 02 13 19 06 11 15
  21507715.920   -12136992.968 4  -9457348.477 4
  24750430.325     -274297.624 2   -213738.814 1
  22973772.685    10680776.825 2   8322670.592 2
  22317889.447   -12605365.609 3  -9822307.927 2
  25569111.967    10443270.774 2   8137620.823 1
  24831287.061    -2478202.499 2  -1931052.144 1
 91  4 12 23 14 45.0020000  0  6 02 13 19 06 11 15
  21507962.056   -12135680.251 4  -9456325.562 4
  24740000.557     -329087.846 2   -256432.522 1
  22980692.796    10717163.920 2   8351024.112 2
  22313629.395   -12627756.284 3  -9839755.159 2
  25579248.554    10496598.248 2   8179174.612 1
  24827514.167    -2498050.839 2  -1946518.258 1
 91  4 12 23 15  0.0020000  0  6 02 13 19 06 11 15
  21508223.163   -12134321.158 4  -9455266.503 4
  24729575.273     -383862.412 2   -299114.234 1
  22987625.192    10753609.079 2   8379422.858 2
  22309370.251   -12650127.748 3  -9857187.418 2
  25589422.607    10549978.121 1   8220769.286 1
  24823743.088    -2517824.759 2  -1961926.396 1
 91  4 12 23 15 15.0020000  0  6 02 13 19 06 11 15
  21508497.481   -12132873.370 4  -9454138.336 4
  24719165.276     -438578.326 2   -341749.772 1
  22994582.175    10790154.745 2   8407899.918 2
  22305129.377   -12672437.364 3  -9874571.482 2
  25599594.566    10603452.436 2   8262437.575 1
  24820002.878    -2537481.278 2  -1977243.079 1
 91  4 12 23 15 30.0020000  0  6 02 13 19 06 11 15
  21508786.474   -12131364.292 4  -9452962.415 4
  24708760.375     -493262.451 2   -384360.926 1
  23001550.849    10826774.069 2   8436434.392 2
  22300884.018   -12694712.235 3  -9891928.473 2
  25609785.406    10656993.536 2   8304157.838 1
  24816275.249    -2557047.031 2  -1992489.025 1
 91  4 12 23 15 45.0020000  0  6 02 13 19 06 11 15
  21509086.862   -12129779.769 4  -9451727.698 4
  24698360.289     -547900.298 2   -426935.688 1
  23008535.124    10863481.086 2   8465037.201 1
  22296655.149   -12716938.016 3  -9909247.210 2
  25619986.454    10710615.157 2   8345940.865 1
  24812579.415    -2576507.512 2  -2007652.925 1
 91  4 12 23 16  0.0020000  0  6 02 13 19 06 11 15
  21509398.645   -12128137.299 4  -9450447.830 4
  24687969.173     -602508.918 2   -469488.035 1
  23015534.372    10900258.226 2   8493694.605 2
  22292435.565   -12739131.856 3  -9926541.065 2
  25630200.084    10764299.613 2   8387772.892 1
  24808888.363    -2595879.970 2  -2022748.179 1
 91  4 12 23 16 15.0020000  0  6 02 13 19 06 11 15
  21509722.434   -12126440.850 4  -9449125.904 4
  24677578.668     -657091.977 2   -512020.077 1
  23022542.030    10937101.368 2   8522403.495 2
  22288215.997   -12761297.612 3  -9943813.028 2
  25640431.094    10818042.638 2   8429650.496 1
  24805216.802    -2615167.980 2  -2037777.676 1
 91  4 12 23 16 30.0020000  0  6 02 13 19 06 11 15
  21510054.599   -12124691.646 4  -9447762.867 4
  24667198.650     -711650.382 2   -554533.303 1
  23029568.570    10974009.448 2   8551162.960 2
  22284002.712   -12783436.107 3  -9961063.741 2
  25650666.921    10871842.775 2   8471572.645 1
  24801562.343    -2634372.109 2  -2052741.861 1
 91  4 12 23 16 45.0020000  0  6 02 13 19 06 11 15
  21510395.157   -12122898.045 4  -9446365.233 4
  24656818.946     -766191.718 1   -597033.262 1
  23036603.800    11010974.480 2   8579966.813 1
  22279795.116   -12805555.333 3  -9978299.460 2
  25660910.513    10925691.473 2   8513532.606 1
  24797926.450    -2653500.213 2  -2067646.757 1
 91  4 12 23 17  0.0020000  0  6 02 13 19 06 11 15
  21510753.113   -12121031.613 4  -9444910.850 4
  24646452.121     -820686.785 1   -639496.708 1
  23043653.705    11048024.887 2   8608837.179 2
  22275592.335   -12827626.424 3  -9995497.669 2
  25671179.320    10979616.989 2   8555552.458 1
  24794307.362    -2672523.777 2  -2082470.233 1
 91  4 12 23 17 15.0020000  0  6 02 13 19 06 11 15
  21511115.868   -12119106.151 4  -9443410.462 4
  24636088.890     -875149.349 2   -681935.278 1
  23050720.415    11085146.712 2   8637763.196 1
  22271400.025   -12849663.313 3 -10012669.219 2
  25681450.798    11033604.950 2   8597620.967 1
  24790697.855    -2691456.059 2  -2097222.573
 91  4 12 23 17 30.0020000  0  6 02 13 19 06 11 15
  21511491.502   -12117140.523 4  -9441878.780 4
  24625721.175     -929597.625 2   -724362.733 1
  23057794.018    11122321.333 2   8666730.351 2
  22267208.326   -12871684.332 3 -10029828.395 2
  25691735.782    11087636.261 2   8639723.248 1
  24787119.234    -2710315.700 2  -2111918.211 1
 91  4 12 23 17 45.0020000  0  6 02 13 19 06 11 15
  21511874.639   -12115127.112 4  -9440309.869 4
  24615364.244     -984023.777 2   -766772.882 1
  23064877.515    11159556.159 2   8695744.448 2
  22263027.725   -12893681.851 3 -10046969.277 2
  25702028.548    11141718.119 2   8681864.912 1
  24783538.815    -2729094.610 2  -2126551.052 1
 91  4 12 23 18  0.0020000  0  6 02 13 19 06 11 15
  21512266.763   -12113061.987 4  -9438700.662 4
  24605021.395    -1038423.281 2   -809161.856 1
  23071979.596    11196855.226 2   8724808.566 1
  22258842.325   -12915651.451 3 -10064088.388 2
  25712326.428    11195854.197 2   8724048.830 2
  24779984.782    -2747788.492 2  -2141117.570 1
 91  4 12 23 18 15.0020000  0  6 02 13 19 06 11 15
  21512670.892   -12110933.733 4  -9437042.255 4
  24594671.671    -1092784.470 2   -851520.984 1
  23079089.182    11234230.113 2   8753931.785 1
  22254668.617   -12937581.606 3 -10081176.791 2
  25722641.984    11250055.611 2   8766283.653 1
  24776442.719    -2766385.327 2  -2155608.515 1
 91  4 12 23 18 30.0020000  0  6 02 13 19 06 11 15
  21513088.197   -12108754.029 4  -9435343.765 4
  24584331.213    -1147118.232 2   -893859.198 1
  23086210.755    11271669.153 2   8783105.001 1
  22250503.599   -12959483.551 3 -10098243.188 3
  25732967.139    11304310.478 2   8808560.164 2
  24772921.370    -2784896.355 2  -2170032.567 1
 91  4 12 23 18 45.0020000  0  6 02 13 19 06 11 15
  21513511.504   -12106523.887 4  -9433605.971 4
  24573995.275    -1201425.109 2   -936176.462 1
  23093344.003    11309171.582 2   8812327.572 1
  22246338.284   -12981358.044 3 -10115288.190 2
  25743304.874    11358617.693 2   8850877.419 2
  24769415.883    -2803322.012 2  -2184390.129 1
 91  4 12 23 19  0.0020000  0  6 02 13 19 06 11 15
  21513950.098   -12104222.822 4  -9431812.914 4
  24563665.025    -1255684.209 2   -978456.031 1
  23100493.165    11346757.780 2   8841615.454 1
  22242185.551   -13003184.182 3 -10132295.517 2
  25753649.521    11412997.437 2   8893251.210 1
  24765930.795    -2821641.607 2  -2198665.000 1
 91  4 12 23 19 15.0020000  0  6 02 13 19 06 11 15
  21514395.602   -12101882.413 4  -9429989.192 4
  24553343.169    -1309926.831 2  -1020723.227 1
  23107659.394    11384396.043 2   8870943.880 1
  22238034.633   -13024993.538 3 -10149289.776 2
  25764005.858    11467417.617 2   8935656.522 1
  24762465.200    -2839886.499 2  -2212881.716 1
 91  4 12 23 19 30.0020000  0  5 02 13 19 06 15
  21514851.576   -12099495.942 4  -9428129.592 4
  24543033.615    -1364145.913 2  -1062971.635 1
  23114834.033    11422093.384 2   8900318.352 1
  22233893.295   -13046779.043 3 -10166265.451 2
  24759008.591    -2858049.665 2  -2227034.729 1
 91  4 12 23 19 45.0020000  0  5 02 13 19 06 15
  21515310.552   -12097058.688 4  -9426230.409 4
  24532718.652    -1418336.261 2  -1105198.084 1
  23122019.160    11459854.357 2   8929742.420 1
  22229748.973   -13068535.801 3 -10183218.722 2
  24755561.579    -2876125.975 2  -2241120.042 1
 91  4 12 23 20  0.0020000  0  5 02 13 19 06 15
  21515784.238   -12094568.878 4  -9424290.279 4
  24522418.085    -1472495.227 2  -1147400.120 1
  23129220.167    11497680.757 2   8959217.474 1
  22225617.826   -13090261.602 3 -10200147.873 2
  24752138.248    -2894113.162 2  -2255135.939 1
 91  4 12 23 20 15.0020000  0  5 02 13 19 06 15
  21516272.896   -12092009.015 4  -9422295.559 4
  24512116.017    -1526605.154 2  -1189563.904 1
  23136430.789    11535590.192 2   8988757.198 1
  22221492.385   -13111938.797 3 -10217039.140 3
  24748740.708    -2911993.211 2  -2269068.349 1
 91  4 12 23 20 30.0020000  0  5 02 13 19 06 15
  21516772.357   -12089399.104 4  -9420261.841 4
  24501819.342    -1580685.565 2  -1231704.725 1
  23143660.571    11573562.868 2   9018346.230 1
  22217370.539   -13133586.998 3 -10233907.826 3
  24745353.342    -2929785.861 2  -2282932.660 1
 91  4 12 23 20 45.0020000  0  5 02 13 19 06 15
  21517277.505   -12086735.560 4  -9418186.334 4
  24491541.862    -1634732.335 2  -1273818.874 1
  23150899.969    11611602.419 2   9047987.345 1
  22213259.477   -13155202.327 3 -10250750.904 2
  24741982.780    -2947486.975 2  -2296725.646 1
 91  4 12 23 21  0.0020000  0  5 02 13 19 06 15
  21517790.141   -12084028.982 4  -9416077.300 4
  24481266.179    -1688755.640 2  -1315915.206 1
  23158146.241    11649698.232 2   9077672.301 2
  22209147.228   -13176795.156 3 -10267576.439 3
  24738629.895    -2965106.955 2  -2310455.363 1
 91  4 12 23 21 15.0020000  0  5 02 13 19 06 15
  21518317.172   -12081264.946 4  -9413923.490 4
  24470985.383    -1742740.674 2  -1357981.684 1
  23165411.727    11687864.749 2   9107412.348 1
  22205049.062   -13198350.769 3 -10284372.987 2
  24735297.409    -2982630.785 2  -2324110.229 1
 91  4 12 23 21 30.0020000  0  5 02 13 19 06 15
  21518855.598   -12078434.211 4  -9411717.704 4
  24460726.487    -1796677.827 2  -1400010.867 1
  23172688.276    11726111.135 2   9137214.637 2
  22200953.008   -13219859.731 3 -10301133.190 3
  24731985.306    -3000048.823 2  -2337682.622 1
 91  4 12 23 21 45.0020000  0  5 02 13 19 06 15
  21519403.029   -12075549.461 4  -9409469.831 4
  24450464.590    -1850579.268 2  -1442012.208 1
  23179978.331    11764424.882 2   9167069.412 1
  22196867.126   -13241334.255 3 -10317866.557 2
  24728685.487    -3017373.283 2  -2351182.111 1
 91  4 12 23 22  0.0020000  0  5 02 13 19 06 15
  21519964.839   -12072619.643 4  -9407186.839 4
  24440216.793    -1904453.469 2  -1483991.904 1
  23187277.391    11802797.081 2   9196969.723 1
  22192787.248   -13262783.127 3 -10334579.923 2
  24725406.364    -3034612.776 2  -2364615.392 1
 91  4 12 23 22 15.0020000  0  5 02 13 19 06 15
  21520529.039   -12069640.285 4  -9404865.243 4
  24429966.587    -1958295.297 2  -1525946.345 1
  23194600.113    11841232.303 2   9226919.149 2
  22188709.184   -13284201.539 3 -10351269.546 2
  24722131.726    -3051762.291 2  -2377978.554 1
 91  4 12 23 22 30.0020000  0  5 02 13 19 06 15
  21521107.043   -12066602.520 4  -9402498.140 4
  24419725.979    -2012095.641 2  -1567868.862 1
  23201915.942    11879739.434 2   9256924.631 2
  22184645.186   -13305580.285 3 -10367928.286 2
  24718885.863    -3068812.818 2  -2391264.600 1
 91  4 12 23 22 45.0020000  0  5 02 13 19 06 15
  21521696.442   -12063501.438 4  -9400081.698 4
  24409497.359    -2065849.166 2  -1609754.495 1
  23209267.160    11918323.443 2   9286990.005 2
  22180583.002   -13326914.210 3 -10384552.086 2
  24715673.296    -3085758.911 2  -2404469.202 1
 91  4 12 23 23  0.0020000  0  5 02 13 19 06 15
  21522296.921   -12060353.996 4  -9397629.131 4
  24399280.135    -2119572.381 2  -1651616.920 1
  23216618.361    11956967.287 2   9317102.007 2
  22176528.601   -13348219.968 3 -10401153.931 2
  24712464.323    -3102617.344 2  -2417605.552 1
 91  4 12 23 23 15.0020000  0  5 02 13 19 06 15
  21522905.497   -12057153.711 4  -9395135.383 4
  24389065.301    -2173258.258 2  -1693449.885 1
  23223985.773    11995677.816 2   9347265.972 1
  22172480.203   -13369490.943 3 -10417728.688 3
  24709269.729    -3119381.013 2  -2430668.037 1
 91  4 12 23 23 30.0020000  0  5 02 13 19 06 15
  21523526.969   -12053889.676 4  -9392591.969 4
  24378852.264    -2226895.163 2  -1735245.030 1
  23231361.858    12034465.803 2   9377490.285 1
  22168441.106   -13390715.940 3 -10434267.602 2
  24706103.928    -3136038.837 2  -2443648.047 1
 91  4 12 23 23 45.0020000  0  5 02 13 19 06 15
  21524159.243   -12050578.946 4  -9390012.169 4
  24368658.126    -2280499.868 2  -1777014.727 1
  23238758.639    12073314.164 2   9407761.647 1
  22164408.308   -13411911.553 3 -10450783.621 2
  24702945.910    -3152607.333 2  -2456558.449 1
 91  4 12 23 24  0.0020000  0  5 02 13 19 06 15
  21524798.392   -12047216.564 4  -9387392.113 4
  24358457.095    -2334066.987 2  -1818755.481 1
  23246162.016    12112227.747 2   9438083.835 1
  22160379.995   -13433072.607 3 -10467272.711 2
  24699816.667    -3169081.200 2  -2469395.119 1
 91  4 12 23 24 15.0020000  0  5 02 13 19 06 15
  21525446.842   -12043798.660 4  -9384728.791 4
  24348279.744    -2387592.524 2  -1860463.477 1
  23253580.086    12151210.396 2   9468459.840 2
  22156361.576   -13454195.150 3 -10483731.804 3
  24696702.135    -3185456.220 2  -2482154.761 1
 91  4 12 23 24 30.0020000  0  5 02 13 19 06 15
  21526107.577   -12040331.253 4  -9382026.904 4
  24338097.281    -2441081.850 2  -1902143.690 1
  23261012.832    12190256.289 2   9498885.118 1
  22152347.642   -13475284.770 3 -10500165.238 2
  24693595.978    -3201737.997 2  -2494841.742 1
 91  4 12 23 24 45.0020000  0  5 02 13 19 06 15
  21526778.521   -12036808.865 4  -9379282.173 4
  24327922.635    -2494528.863 2  -1943790.930 1
  23268456.990    12229371.184 2   9529364.184 2
  22148343.917   -13496335.547 3 -10516568.405 2
  24690516.503    -3217920.420 2  -2507451.306 1
 91  4 12 23 25  0.0020000  0  5 02 13 19 06 15
  21527460.842   -12033222.262 4  -9376487.406 4
  24317762.664    -2547924.001 2  -1985397.316 1
  23275912.526    12268564.216 2   9559904.100 2
  22144344.990   -13517338.058 3 -10532933.969 2
  24687460.429    -3233994.178 2  -2519976.227 1
 91  4 12 23 25 15.0020000  0  5 02 13 19 06 15
  21528149.480   -12029588.288 4  -9373655.718 4
  24307609.586    -2601283.565 2  -2026976.353 1
  23283383.645    12307818.396 2   9590491.685 1
  22140356.551   -13538308.959 3 -10549274.890 3
  24684416.030    -3249975.803 2  -2532429.341 1
 91  4 12 23 25 30.0020000  0  5 02 13 19 06 15
  21528854.887   -12025897.180 4  -9370779.519 4
  24297467.607    -2654597.363 2  -2068519.803 1
  23290876.070    12347143.685 2   9621134.673 2
  22136370.816   -13559237.996 3 -10565583.181 2
  24681395.624    -3265855.052 2  -2544802.659 1
 91  4 12 23 25 45.0020000  0  5 02 13 19 06 15
  21529568.688   -12022151.395 4  -9367860.705 4
  24287333.131    -2707867.505 2  -2110029.253 1
  23298360.678    12386537.736 2   9651831.239 2
  22132399.164   -13580127.383 3 -10581860.588 2
  24678393.506    -3281633.939 2  -2557097.818 1
 91  4 12 23 26  0.0020000  0  5 02 13 19 06 15
  21530287.899   -12018356.013 4  -9364903.253 4
  24277194.450    -2761098.698 2  -2151508.338 1
  23305874.672    12425995.301 2   9682577.319 2
  22128428.402   -13600982.035 3 -10598110.925 2
  24675415.958    -3297317.186 2  -2569318.406 1
 91  4 12 23 26 15.0020000  0  5 02 13 19 06 15
  21531019.377   -12014512.487 4  -9361908.287 4
  24267071.963    -2814291.710 2  -2192957.656 1
  23313393.779    12465515.040 2   9713371.838 2
  22124467.255   -13621802.981 3 -10614334.992 3
  24672440.521    -3312905.618 2  -2581465.138 1
 91  4 12 23 26 30.0020000  0  5 02 13 19 06 15
  21531763.472   -12010616.984 4  -9358872.810 4
  24256961.760    -2867442.373 2  -2234373.970 1
  23320929.359    12505100.635 2   9744217.673 1
  22120512.093   -13642586.187 3 -10630529.658 3
  24669498.659    -3328395.242 2  -2593534.881 1
 91  4 12 23 26 45.0020000  0  5 02 13 19 06 15
  21532510.254   -12006675.025 4  -9355801.140 4
  24246847.649    -2920555.903 2  -2275760.911 1
  23328468.533    12544746.817 2   9775110.716 1
  22116563.824   -13663336.977 3 -10646699.070 2
  24666565.486    -3343791.293 2  -2605531.687 1
 91  4 12 23 27  0.0020000  0  5 02 13 19 06 15
  21533273.230   -12002683.896 4  -9352691.162 4
  24236756.345    -2973629.036 2  -2317116.847 1
  23336034.407    12584456.221 2   9806053.019 2
  22112620.651   -13684052.362 3 -10662840.876 3
  24663650.602    -3359090.583 2  -2617453.117 1
 91  4 12 23 27 15.0020000  0  5 02 13 19 06 15
  21534043.395   -11998634.758 4  -9349535.982 4
  24226666.228    -3026652.448 2  -2358434.012 1
  23343595.464    12624237.829 2   9837051.597 2
  22108686.779   -13704723.137 3 -10678947.931 3
  24660763.306    -3374284.026 2  -2629291.961 1
 91  4 12 23 27 30.0020000  0  5 02 13 19 06 15
  21534820.157   -11994540.542 4  -9346345.664 4
  24216580.910    -3079638.655 2  -2399721.722 1
  23351176.013    12664078.637 2   9868096.285 1
  22104758.298   -13725361.883 3 -10695030.032 3
  24657892.798    -3389384.031 2  -2641058.185 1
 91  4 12 23 27 45.0020000  0  5 02 13 19 06 15
  21535609.814   -11990399.483 4  -9343118.852 4
  24206504.578    -3132585.341 2  -2440979.043 1
  23358771.552    12703980.440 2   9899188.521 1
  22100836.118   -13745966.576 3 -10711085.591 2
  24655032.480    -3404388.740 2  -2652750.034 1
 91  4 12 23 28  0.0020000  0  5 02 13 19 06 15
  21536409.348   -11986206.825 4  -9339851.838 4
  24196437.547    -3185487.350 2  -2482201.591 1
  23366383.895    12743947.900 2   9930331.915 1
  22096922.016   -13766532.215 3 -10727110.724 3
  24652206.330    -3419292.826 2  -2664363.501 1
 91  4 12 23 28 15.0020000  0  5 02 13 19 06 15
  21537216.089   -11981951.136 4  -9336535.703 4
  24186379.521    -3238332.787 2  -2523379.619 1
  23373999.816    12783992.802 2   9961535.664 1
  22093021.718   -13787046.932 3 -10743096.178 3
  24649383.478    -3434084.327 2  -2675889.292 1
 91  4 12 23 28 30.0020000  0  5 02 13 19 06 15
  21538036.930   -11977639.563 4  -9333176.020 4
  24176334.373    -3291128.178 2  -2564519.074 1
  23381634.024    12824107.908 2   9992794.084 1
  22089126.515   -13807517.558 3 -10759047.272 3
  24646588.529    -3448769.949 2  -2687332.516 1
 91  4 12 23 28 45.0020000  0  5 02 13 19 06 15
  21538865.257   -11973287.913 4  -9329785.120 4
  24166291.930    -3343889.030 2  -2605631.180 1
  23389276.941    12864277.683 2  10024095.122 1
  22085236.112   -13827959.612 3 -10774976.106 3
  24643810.350    -3463365.119 2  -2698705.288 2
 91  4 12 23 29  0.0020000  0  5 02 13 19 06 15
  21539702.571   -11968883.858 4  -9326353.374 4
  24156259.363    -3396602.514 2  -2646706.867 1
  23396930.641    12904514.280 2  10055448.219 1
  22081353.805   -13848360.502 3 -10790872.862 3
  24641054.350    -3477857.289 2  -2709997.789 1
 91  4 12 23 29 15.0020000  0  5 02 13 19 06 15
  21540553.077   -11964424.535 4  -9322878.566 4
  24146244.195    -3449265.505 2  -2687742.723 1
  23404605.334    12944820.414 2  10086855.504 1
  22077481.374   -13868717.179 3 -10806735.178 3
  24638315.154    -3492243.466 2  -2721207.681 1
 91  4 12 23 29 30.0020000  0  5 02 13 19 06 15
  21541407.195   -11959930.713 4  -9319376.868 4
  24136227.543    -3501898.092 2  -2728755.338 1
  23412286.902    12985175.501 2  10118300.921 1
  22073611.649   -13889050.091 3 -10822578.955 3
  24635598.138    -3506543.948 2  -2732350.818 1
 91  4 12 23 29 45.0020000  0  5 02 13 19 06 15
  21542274.192   -11955377.745 4  -9315829.092 4
  24126218.674    -3554475.436 2  -2769724.890 1
  23419973.287    13025603.964 2  10149803.518 1
  22069748.537   -13909334.335 3 -10838384.815 3
  24632892.203    -3520733.731 2  -2743407.700 1
 91  4 12 23 30  0.0020000  0  5 02 13 19 06 15
  21543151.083   -11950769.752 4  -9312238.438 4
  24116227.779    -3607001.029 2  -2810653.695 1
  23427689.040    13066101.882 2  10181360.281 1
  22065897.990   -13929573.698 3 -10854155.715 3
  24630217.451    -3534816.425 2  -2754381.099 1
 91  4 12 23 30 15.0020000  0  5 02 13 19 06 15
  21544036.367   -11946111.024 4  -9308608.246 4
  24106234.493    -3659478.725 2  -2851545.637 1
  23435400.606    13106665.222 2  10212967.988 1
  22062053.166   -13949772.021 3 -10869894.626 3
  24627555.891    -3548795.786 2  -2765274.014 1
 91  4 12 23 30 30.0020000  0  5 02 13 19 06 15
  21544933.954   -11941398.769 4  -9304936.347 4
  24096258.901    -3711905.604 2  -2892397.981 1
  23443137.648    13147296.290 2  10244628.487 1
  22058221.517   -13969926.467 3 -10885599.351 3
  24624921.327    -3562669.045 2  -2776084.296 1
 91  4 12 23 30 45.0020000  0  5 02 13 19 06 15
  21545836.933   -11936646.888 4  -9301233.573 4
  24086292.314    -3764294.964 2  -2933220.613 1
  23450876.192    13187981.366 2  10276331.062 1
  22054390.164   -13990050.512 3 -10901280.393 3
  24622290.340    -3576449.593 2  -2786822.282 1
 91  4 12 23 31  0.0020000  0  5 02 13 19 06 15
  21546749.196   -11931846.036 4  -9297492.639 4
  24076334.696    -3816636.936 2  -2974006.797 1
  23458634.820    13228730.003 2  10308083.147 1
  22050570.207   -14010134.580 3 -10916930.287 3
  24619687.850    -3590127.782 2  -2797480.462 1
 91  4 12 23 31 15.0020000  0  5 02 13 19 06 15
  21547677.949   -11926988.774 4  -9293707.748 4
  24066372.890    -3868923.653 2  -3014749.452 1
  23466399.452    13269549.630 2  10339890.543 1
  22046755.956   -14030170.895 3 -10932542.953 3
  24617105.741    -3603695.917 2  -2808052.986 1
 91  4 12 23 31 30.0020000  0  5 02 13 19 06 15
  21548611.204   -11922079.519 4  -9289882.345 4
  24056444.065    -3921158.978 2  -3055452.512 1
  23474176.665    13310435.750 2  10371749.765 1
  22042948.877   -14050163.432 3 -10948121.516 3
  24614545.497    -3617157.875 2  -2818542.683 1
 91  4 12 23 31 45.0020000  0  5 02 13 19 06 15
  21549555.854   -11917120.288 4  -9286017.992 4
  24046507.144    -3973344.653 2  -3096116.484 1
  23481976.074    13351386.289 2  10403659.159 1
  22039153.507   -14070114.105 3 -10963667.465 3
  24612009.562    -3630515.471 2  -2828951.133 1
 91  4 12 23 32  0.0020000  0  5 02 13 19 06 15
  21550502.301   -11912119.143 4  -9282120.987 4
  24036586.119    -4025488.118 2  -3136747.977 1
  23489774.873    13392393.430 2  10435612.693 1
  22035365.326   -14090030.514 3 -10979186.712 3
  24609474.813    -3643776.283 2  -2839284.137 1
 91  4 12 23 32 15.0020000  0  5 02 13 19 06 15
  21551467.037   -11907062.261 4  -9278180.544 4
  24026670.783    -4077575.058 2  -3177334.980 1
  23497590.459    13433470.855 2  10467620.979 1
  22031587.354   -14109898.613 3 -10994668.315 3
  24606976.047    -3656926.137 2  -2849530.741 1
 91  4 12 23 32 30.0020000  0  5 02 13 19 06 15
  21552438.665   -11901955.667 4  -9274201.366 4
  24016768.640    -4129611.257 2  -3217882.447 1
  23505420.442    13474612.445 2  10499679.262 1
  22027813.256   -14129724.242 3 -11010116.824 3
  24604487.174    -3669970.743 2  -2859695.284 1
 91  4 12 23 32 45.0020000  0  5 02 13 19 06 15
  21553421.077   -11896799.891 4  -9270183.871 4
  24006883.580    -4181596.629 2  -3258390.778 1
  23513260.912    13515817.891 2  10531787.319 1
  22024046.068   -14149507.588 3 -11025532.393 3
  24602033.674    -3682909.993 2  -2869777.707 1
 91  4 12 23 33  0.0020000  0  5 02 13 19 06 15
  21554414.588   -11891586.425 4  -9266121.421 4
  23997001.522    -4233522.351 2  -3298852.619 1
  23521115.779    13557095.626 2  10563951.697 1
  22020286.680   -14169239.791 3 -11040908.098 3
  24599591.551    -3695735.251 2  -2879771.360 1
 91  4 12 23 33 15.0020000  0  5 02 13 19 06 15
  21555413.805   -11886323.355 4  -9262020.313 4
  23987128.154    -4285396.229 2  -3339273.604 1
  23528987.729    13598437.605 2  10596166.101 1
  22016542.858   -14188928.715 3 -11056250.094 3
  24597168.937    -3708454.616 2  -2889682.442 1
 91  4 12 23 33 30.0020000  0  5 02 13 19 06 15
  21556422.305   -11881028.579 4  -9257894.498 4
  23977262.882    -4337235.551 2  -3379667.639 1
  23536857.271    13639825.929 2  10628416.656 2
  22012805.650   -14208591.932 3 -11071572.047 3
  24594762.796    -3721085.164 2  -2899524.333 1
 91  4 12 23 33 45.0020000  0  5 02 13 19 06 15
  21557436.791   -11875689.196 4  -9253733.929 4
  23967401.206    -4389027.013 2  -3420024.373 1
  23544746.619    13681273.544 2  10660713.391 2
  22009069.942   -14228216.260 3 -11086863.702 3
  24592384.838    -3733613.715 2  -2909286.824 1
 91  4 12 23 34  0.0020000  0  5 02 13 19 06 15
  21558462.393   -11870290.891 4  -9249527.435 4
  23957560.819    -4440755.613 2  -3460332.164 1
  23552654.238    13722794.835 2  10693067.538 1
  22005343.221   -14247786.792 3 -11102113.429 3
  24590022.776    -3746025.653 2  -2918958.321 1
 91  4 12 23 34 15.0020000  0  5 02 13 19 06 15
  21559501.466   -11864841.017 4  -9245280.770 4
  23947726.731    -4492428.395 2  -3500596.433 1
  23560559.465    13764382.186 2  10725473.164 1
  22001629.082   -14267310.988 3 -11117327.056 3
  24587679.910    -3758328.099 2  -2928544.537 1
 91  4 12 23 34 30.0020000  0  5 02 13 19 06 15
  21560549.840   -11859341.921 4  -9240995.751 4
  23937901.334    -4544047.356 2  -3540818.761 1
  23568487.169    13806033.462 2  10757928.609 1
  21997918.852   -14286790.804 3 -11132506.107 3
  24585355.907    -3770523.252 2  -2938047.136 1
 91  4 12 23 34 45.0020000  0  5 02 13 19 06 15
  21561600.622   -11853797.351 4  -9236675.291 4
  23928090.333    -4595615.904 2  -3581001.823 1
  23576427.472    13847744.695 2  10790430.769 2
  21994223.314   -14306229.628 3 -11147653.213 3
  24583058.307    -3782614.317 2  -2947468.669 1
 91  4 12 23 35  0.0020000  0  5 02 13 19 06 15
  21562668.768   -11848209.913 4  -9232321.435 4
  23918290.116    -4647136.049 2  -3621147.152 1
  23584367.775    13889513.578 2  10822977.832 1
  21990532.279   -14325629.732 3 -11162770.142 3
  24580773.288    -3794603.483 2  -2956810.832 1
 91  4 12 23 35 15.0020000  0  5 02 13 19 06 15
  21563736.634   -11842588.678 4  -9227941.238 4
  23908485.693    -4698616.528 2  -3661261.572 1
  23592337.167    13931330.977 2  10855562.726 2
  21986847.229   -14344999.682 3 -11177863.577 3
  24578510.745    -3806499.363 2  -2966080.253 1
 91  4 12 23 35 30.0020000  0  5 02 13 19 06 15
  21564820.990   -11836898.285 4  -9223507.146 4
  23898704.969    -4750021.394 2  -3701317.083 1
  23600311.951    13973232.356 2  10888213.027 2
  21983172.667   -14364303.922 3 -11192905.814 3
  24576276.699    -3818266.419 2  -2975249.295 1
 91  4 12 23 35 45.0020000  0  5 02 13 19 06 15
  21565913.723   -11831150.059 4  -9219027.994 4
  23888930.840    -4801361.655 2  -3741322.710 1
  23608289.423    14015206.255 2  10920919.888 1
  21979507.999   -14383553.623 3 -11207905.544 3
  24574054.640    -3829915.648 2  -2984326.496 1
 91  4 12 23 36  0.0020000  0  5 02 13 19 06 15
  21567014.273   -11825360.146 4  -9214516.364 4
  23879181.595    -4852653.257 2  -3781289.944 1
  23616293.576    14057236.414 2  10953670.554 2
  21975852.336   -14402764.727 3 -11222875.202 3
  24571855.058    -3841462.766 2  -2993324.174 1
 91  4 12 23 36 15.0020000  0  5 02 13 19 06 15
  21568122.606   -11819535.531 4  -9209977.680 4
  23869425.440    -4903902.355 2  -3821224.074 1
  23624305.530    14099316.016 2  10986459.745 2
  21972203.268   -14421943.631 3 -11237819.760 3
  24569682.471    -3852914.372 2  -3002247.407 1
 91  4 12 23 36 30.0020000  0  5 02 13 19 06 15
  21569244.428   -11813638.911 4  -9205382.901 4
  23859688.184    -4955071.546 2  -3861095.926 1
  23632328.285    14141482.085 2  11019316.343 2
  21968567.673   -14441053.071 3 -11252710.193 3
  24567525.153    -3864233.228 2  -3011067.197 1
 91  4 12 23 36 45.0020000  0  5 02 13 19 06 15
  21570377.942   -11807691.154 4  -9200748.273 4
  23849962.916    -5006180.940 2  -3900921.213 1
  23640357.915    14183713.975 2  11052224.203 1
  21964941.395   -14460113.439 3 -11267562.380 3
  24565385.529    -3875439.665 2  -3019799.423 1
 91  4 12 23 37  0.0020000  0  5 02 13 19 06 15
  21571518.645   -11801692.560 4  -9196074.029 4
  23840247.245    -5057230.397 2  -3940700.250 1
  23648416.339    14226011.461 2  11085183.180 1
  21961325.291   -14479124.617 3 -11282376.242 3
  24563284.296    -3886533.565 2  -3028443.894 1
 91  4 12 23 37 15.0020000  0  5 02 13 19 06 15
  21572669.260   -11795647.142 4  -9191363.296 4
  23830545.360    -5108223.230 2  -3980434.687 1
  23656474.465    14268370.604 2  11118190.193 1
  21957712.486   -14498090.308 3 -11297154.664 3
  24561195.330    -3897518.611 2  -3037003.639 1
 91  4 12 23 37 30.0020000  0  5 02 13 19 06 15
  21573830.642   -11789545.966 4  -9186609.119 4
  23820853.073    -5159150.401 2  -4020118.441 1
  23664545.784    14310800.364 2  11151252.253 1
  21954114.390   -14517001.288 3 -11311890.447 3
  24559125.578    -3908385.505 2  -3045471.217 1
 91  4 12 23 37 45.0020000  0  5 02 13 19 06 15
  21575000.435   -11783396.744 4  -9181817.502 4
  23811177.870    -5210019.415 2  -4059756.854 1
  23672637.468    14353292.810 2  11184363.161 1
  21950524.374   -14535865.103 3 -11326589.486 3
  24557071.687    -3919141.535 2  -3053852.471 1
 91  4 12 23 38  0.0020000  0  5 02 13 19 06 15
  21576178.028   -11777202.974 4  -9176991.165 4
  23801505.668    -5260833.150 2  -4099351.774 1
  23680733.077    14395844.428 2  11217520.147 1
  21946944.549   -14554684.824 3 -11341254.166 3
  24555051.388    -3929789.962 2  -3062149.825 1
 91  4 12 23 38 15.0020000  0  5 02 13 19 06 15
  21577366.405   -11770961.532 4  -9172127.693 4
  23791843.343    -5311588.131 2  -4138900.870 1
  23688833.154    14438458.270 2  11250725.650 1
  21943368.930   -14573457.142 3 -11355881.903 3
  24553042.484    -3940327.428 2  -3070360.704 1
 91  4 12 23 38 30.0020000  0  5 02 13 19 06 15
  21578565.270   -11764668.502 4  -9167224.026 4
  23782195.728    -5362280.128 2  -4178400.906 1
  23696958.429    14481138.350 2  11283982.744 1
  21939807.393   -14592177.800 3 -11370469.388 3
  24551067.154    -3950749.715 2  -3078481.931 1
 91  4 12 23 38 45.0020000  0  5 02 13 19 06 15
  21579764.432   -11758350.852 4  -9162301.166 4
  23772557.100    -5412935.233 2  -4217872.646 1
  23705088.800    14523857.763 2  11317270.486 1
  21936250.358   -14610873.395 3 -11385037.339 3
  24549095.419    -3961083.400 2  -3086534.042 1
 91  4 12 23 39  0.0020000  0  5 02 13 19 06 15
  21580975.006   -11751990.424 4  -9157344.978 4
  23762928.663    -5463535.072 2  -4257300.882 1
  23713228.768    14566634.600 2  11350602.973 1
  21932703.200   -14629525.496 3 -11399571.401 3
  24547146.160    -3971309.981 2  -3094502.737 1
 91  4 12 23 39 15.0020000  0  5 02 13 19 06 15
  21582197.254   -11745570.917 4  -9152342.756 4
  23753312.826    -5514062.862 2  -4296672.973 1
  23721378.631    14609485.252 2  11383992.988 1
  21929162.952   -14648117.536 3 -11414058.661 3
  24545226.287    -3981412.891 2  -3102375.014 1
 91  4 12 23 39 30.0020000  0  5 02 13 19 06 15
  21583430.007   -11739094.216 4  -9147295.960 4
  23743713.461    -5564520.086 2  -4335990.522 1
  23729552.766    14652407.674 2  11417438.907 1
  21925637.101   -14666651.101 3 -11428500.367 3
  24543327.407    -3991393.694 2  -3110152.173 1
 91  4 12 23 39 45.0020000  0  5 02 13 19 06 15
  21584669.950   -11732568.986 4  -9142211.346 4
  23734128.213    -5614914.998 2  -4375259.054 1
  23737730.217    14695393.200 2  11450934.029 1
  21922122.034   -14685134.588 3 -11442903.043 3
  24541451.613    -4001260.633 2  -3117840.655 1
 91  4 12 23 40  0.0020000  0  5 02 13 19 06 15
  21585923.085   -11725990.701 4  -9137085.396 4
  23724547.136    -5665242.661 2  -4414475.194 1
  23745920.233    14738446.552 2  11484481.989 1
  21918613.563   -14703562.838 3 -11457262.678 3
  24539597.685    -4011009.205 2  -3125436.883 1
 91  4 12 23 40 15.0020000  0  5 02 13 19 06 15
  21587185.207   -11719356.727 4  -9131916.056 4
  23714981.957    -5715499.986 2  -4453636.962 1
  23754129.758    14781570.242 2  11518084.752 1
  21915117.673   -14721933.196 3 -11471577.204 3
  24537768.361    -4020636.248 2  -3132938.370 1
 91  4 12 23 40 30.0020000  0  5 02 13 19 06 15
  21588455.722   -11712685.111 4  -9126717.377 4
  23705435.361    -5765704.639 2  -4492757.286 1
  23762351.567    14824745.967 2  11551728.075 1
  21911629.601   -14740263.502 3 -11485860.511 3
  24535948.914    -4030159.536 2  -3140359.046 1
 91  4 12 23 40 45.0020000  0  5 02 13 19 06 15
  21589738.243   -11705951.908 4  -9121470.711 4
  23695889.673    -5815832.255 2  -4531817.552 1
  23770572.470    14867997.916 2  11585430.774 1
  21908154.705   -14758529.373 4 -11500093.604 3
  24534159.760    -4039554.565 2  -3147679.792 1
 91  4 12 23 41  0.0020000  0  5 02 13 19 06 15
  21591026.139   -11699176.551 4  -9116191.197 4
  23686361.977    -5865901.892 2  -4570833.101 1
  23778825.166    14911306.684 2  11619177.766 1
  21904689.091   -14776749.847 4 -11514291.340 3
  24532391.286    -4048840.612 2  -3154915.540 1
 91  4 12 23 41 15.0020000  0  5 02 13 19 06 15
  21592327.245   -11692349.392 4  -9110871.324 4
  23676850.160    -5915903.574 2  -4609795.238 1
  23787069.452    14954681.569 2  11652976.256 1
  21901229.795   -14794915.076 4 -11528446.029 3
  24530645.880    -4058007.942 2  -3162058.814 1
 91  4 12 23 41 30.0020000  0  5 02 13 19 06 15
  21593638.541   -11685466.484 4  -9105508.001 4
  23667343.735    -5965832.925 2  -4648701.471 1
  23795337.435    14998126.492 2  11686829.338 1
  21897782.784   -14813020.960 4 -11542554.466 3
  24528931.082    -4067052.163 2  -3169106.231 1
 91  4 12 23 41 45.0020000  0  5 02 13 19 06 15
  21594955.824   -11678529.669 4  -9100102.680 4
  23657857.412    -6015690.983 2  -4687551.658 1
  23803620.704    15041639.994 2  11720735.870 1
  21894348.651   -14831068.847 4 -11556617.712 3
  24527227.662    -4075974.704 2  -3176058.746 1
 91  4 12 23 42  0.0020000  0  5 02 13 19 06 15
  21596284.204   -11671546.413 4  -9094661.176 4
  23648382.171    -6065484.990 2  -4726351.950 1
  23811914.758    15085214.451 2  11754689.876 1
  21890923.522   -14849065.932 4 -11570641.381 3
  24525559.002    -4084782.966 2  -3182922.271 1
 91  4 12 23 42 15.0020000  0  5 02 13 19 06 15
  21597619.774   -11664524.676 4  -9089189.679 4
  23638911.728    -6115222.499 2  -4765108.262 1
  23820208.811    15128841.876 2  11788685.158 1
  21887506.787   -14867019.741 4 -11584631.319 3
  24523902.348    -4093484.641 2  -3189702.680 1
 91  4 12 23 42 30.0020000  0  5 02 13 19 06 15
  21598964.051   -11657463.396 4  -9083687.368 4
  23629459.260    -6164901.925 2  -4803819.267 1
  23828526.248    15172523.350 2  11822722.602 1
  21884097.555   -14884929.112 3 -11598586.633 3
  24522267.280    -4102078.119 2  -3196398.838 1
 91  4 12 23 42 45.0020000  0  5 02 13 19 06 15
  21600315.815   -11650363.703 4  -9078155.127 4
  23620019.704    -6214523.966 2  -4842485.566 1
  23836847.000    15216257.642 2  11856801.142 1
  21880697.607   -14902794.685 3 -11612507.833 3
  24520649.610    -4110563.990 2  -3203011.107 1
 91  4 12 23 43  0.0020000  0  5 02 13 19 06 15
  21601672.674   -11643222.755 4  -9072590.745 4
  23610592.433    -6264085.525 2  -4881105.167 1
  23845184.226    15260047.476 2  11890922.944 2
  21877310.555   -14920613.517 4 -11626392.597 3
  24519053.212    -4118939.681 2  -3209537.512 1
 91  4 12 23 43 15.0020000  0  5 02 13 19 06 15
  21603039.131   -11636045.576 4  -9066998.124 4
  23601169.647    -6313591.192 2  -4919680.774 1
  23853519.951    15303888.042 2  11925084.334 1
  21873925.300   -14938390.232 4 -11640244.537 3
  24517483.198    -4127209.832 2  -3215981.718 1
 91  4 12 23 43 30.0020000  0  5 02 13 19 06 15
  21604413.074   -11628825.556 4  -9061372.124 4
  23591756.459    -6363033.725 2  -4958207.209 1
  23861879.966    15347785.872 2  11959290.323 1
  21870552.627   -14956117.794 3 -11654058.197 3
  24515931.176    -4135367.220 2  -3222338.023 1
 91  4 12 23 43 45.0020000  0  5 02 13 19 06 15
  21605799.022   -11621544.544 4  -9055698.602 4
  23582365.467    -6412394.804 2  -4996670.144 1
  23870241.482    15391758.999 2  11993554.957 1
  21867191.366   -14973777.983 3 -11667819.351 3
  24514404.631    -4143393.572 2  -3228592.257 1
 91  4 12 23 44  0.0020000  0  5 02 13 19 06 15
  21607194.551   -11614218.959 4  -9049990.343 4
  23572985.853    -6461690.344 2  -5035082.056 1
  23878620.082    15435790.982 2  12027865.484 1
  21863839.685   -14991386.751 3 -11681540.431 3
  24512899.375    -4151305.343 2  -3234757.188 1
 91  4 12 23 44 15.0020000  0  5 02 13 19 06 15
  21608593.081   -11606853.615 4  -9044251.108 4
  23563614.353    -6510924.888 2  -5073446.406 1
  23887012.171    15479876.943 2  12062218.083 1
  21860500.289   -15008948.758 4 -11695225.081 3
  24511409.702    -4159106.808 2  -3240836.150 1
 91  4 12 23 44 30.0020000  0  5 02 13 19 06 15
  21610004.211   -11599433.698 4  -9038469.347 4
  23554262.328    -6560083.253 2  -5111751.401 1
  23895419.250    15524031.780 2  12096624.306 1
  21857168.990   -15026448.697 4 -11708861.368 3
  24509944.617    -4166782.765 2  -3246817.343 1
 91  4 12 23 44 45.0020000  0  5 02 13 19 06 15
  21611428.812   -11591955.736 4  -9032642.348 4
  23544919.900    -6609161.261 2  -5149993.814 1
  23903836.223    15568259.006 2  12131086.969 1
  21853850.901   -15043882.853 3 -11722446.401 3
  24508511.012    -4174329.376 2  -3252697.751 1
 91  4 12 23 45  0.0020000  0  5 02 13 19 06 15
  21612860.619   -11584433.913 4  -9026781.183 4
  23535595.742    -6658172.821 2  -5188184.417 1
  23912260.385    15612544.286 2  12165594.848 1
  21850544.189   -15061265.041 3 -11735990.920 3
  24507104.088    -4181760.444 2  -3258488.122 1
 91  4 12 23 45 15.0020000  0  5 02 13 19 06 15
  21614300.524   -11576862.348 4  -9020881.260 4
  23526280.886    -6707111.532 2  -5226318.245 1
  23920697.740    15656893.571 2  12200152.623 1
  21847244.371   -15078589.045 3 -11749490.111 3
  24505709.152    -4189069.884 2  -3264183.710 1
 91  4 12 23 45 30.0020000  0  5 02 13 19 06 15
  21615751.527   -11569245.828 4  -9014946.300 4
  23516984.928    -6755981.637 2  -5264398.637 1
  23929150.992    15701302.073 2  12234756.550 1
  21843959.245   -15095859.364 3 -11762947.485 3
  24504331.301    -4196262.375 2  -3269788.194 1
 91  4 12 23 45 45.0020000  0  5 02 13 19 06 15
  21617216.316   -11561553.507 4  -9008952.275 4
  23507700.051    -6804751.938 2  -5302401.275 1
  23937616.529    15745800.536 2  12269430.558 1
  21840693.908   -15113044.830 4 -11776338.725 3
  24502996.324    -4203306.691 2  -3275277.223 1
 91  4 12 23 46  0.0020000  0  5 02 13 19 06 15
  21618687.387   -11553810.337 4  -9002918.633 4
  23498432.572    -6853447.420 2  -5340345.593 1
  23946091.366    15790363.844 2  12304155.101 1
  21837431.555   -15130170.335 4 -11789683.241 3
  24501670.945    -4210227.601 2  -3280670.060 1
 91  4 12 23 46 15.0020000  0  5 02 13 19 06 15
  21620167.462   -11546031.350 4  -8996857.075 4
  23489184.271    -6902082.488 2  -5378242.829 1
  23954584.178    15834976.964 2  12338918.428 1
  21834181.208   -15147250.363 4 -11802992.332 3
  24500385.143    -4217039.875 2  -3285978.256 1
 91  4 12 23 46 30.0020000  0  5 02 13 19 06 15
  21621661.043   -11538188.873 4  -8990746.043 4
  23479938.674    -6950628.923 2  -5416071.007 1
  23963090.496    15879667.677 2  12373742.229 1
  21830945.553   -15164256.959 4 -11816244.206 3
  24499115.518    -4223715.269 2  -3291179.758 1
 91  4 12 23 46 45.0020000  0  5 02 13 19 06 15
  21623160.296   -11530298.982 4  -8984598.077 4
  23470718.555    -6999102.579 2  -5453842.489 1
  23971607.895    15924419.732 2  12408613.871 1
  21827719.182   -15181206.015 4 -11829451.226 3
  24497859.085    -4230269.942 2  -3296287.246 1
 91  4 12 23 47  0.0020000  0  5 02 13 19 06 15
  21624677.244   -11522348.087 4  -8978402.562 4
  23461512.536    -7047489.117 2  -5491546.066 1
  23980144.192    15969246.965 2  12443544.052 1
  21824510.506   -15198083.211 4 -11842602.263 3
  24496649.121    -4236689.900 2  -3301289.766 1
 91  4 12 23 47 15.0020000  0  5 02 13 19 06 15
  21626203.492   -11514331.709 4  -8972156.030 4
  23452314.596    -7095783.519 2  -5529177.900 1
  23988688.569    16014153.788 2  12478536.250 1
  21821311.428   -15214884.123 4 -11855693.859 3
  24495457.446    -4242970.504 2  -3306183.640 1
 91  4 12 23 47 30.0020000  0  5 02 13 19 06 15
  21627730.037   -11506295.662 4  -8965894.167 4
  23443136.148    -7144031.539 2  -5566773.539 1
  23997231.463    16059094.192 2  12513554.621 1
  21818118.038   -15231654.165 4 -11868761.389 3
  24494274.461    -4249157.052 2  -3311004.252 1
 91  4 12 23 47 45.0020000  0  5 02 13 19 06 15
  21629265.272   -11498221.395 4  -8959602.525 4
  23433971.503    -7192214.090 2  -5604318.193 1
  24005799.537    16104086.608 2  12548613.555 1
  21814938.434   -15248374.581 4 -11881790.253 3
  24493119.361    -4255230.815 2  -3315736.998 1
 91  4 12 23 48  0.0020000  0  5 02 13 19 06 15
  21630812.496   -11490095.909 4  -8953270.959 4
  23424815.234    -7240317.826 2  -5641801.410 1
  24014369.392    16149144.066 2  12583723.155 1
  21811766.036   -15265032.054 4 -11894770.073 3
  24491987.645    -4261178.692 2  -3320371.663 1
 91  4 12 23 48 15.0020000  0  5 02 13 19 06 15
  21632369.021   -11481917.428 4  -8946898.106 4
  23415677.567    -7288340.868 2  -5679221.800 1
  24022963.554    16194268.224 2  12618884.699 1
  21808611.316   -15281624.498 4 -11907699.225 3
  24490882.313    -4266998.664 2  -3324906.612 1
 91  4 12 23 48 30.0020000  0  5 02 13 19 06 15
  21633936.329   -11473691.200 4  -8940488.056 4
  23406552.185    -7336287.780 2  -5716582.834 1
  24031553.197    16239453.955 2  12654094.259 1
  21805463.192   -15298156.819 3 -11920581.526 3
  24489795.566    -4272695.419 2  -3329345.603 1
 91  4 12 23 48 45.0020000  0  5 02 13 19 06 15
  21635507.844   -11465430.047 4  -8934050.789 4
  23397439.385    -7384171.186 2  -5753894.361 1
  24040164.740    16284688.175 2  12689341.571 1
  21802328.854   -15314641.602 3 -11933426.778 3
  24488731.312    -4278282.038 2  -3333698.693 1
 91  4 12 23 49  0.0020000  0  5 02 13 19 06 15
  21637088.659   -11457126.191 4  -8927580.238 4
  23388340.981    -7431982.732 2  -5791149.949 1
  24048779.581    16329978.750 2  12724632.787 1
  21799201.129   -15331070.696 3 -11946228.642 3
  24487699.114    -4283750.166 2  -3337959.510 1
 91  4 12 23 49 15.0020000  0  5 02 13 19 06 15
  21638674.255   -11448775.935 4  -8921073.541 4
  23379261.475    -7479718.317 2  -5828346.343 1
  24057410.895    16375329.479 2  12759970.883 1
  21796086.876   -15347440.100 4 -11958983.985 3
  24486674.734    -4289095.713 2  -3342124.779 1
 91  4 12 23 49 30.0020000  0  5 02 13 19 06 15
  21640273.952   -11440375.765 4  -8914527.944 4
  23370186.455    -7527373.929 2  -5865480.343 1
  24066055.122    16420743.863 2  12795358.634 1
  21792984.035   -15363745.932 4 -11971689.797 3
  24485680.613    -4294314.987 2  -3346191.695 1
 91  4 12 23 49 45.0020000  0  5 02 13 19 06 15
  21641883.839   -11431922.831 4  -8907941.236 4
  23361132.427    -7574946.229 2  -5902549.516 1
  24074709.522    16466224.804 2  12830798.224 1
  21789893.462   -15379984.865 4 -11984343.477 3
  24484705.686    -4299404.860 2  -3350157.713 1
 91  4 12 23 50  0.0020000  0  5 02 13 19 06 15
  21643503.917   -11423405.988 4  -8901304.731 4
  23352099.670    -7622423.716 2  -5939544.767 1
  24083382.228    16511783.220 2  12866298.156 1
  21786819.397   -15396145.648 4 -11996936.267 3
  24483770.931    -4304353.787 2  -3354013.960 1
 91  4 12 23 50 15.0020000  0  5 02 13 19 06 15
  21645136.891   -11414834.029 4  -8894625.278 4
  23343077.716    -7669814.893 2  -5976472.741 1
  24092062.420    16557409.951 2  12901851.366 1
  21783754.912   -15412236.880 4 -12009474.862 3
  24482853.573    -4309170.641 2  -3357767.294 1
 91  4 12 23 50 30.0020000  0  5 02 13 19 06 15
  21646776.444   -11406214.657 4  -8887908.874 4
  23334080.052    -7717127.155 2  -6013339.265 1
  24100749.802    16603097.424 2  12937451.823 1
  21780706.027   -15428265.920 4 -12021964.993 3
  24481956.893    -4313862.968 2  -3361423.583 1
 91  4 12 23 50 45.0020000  0  5 02 13 19 06 15
  21648420.516   -11397557.349 4  -8881162.912 4
  23325089.578    -7764369.316 2  -6050151.145 1
  24109460.567    16648836.186 2  12973092.289 1
  21777666.130   -15444241.745 4 -12034413.661 3
  24481086.302    -4318439.566 2  -3364989.685 1
 91  4 12 23 51  0.0020000  0  5 02 13 19 06 15
  21650079.857   -11388848.440 4  -8874376.743 4
  23316117.095    -7811527.729 2  -6086897.795 1
  24118172.832    16694639.813 2  13008783.344 1
  21774636.126   -15460150.618 3 -12046810.153 4
  24480237.279    -4322886.844 2  -3368455.042 1
 91  4 12 23 51 15.0020000  0  5 02 13 19 06 15
  21651744.905   -11380092.251 4  -8867553.727 4
  23307155.396    -7858606.236 2  -6123582.169 1
  24126907.888    16740503.854 2  13044521.410 1
  21771622.317   -15475996.509 3 -12059157.579 3
  24479421.254    -4327208.887 2  -3371822.803 1
 91  4 12 23 51 30.0020000  0  5 02 13 19 06 15
  21653419.253   -11371291.927 4  -8860696.319 4
  23298215.283    -7905607.360 2  -6160206.253 1
  24135645.945    16786425.354 2  13080304.287 1
  21768618.994   -15491781.974 4 -12071457.897 3
  24478618.405    -4331408.254 2  -3375094.987 1
 91  4 12 23 51 45.0020000  0  5 02 13 19 06 15
  21655102.588   -11362438.052 4  -8853797.187 4
  23289282.673    -7952521.494 2  -6196762.504 1
  24144388.190    16832413.577 2  13116139.121 1
  21765629.475   -15507497.489 4 -12083703.734 4
  24477849.443    -4335475.404 2  -3378264.097 1
 91  4 12 23 52  0.0020000  0  5 02 13 19 06 15
  21656794.910   -11353549.858 4  -8846871.315 4
  23280371.039    -7999366.998 2  -6233265.336 1
  24153158.617    16878449.288 2  13152011.018 1
  21762649.240   -15523161.875 4 -12095909.721 4
  24477090.656    -4339429.403 2  -3381345.106 1
 91  4 12 23 52 15.0020000  0  5 02 13 19 06 15
  21658498.331   -11344610.781 4  -8839905.792 4
  23271470.800    -8046127.196 2  -6269701.662 1
  24161931.138    16924548.925 2  13187932.666 1
  21759678.585   -15538758.315 4 -12108062.759 3
  24476361.568    -4343253.424 2  -3384324.776 1
 91  4 12 23 52 30.0020000  0  5 02 13 19 06 15
  21660206.254   -11335623.312 4  -8832902.557 4
  23262586.144    -8092804.149 2  -6306073.132 1
  24170716.258    16970710.084 2  13223902.268 1
  21756722.640   -15554289.062 4 -12120164.611 3
  24475668.445    -4346949.706 2  -3387204.930 1
 91  4 12 23 52 45.0020000  0  5 02 13 19 06 15
  21661927.054   -11326590.913 4  -8825864.309 4
  23253715.290    -8139400.942 2  -6342382.141 1
  24179517.869    17016929.030 2  13259916.899 1
  21753779.574   -15569757.211 4 -12132217.685 3
  24474988.812    -4350521.441 2  -3389988.008 1
 91  4 12 23 53  0.0020000  0  5 02 13 19 06 15
  21663655.970   -11317515.567 4  -8818792.606 4
  23244873.509    -8185919.173 2  -6378629.944 1
  24188311.086    17063203.783 2  13295975.058 1
  21750848.199   -15585164.565 4 -12144223.394 4
  24474331.078    -4353970.778 2  -3392675.789 1
 91  4 12 23 53 15.0020000  0  5 02 13 19 06 15
  21665389.963   -11308396.328 4  -8811686.690 4
  23236032.322    -8232357.540 2  -6414815.507 1
  24197127.669    17109535.275 2  13332077.417 1
  21747927.015   -15600509.793 4 -12156180.682 4
  24473695.506    -4357296.444 2  -3395267.153 1
 91  4 12 23 53 30.0020000  0  5 02 13 19 06 15
  21667132.053   -11299235.159 4  -8804548.106 4
  23227207.031    -8278717.713 2  -6450940.150 1
  24205964.965    17155921.549 2  13368222.415 1
  21745017.243   -15615794.456 3 -12168090.766 3
  24473083.039    -4360499.901 2  -3397763.274 1
 91  4 12 23 53 45.0020000  0  5 02 13 19 06 15
  21668886.446   -11290025.988 4  -8797372.123 4
  23218402.140    -8324993.125 2  -6486998.757 1
  24214790.552    17202368.556 2  13404414.743 1
  21742123.038   -15631012.401 4 -12179948.883 4
  24472502.644    -4363574.946 2  -3400159.346 1
 91  4 12 23 54  0.0020000  0  5 02 13 19 06 15
  21670645.323   -11280773.095 4  -8790162.060 4
  23209613.425    -8371187.650 2  -6522994.300 1
  24223652.715    17248872.156 2  13440651.194 1
  21739241.431   -15646167.323 4 -12191757.883 3
  24471937.537    -4366525.290 2  -3402458.253 1
 91  4 12 23 54 15.0020000  0  5 02 13 19 06 15
  21672415.595   -11271473.778 4  -8782915.821 4
  23200841.497    -8417298.527 2  -6558924.688 1
  24232507.985    17295434.765 2  13476933.613 1
  21736368.828   -15661256.280 3 -12203515.471 3
  24471403.595    -4369348.390 2  -3404657.986 1
 91  4 12 23 54 30.0020000  0  5 02 13 19 06 15
  21674192.167   -11262128.948 4  -8775634.132 4
  23192079.464    -8463326.092 2  -6594790.150 1
  24241373.149    17342055.382 2  13513261.237 1
  21733509.697   -15676280.053 4 -12215222.278 4
  24470888.255    -4372044.962 2  -3406759.138 1
 91  4 12 23 54 45.0020000  0  5 02 13 19 06 15
  21675979.226   -11252739.475 4  -8768317.646 4
  23183337.515    -8509270.756 3  -6630591.021 1
  24250266.182    17388733.063 2  13549633.324 1
  21730660.775   -15691238.942 3 -12226878.528 4
  24470392.704    -4374615.614 2  -3408762.198 1
 91  4 12 23 55  0.0020000  0  5 02 13 19 06 15
  21677774.086   -11243305.220 4  -8760966.261 4
  23174604.554    -8555131.832 2  -6666326.746 1
  24259161.640    17435467.961 2  13586050.008 1
  21727825.935   -15706132.680 3 -12238484.007 4
  24469937.323    -4377059.975 2  -3410666.825 1
 91  4 12 23 55 15.0020000  0  5 02 13 19 06 15
  21679577.636   -11233834.226 4  -8753586.257 4
  23165904.573    -8600917.272 3  -6702003.530 1
  24268058.581    17482251.860 2  13622504.877 1
  21725004.287   -15720969.118 3 -12250044.839 4
  24469496.914    -4379385.777 2  -3412479.091 1
 91  4 12 23 55 30.0020000  0  5 02 13 19 06 15
  21681387.782   -11224321.676 4  -8746173.871 4
  23157198.311    -8646621.724 3  -6737617.232 1
  24276974.700    17529089.651 2  13659001.676 1
  21722194.941   -15735742.930 4 -12261556.868 4
  24469075.404    -4381587.848 2  -3414194.928 1
 91  4 12 23 55 45.0020000  0  5 02 13 19 06 15
  21683205.728   -11214759.586 4  -8738722.871 4
  23148521.417    -8692236.919 3  -6773161.351 1
  24285887.224    17575989.116 2  13695546.618 1
  21719394.879   -15750445.957 4 -12273013.746 4
  24468678.778    -4383658.188 2  -3415808.105 1
 91  4 12 23 56  0.0020000  0  5 02 13 19 06 15
  21685037.460   -11205148.509 4  -8731233.701 4
  23139856.511    -8737763.007 3  -6808636.053 1
  24294830.635    17622949.572 2  13732139.030 1
  21716608.306   -15765078.300 3 -12284415.536 3
  24468308.834    -4385597.270 2  -3417319.032 1
 91  4 12 23 56 15.0020000  0  5 02 13 19 06 15
  21686871.896   -11195498.294 4  -8723714.044 4
  23131204.205    -8783209.229 3  -6844048.539 1
  24303770.748    17669961.352 2  13768771.466 1
  21713840.021   -15779649.525 4 -12295769.702 3
  24467964.977    -4387414.665 2  -3418735.127 1
 91  4 12 23 56 30.0020000  0  5 02 13 19 06 15
  21688717.414   -11185802.973 4  -8716159.241 4
  23122576.765    -8828569.346 2  -6879393.917 1
  24312731.539    17717030.255 2  13805448.398 1
  21711079.240   -15794153.528 4 -12307071.488 4
  24467642.410    -4389104.183 2  -3420051.575 1
 91  4 12 23 56 45.0020000  0  5 02 13 19 06 15
  21690568.934   -11176070.263 4  -8708575.289 4
  23113961.330    -8873850.737 2  -6914677.941 1
  24321698.631    17764148.609 2  13842163.820 1
  21708330.132   -15808597.564 4 -12318326.558 3
  24467339.910    -4390673.365 2  -3421274.248 1
 91  4 12 23 57  0.0020000  0  5 02 13 19 06 15
  21692430.942   -11166296.518 4  -8700959.373 4
  23105356.401    -8919049.450 2  -6949897.549 1
  24330676.523    17811320.005 2  13878920.611 1
  21705593.624   -15822977.618 4 -12329531.748 3
  24467068.001    -4392118.210 2  -3422400.025 1
 91  4 12 23 57 15.0020000  0  5 02 13 19 06 15
  21694297.749   -11156487.482 4  -8693315.961 4
  23096769.446    -8964170.641 2  -6985056.771 1
  24339673.297    17858538.726 2  13915714.282 1
  21702871.809   -15837299.002 4 -12340691.243 4
  24466811.971    -4393444.031 2  -3423433.062 1
 91  4 12 23 57 30.0020000  0  5 02 13 19 06 15
  21696172.060   -11146631.655 4  -8685636.081 4
  23088202.279    -9009202.500 2  -7020146.357 1
  24348670.664    17905815.967 2  13952553.567 1
  21700156.293   -15851550.219 4 -12351796.052 3
  24466586.829    -4394639.471 2  -3424364.533 1
 91  4 12 23 57 45.0020000  0  5 02 13 19 06 15
  21698055.043   -11136733.307 4  -8677923.065 4
  23079647.397    -9054148.990 3  -7055169.407 1
  24357664.733    17953147.370 2  13989435.045 1
  21697455.157   -15865735.124 4 -12362849.188 3
  24466383.883    -4395708.673 2  -3425197.630 1
 91  4 12 23 58  0.0020000  0  5 02 13 19 06 15
  21699945.844   -11126794.586 4  -8670178.603 4
  23071109.895    -9099011.663 3  -7090127.153 1
  24366683.390    18000531.024 2  14026357.238 1
  21694772.919   -15879855.387 4 -12373851.956 3
  24466203.692    -4396653.215 2  -3425933.553 1
 91  4 12 23 58 15.0020000  0  5 02 13 19 06 15
  21701845.317   -11116822.177 4  -8662407.889 4
  23062587.994    -9143796.968 3  -7125024.643 1
  24375713.145    18047959.859 2  14063314.631 1
  21692092.775   -15893917.500 4 -12384809.417 4
  24466044.511    -4397479.612 2  -3426577.438 1
 91  4 12 23 58 30.0020000  0  5 02 13 19 06 15
  21703750.811   -11106800.404 4  -8654598.701 4
  23054087.993    -9188489.101 3  -7159849.505 1
  24384743.196    18095449.569 2  14100319.469 1
  21689434.217   -15907905.469 4 -12395709.100 3
  24465917.107    -4398172.126 2  -3427117.008 1
 91  4 12 23 58 45.0020000  0  5 02 13 19 06 15
  21705666.776   -11096732.003 4  -8646753.184 4
  23045596.368    -9233090.365 3  -7194603.590 1
  24393793.333    18142997.243 2  14137369.426 1
  21686785.256   -15921821.884 4 -12406553.024 4
  24465812.772    -4398733.380 2  -3427554.256 1
 91  4 12 23 59  0.0020000  0  5 02 13 19 06 15
  21707592.041   -11086613.729 4  -8638868.808 4
  23037125.125    -9277597.382 3  -7229284.242 1
  24402848.268    18190605.924 2  14174466.956 1
  21684149.767   -15935663.234 4 -12417338.462 4
  24465725.224    -4399159.955 2  -3427886.617 1
 91  4 12 23 59 15.0030000  0  5 02 13 19 06 15
  21709524.812   -11076460.056 4  -8630956.851 4
  23028675.488    -9322027.493 3  -7263904.954 1
  24411928.073    18238264.092 2  14211603.084 1
  21681527.788   -15949445.154 4 -12428077.590 4
  24465668.863    -4399466.787 2  -3428125.636 1
 91  4 12 23 59 30.0030000  0  5 02 13 19 06 15
  21711464.474   -11066271.725 4  -8623017.880 4
  23020236.319    -9366373.755 3  -7298460.306 1
  24420991.699    18285965.693 2  14248773.009 1
  21678914.199   -15963164.784 4 -12438768.181 3
  24465639.494    -4399653.336 2  -3428270.945 1
 91  4 12 23 59 45.0030000  0  5 02 13 19 06 15
  21713407.416   -11056041.465 4  -8615046.249 4
  23011813.046    -9410632.378 3  -7332947.388 1
  24430086.805    18333720.225 2  14285984.187 1
  21676319.195   -15976816.169 4 -12449405.600 3
  24465629.600    -4399712.391 2  -3428316.891 1
 91  4 13  0  0  0.0030000  0  5 02 13 19 06 15
  21715365.069   -11045765.623 4  -8607039.097 4
  23003402.670    -9454799.423 3  -7367363.123 1
  24439184.912    18381531.338 2  14323239.472 1
  21673732.880   -15990395.560 4 -12459986.920 3
  24465637.697    -4399640.177 2  -3428260.537 1
 91  4 13  0  0 15.0030000  0  5 02 13 19 06 15
  21717327.799   -11035448.948 4  -8599000.127 4
  22995019.271    -9498879.180 3  -7401710.829 1
  24448296.805    18429394.146 2  14360535.024 1
  21671165.465   -16003907.432 4 -12470515.624 3
  24465670.364    -4399441.588 2  -3428105.756 1
 91  4 13  0  0 30.0030000  0  5 02 13 19 06 15
  21719297.440   -11025097.381 4  -8590933.970 4
  22986640.688    -9542877.205 2  -7435994.830 1
  24457416.184    18477302.813 2  14397866.299 1
  21668605.239   -16017357.147 4 -12480995.895 3
  24465733.621    -4399122.183 2  -3427856.823 1
 91  4 13  0  0 45.0030000  0  5 02 13 19 06 15
  21721275.178   -11014716.339 4  -8582844.843 4
  22978286.065    -9586798.379 3  -7470218.934 1
  24466538.268    18525251.831 2  14435229.049 1
  21666056.407   -16030749.964 4 -12491431.836 3
  24465820.558    -4398686.879 2  -3427517.554 1
 91  4 13  0  1  0.0030000  0  5 02 13 19 06 15
  21723257.994   -11004294.660 4  -8574724.060 4
  22969943.448    -9630631.164 3  -7504374.199 1
  24475671.153    18573252.227 2  14472631.816 1
  21663520.454   -16044074.376 4 -12501814.470 3
  24465922.502    -4398124.660 2  -3427079.427 1
 91  4 13  0  1 15.0030000  0  5 02 13 19 06 15
  21725251.315   -10993830.323 4  -8566570.025 4
  22961618.507    -9674373.127 2  -7538458.679 1
  24484814.212    18621306.051 2  14510076.207 1
  21660997.101   -16057327.891 4 -12512141.866 3
  24466048.405    -4397433.171 2  -3426540.541 1
 91  4 13  0  1 30.0030000  0  5 02 13 19 06 15
  21727246.137   -10983328.558 4  -8558386.826 4
  22953312.448    -9718029.203 3  -7572476.247 1
  24493967.183    18669407.672 2  14547557.880 1
  21658489.941   -16070515.743 4 -12522418.090 3
  24466214.200    -4396617.734 2  -3425905.051 1
 91  4 13  0  1 45.0030000  0  5 02 13 19 06 15
  21729256.541   -10972775.167 4  -8550163.404 4
  22945016.893    -9761585.012 2  -7606415.673 1
  24503135.126    18717571.359 2  14585087.882 1
  21655995.362   -16083623.219 4 -12532631.683 4
  24466384.182    -4395663.826 2  -3425161.705 1
 91  4 13  0  2  0.0030000  0  5 02 13 19 06 15
  21731273.246   -10962184.565 4  -8541910.988 4
  22936754.617    -9805054.628 3  -7640287.956 1
  24512305.181    18765782.624 2  14622654.936 1
  21653511.585   -16096664.636 4 -12542793.809 3
  24466601.228    -4394585.729 2  -3424321.597 1
 91  4 13  0  2 15.0030000  0  5 02 13 19 06 15
  21733292.358   -10951559.978 4  -8533632.083 4
  22928497.435    -9848440.977 3  -7674095.337 1
  24521485.723    18814038.234 2  14660256.593 1
  21651043.392   -16109642.725 4 -12552906.594 3
  24466824.870    -4393386.503 2  -3423387.067 1
 91  4 13  0  2 30.0030000  0  5 02 13 19 06 15
  21735324.052   -10940882.679 4  -8525312.110 4
  22920260.043    -9891724.655 3  -7707822.731 1
  24530690.556    18862356.938 2  14697907.391 1
  21648588.094   -16122538.395 4 -12562955.151 3
  24467082.697    -4392047.135 2  -3422343.328 1
 91  4 13  0  2 45.0030000  0  5 02 13 19 06 15
  21737371.626   -10930134.840 4  -8516937.169 4
  22912047.516    -9934887.532 3  -7741455.962 1
  24539891.183    18910756.439 2  14735621.171 1
  21646153.771   -16135333.460 4 -12572925.315 3
  24467357.294    -4390549.468 2  -3421176.271 1
 91  4 13  0  3  0.0030000  0  5 02 13 19 06 15
  21739426.110   -10919326.887 4  -8508515.390 4
  22903857.187    -9977939.772 3  -7775003.008 2
  24549126.292    18959226.005 2  14773389.496 1
  21643736.549   -16148038.272 4 -12582825.151 3
  24467673.876    -4388903.739 2  -3419893.851 1
 91  4 13  0  3 15.0030000  0  5 02 13 19 06 15
  21741488.376   -10908481.841 4  -8500064.711 4
  22895675.548   -10020904.301 3  -7808481.707 1
  24558361.698    19007742.532 2  14811194.465 1
  21641332.817   -16160675.608 4 -12592672.409 3
  24468009.042    -4387133.197 2  -3418514.151 1
 91  4 13  0  3 30.0030000  0  5 02 13 19 06 15
  21743563.242   -10897594.563 4  -8491581.115 4
  22887516.995   -10063775.442 3  -7841887.649 1
  24567588.116    19056311.093 2  14849040.005 1
  21638939.572   -16173239.977 4 -12602462.805 3
  24468381.098    -4385232.451 2  -3417032.964 1
 91  4 13  0  3 45.0030000  0  5 02 13 19 06 15
  21745641.406   -10886671.899 4  -8483069.947 4
  22879383.326   -10106559.809 3  -7875225.970 1
  24576839.402    19104924.816 2  14886920.656 1
  21636559.816   -16185737.845 4 -12612201.379 3
  24468766.032    -4383208.198 2  -3415455.592 1
 91  4 13  0  4  0.0030000  0  5 02 13 19 06 15
  21747727.370   -10875708.392 4  -8474526.956 4
  22871255.067   -10149251.367 3  -7908491.968 1
  24586097.894    19153589.111 2  14924840.757 1
  21634196.864   -16198163.523 4 -12621883.703 3
  24469171.052    -4381054.853 2  -3413777.662 1
 91  4 13  0  4 15.0030000  0  5 02 13 19 06 15
  21749824.712   -10864689.404 4  -8465940.722 4
  22863152.268   -10191835.016 3  -7941673.866 1
  24595378.879    19202318.637 2  14962811.709 1
  21631850.682   -16210501.980 4 -12631498.076 4
  24469601.846    -4378757.373 2  -3411987.331 1
 91  4 13  0  4 30.0030000  0  5 02 13 19 06 15
  21751928.650   -10853630.465 4  -8457323.366 4
  22855064.476   -10234326.448 3  -7974783.931 1
  24604662.238    19251097.517 2  15000821.036 1
  21629515.896   -16222768.564 4 -12641056.435 3
  24470066.231    -4376331.565 2  -3410097.057 1
 91  4 13  0  4 45.0030000  0  5 02 13 19 06 15
  21754039.498   -10842534.432 4  -8448677.109 4
  22846998.253   -10276727.895 3  -8007823.891 2
  24613941.130    19299922.850 2  15038866.614 1
  21627194.912   -16234965.778 4 -12650560.726 3
  24470554.296    -4373779.976 2  -3408108.750 1
 91  4 13  0  5  0.0030000  0  5 02 13 19 06 15
  21756156.331   -10831416.630 4  -8440013.875 4
  22838941.330   -10319054.073 3  -8040805.175 2
  24623247.278    19348779.421 2  15076936.495 1
  21624885.009   -16247108.541 4 -12660022.602 3
  24471064.540    -4371117.430 2  -3406033.978 1
 91  4 13  0  5 15.0030000  0  5 02 13 19 06 15
  21758278.260   -10820259.777 4  -8431320.208 4
  22830905.697   -10361287.847 3  -8073714.471 1
  24632553.131    19397684.243 2  15115044.059 1
  21622586.501   -16259179.345 4 -12669428.404 4
  24471591.572    -4368326.697 2  -3403859.317 1
 91  4 13  0  5 30.0030000  0  5 02 13 19 06 15
  21760409.787   -10809063.676 4  -8422595.971 4
  22822885.646   -10403428.441 3  -8106551.162 1
  24641872.192    19446637.324 2  15153189.155 1
  21620303.873   -16271177.701 4 -12678777.750 3
  24472147.989    -4365407.331 2  -3401584.466 1
 91  4 13  0  5 45.0030000  0  5 02 13 19 06 15
  21762547.002   -10797824.283 4  -8413837.996 4
  22814884.791   -10445471.649 3  -8139311.968 1
  24651194.535    19495642.618 2  15191374.988 1
  21618036.549   -16283099.252 4 -12688067.250 3
  24472731.385    -4362355.349 2  -3399206.238 1
 91  4 13  0  6  0.0030000  0  5 02 13 19 06 15
  21764695.316   -10786542.311 4  -8405046.842 4
  22806902.207   -10487417.484 3  -8171996.851 1
  24660533.368    19544699.474 2  15229600.937 1
  21615781.213   -16294944.478 4 -12697297.273 3
  24473328.863    -4359171.128 2  -3396725.007 1
 91  4 13  0  6 15.0030000  0  5 02 13 19 06 15
  21766852.617   -10775208.543 4  -8396215.330 4
  22798936.723   -10529256.508 3  -8204598.565 1
  24669883.003    19593816.989 2  15267874.121 1
  21613542.054   -16306703.846 4 -12706460.394 3
  24473975.219    -4355845.587 2  -3394133.614 1
 91  4 13  0  6 30.0030000  0  5 02 13 19 06 15
  21769015.030   -10763834.478 4  -8387352.409 4
  22790997.328   -10570999.670 3  -8237125.554 1
  24679237.419    19642983.469 2  15306185.541 1
  21611319.402   -16318388.518 4 -12715565.313 3
  24474622.779    -4352390.001 2  -3391440.905 1
 91  4 13  0  6 45.0030000  0  5 02 13 19 06 15
  21771188.228   -10752415.949 4  -8378454.846 4
  22783075.610   -10612642.825 3  -8269574.630 1
  24688591.538    19692203.006 2  15344538.330 1
  21609111.723   -16329994.118 4 -12724608.612 3
  24475314.995    -4348799.805 2  -3388643.297 1
 91  4 13  0  7  0.0030000  0  5 02 13 19 06 15
  21773374.007   -10740938.156 4  -8369511.103 4
  22775171.568   -10654170.788 3  -8301933.923 1
  24697986.142    19741490.247 2  15382943.825 1
  21606921.144   -16341505.490 4 -12733578.484 3
  24476020.995    -4345060.368 2  -3385729.411 1
 91  4 13  0  7 15.0030000  0  5 02 13 19 06 15
  21775562.788   -10729421.895 4  -8360537.381 4
  22767283.145   -10695604.011 3  -8334219.420 2
  24707366.350    19790824.319 2  15421385.763 1
  21604745.242   -16352943.195 4 -12742490.956 3
  24476754.288    -4341192.460 2  -3382715.393 1
 91  4 13  0  7 30.0030000  0  5 02 13 19 06 15
  21777765.669   -10717847.134 4  -8351518.076 4
  22759422.276   -10736922.183 3  -8366415.256 1
  24716770.237    19840225.155 2  15459879.773 1
  21602587.034   -16364286.748 4 -12751330.059 3
  24477522.971    -4337175.982 2  -3379585.609 1
 91  4 13  0  7 45.0030000  0  5 02 13 19 06 15
  21779972.144   -10706243.595 4  -8342476.353 4
  22751577.007   -10778154.474 3  -8398544.180 1
  24726180.127    19889662.965 2  15498402.658 1
  21600439.627   -16375565.508 4 -12760118.671 3
  24478307.218    -4333040.041 2  -3376362.764 1
 91  4 13  0  8  0.0030000  0  5 02 13 19 06 15
  21782187.606   -10694599.816 4  -8333403.260 4
  22743746.728   -10819289.302 3  -8430597.148 1
  24735607.695    19939149.226 2  15536963.191 1
  21598305.396   -16386767.847 4 -12768847.745 3
  24479115.460    -4328773.090 2  -3373037.841 1
 91  4 13  0  8 15.0030000  0  5 02 13 19 06 15
  21784411.759   -10682916.887 4  -8324299.669 4
  22735941.333   -10860327.471 3  -8462574.819 1
  24745022.384    19988682.715 2  15575560.575 1
  21596188.562   -16397894.586 4 -12777517.908 3
  24479956.072    -4324376.294 2  -3369611.703 1
 91  4 13  0  8 30.0030000  0  5 02 13 19 06 15
  21786645.823   -10671186.395 4  -8315159.021 4
  22728149.426   -10901260.008 3  -8494470.197 2
  24754463.144    20038271.592 2  15614201.134 1
  21594087.626   -16408936.973 4 -12786122.340 3
  24480818.584    -4319841.067 2  -3366077.747 1
 91  4 13  0  8 45.0030000  0  5 02 13 19 06 15
  21788886.169   -10659406.821 4  -8305980.121 4
  22720376.419   -10942085.043 3  -8526281.764 1
  24763895.213    20087917.177 2  15652885.833 1
  21592007.665   -16419893.332 4 -12794659.737 3
  24481711.965    -4315165.801 2  -3362434.604 1
 91  4 13  0  9  0.0030000  0  5 02 13 19 06 15
  21791134.909   -10647590.995 4  -8296772.981 4
  22712628.278   -10982815.438 3  -8558019.613 1
  24773359.653    20137606.684 2  15691604.808 1
  21589933.706   -16430776.133 4 -12803139.814 3
  24482621.226    -4310363.053 2  -3358692.179 1
 91  4 13  0  9 15.0030000  0  5 02 13 19 06 15
  21793392.653   -10635740.194 4  -8287538.572 4
  22704893.033   -11023452.081 3  -8589684.375 1
  24782823.517    20187338.627 2  15730356.833 1
  21587874.127   -16441586.384 4 -12811563.359 3
  24483554.185    -4305434.315 2  -3354851.560 1
 91  4 13  0  9 30.0030000  0  5 02 13 19 06 15
  21795654.288   -10623854.960 4  -8278277.347 4
  22697183.858   -11063994.930 3  -8621276.084 1
  24792289.161    20237112.726 2  15769141.676 1
  21585831.945   -16452324.143 3 -12819930.418 3
  24484518.623    -4300379.538 2  -3350912.741 1
 91  4 13  0  9 45.0030000  0  5 02 13 19 06 15
  21797920.705   -10611927.551 4  -8268983.255 4
  22689483.705   -11104435.811 3  -8652788.326 2
  24801778.781    20286936.357 2  15807965.122 1
  21583805.347   -16462981.540 3 -12828234.853 3
  24485507.335    -4295191.150 2  -3346869.780 1
 91  4 13  0 10  0.0030000  0  5 02 13 19 06 15
  21800203.037   -10599956.713 4  -8259655.319 4
  22681808.419   -11144773.175 3  -8684219.897 2
  24811264.213    20336810.785 2  15846828.127 1
  21581791.033   -16473556.850 4 -12836475.327 3
  24486523.025    -4289867.720 2  -3342721.588 1
 91  4 13  0 10 15.0030000  0  5 02 13 19 06 15
  21802484.461   -10587955.014 4  -8250303.339 4
  22674153.811   -11185019.464 3  -8715580.502 2
  24820761.651    20386723.091 2  15885720.730 1
  21579793.821   -16484062.505 3 -12844661.526 3
  24487562.709    -4284421.841 2  -3338478.011 1
 91  4 13  0 10 30.0030000  0  5 02 13 19 06 15
  21804777.559   -10575905.701 4  -8240914.256 4
  22666515.990   -11225157.648 3  -8746856.883 2
  24830272.561    20436689.843 2  15924655.714 1
  21577808.894   -16494481.479 4 -12852780.183 3
  24488622.182    -4278836.553 2  -3334125.830 1
 91  4 13  0 10 45.0030000  0  5 02 13 19 06 15
  21807081.180   -10563806.824 4  -8231486.551 4
  22658892.269   -11265185.400 3  -8778047.194 1
  24839796.663    20486713.047 2  15963634.685 1
  21575842.254   -16504811.471 4 -12860829.500 3
  24489716.415    -4273109.746 2  -3329663.331 1
 91  4 13  0 11  0.0030000  0  5 02 13 19 06 15
  21809389.878   -10551664.726 4  -8222025.165 4
  22651298.231   -11305108.730 3  -8809156.171 1
  24849326.471    20536786.225 2  16002652.593 1
  21573894.199   -16515058.555 4 -12868814.212 4
  24490833.456    -4267247.525 2  -3325095.345 1
 91  4 13  0 11 15.0030000  0  5 02 13 19 06 15
  21811709.675   -10539471.688 4  -8212524.089 4
  22643724.575   -11344919.613 3  -8840177.516 2
  24858864.970    20586917.123 2  16041715.480 1
  21571959.651   -16525214.743 3 -12876728.100 3
  24491969.360    -4261242.174 2  -3320415.801 1
 91  4 13  0 11 30.0030000  0  5 02 13 19 06 15
  21814038.163   -10527233.004 4  -8202987.438 4
  22636167.706   -11384622.993 3  -8871115.074 1
  24868419.348    20637100.305 2  16080819.147 1
  21570045.763   -16535284.899 3 -12884574.937 3
  24493139.450    -4255099.086 2  -3315628.957 2
 91  4 13  0 11 45.0030000  0  5 02 13 19 06 15
  21816376.230   -10514960.323 4  -8193424.300 4
  22628630.032   -11424230.320 3  -8901977.779 2
  24877963.849    20687323.913 2  16119954.208 1
  21568145.679   -16545280.485 3 -12892363.676 3
  24494333.219    -4248829.659 2  -3310743.657 1
 91  4 13  0 12  0.0030000  0  5 02 13 19 06 15
  21818720.911   -10502639.387 4  -8183823.562 4
  22621119.319   -11463726.906 3  -8932754.218 1
  24887538.609    20737602.169 1  16159131.972 1
  21566256.396   -16555186.921 3 -12900082.957 3
  24495553.984    -4242419.610 2  -3305748.752 1
 91  4 13  0 12 15.0030000  0  4 02 13 06 15
  21821072.485   -10490278.892 4  -8174192.003 4
  22613615.219   -11503121.157 3  -8963450.910 1
  21564386.291   -16565012.797 3 -12907739.453 3
  24496801.413    -4235877.670 2  -3300651.095 1
 91  4 13  0 12 30.0030000  0  4 02 13 06 15
  21823433.046   -10477871.789 4  -8164524.121 4
  22606142.599   -11542405.936 3  -8994062.309 1
  21562532.066   -16574750.795 3 -12915327.473 3
  24498068.648    -4229196.681 2  -3295445.086 1
 91  4 13  0 12 45.0030000  0  4 02 13 06 15
  21825801.407   -10465429.817 4  -8154829.067 4
  22598689.158   -11581592.588 3  -9024597.224 2
  21560695.849   -16584412.188 3 -12922855.814 3
  24499368.235    -4222388.052 2  -3290139.611 1
 91  4 13  0 13  0.0030000  0  4 02 13 06 15
  21828177.568   -10452946.446 4  -8145101.763 4
  22591251.910   -11620673.928 3  -9055050.091 1
  21558871.307   -16593990.024 3 -12930319.044 3
  24500687.925    -4215445.081 2  -3284729.459 1
 91  4 13  0 13 15.0030000  0  4 02 13 06 15
  21830559.418   -10440428.349 4  -8135347.396 4
  22583830.245   -11659656.588 3  -9085426.052 1
  21557065.349   -16603490.895 4 -12937722.301 3
  24502035.187    -4208374.240 2  -3279219.703 1
 91  4 13  0 13 30.0030000  0  4 02 13 06 15
  21832951.756   -10427853.647 4  -8125548.916 4
  22576435.261   -11698518.346 3  -9115707.799 1
  21555276.492   -16612892.494 3 -12945048.195 3
  24503406.739    -4201154.011 2  -3273593.515 1
 91  4 13  0 13 45.0030000  0  4 02 13 06 15
  21835354.005   -10415228.265 4  -8115710.951 4
  22569062.161   -11737264.804 3  -9145899.715 1
  21553505.923   -16622200.404 3 -12952301.088 3
  24504808.567    -4193790.051 2  -3267855.338 1
 91  4 13  0 14  0.0030000  0  4 02 13 06 15
  21837764.334   -10402566.683 4  -8105844.780 4
  22561707.348   -11775910.297 3  -9176012.951 2
  21551747.343   -16631429.207 3 -12959492.348 3
  24506235.594    -4186296.867 2  -3262016.449 1
 91  4 13  0 14 15.0030000  0  4 02 13 06 15
  21840182.463   -10389850.231 4  -8095935.844 4
  22554373.230   -11814435.783 3  -9206032.669 2
  21550010.034   -16640559.613 3 -12966606.925 3
  24507688.673    -4178655.378 2  -3256062.013 1
 91  4 13  0 14 30.0030000  0  4 02 13 06 15
  21842609.282   -10377096.101 4  -8085997.548 4
  22547065.795   -11852858.054 3  -9235971.972 1
  21548287.732   -16649608.622 3 -12973658.072 3
  24509169.063    -4170882.931 2  -3250005.509 1
 91  4 13  0 14 45.0030000  0  4 02 13 06 15
  21845046.589   -10364292.029 4  -8076020.343 4
  22539775.146   -11891164.492 3  -9265821.023 1
  21546586.406   -16658563.720 3 -12980636.042 4
  24510671.614    -4162967.231 2  -3243837.396 1
 91  4 13  0 15  0.0030000  0  4 02 13 06 15
  21847490.492   -10351442.355 4  -8066007.607 4
  22532502.175   -11929359.376 3  -9295583.132 2
  21544897.975   -16667429.024 3 -12987544.056 4
  24512202.661    -4154912.720 2  -3237561.125 1
 91  4 13  0 15 15.0030000  0  4 02 13 06 15
  21849946.697   -10338540.479 4  -8055954.188 4
  22525265.779   -11967435.932 3  -9325253.032 2
  21543232.038   -16676197.600 3 -12994376.697 3
  24513764.281    -4146712.588 2  -3231171.390 1
 91  4 13  0 15 30.0030000  0  4 02 13 06 15
  21852408.888   -10325597.489 4  -8045868.734 4
  22518037.480   -12005404.769 3  -9354839.021 2
  21541578.368   -16684880.206 3 -13001142.337 3
  24515351.675    -4138377.689 2  -3224676.617 1
 91  4 13  0 15 45.0030000  0  4 02 13 06 15
  21854881.584   -10312613.285 4  -8035751.171 4
  22510830.470   -12043265.233 3  -9384340.542 2
  21539944.207   -16693476.492 3 -13007840.725 3
  24516956.170    -4129907.933 2  -3218076.791 1
 91  4 13  0 16  0.0030000  0  4 02 13 06 15
  21857357.874   -10299587.572 4  -8025601.256 4
  22503645.343   -12081017.092 3  -9413757.434 2
  21538323.832   -16701985.875 4 -13014471.395 4
  24518603.226    -4121303.076 2  -3211371.671 1
 91  4 13  0 16 15.0030000  0  4 02 13 06 15
  21859844.653   -10286512.109 4  -8015412.575 4
  22496482.412   -12118651.489 3  -9443082.833 1
  21536723.839   -16710399.854 4 -13021027.725 4
  24520270.664    -4112554.746 2  -3204554.741 1
 91  4 13  0 16 30.0030000  0  4 02 13 06 15
  21862335.619   -10273412.281 4  -8005204.914 4
  22489339.846   -12156193.537 3  -9472336.250 1
  21535131.036   -16718743.387 4 -13027529.156 3
  24521952.202    -4103687.928 2  -3197645.540 1
 91  4 13  0 16 45.0030000  0  4 02 13 06 15
  21864839.481   -10260269.554 4  -7994963.830 4
  22482217.976   -12193624.549 3  -9501503.147 2
  21533561.022   -16726997.757 3 -13033961.117 4
  24523664.627    -4094684.369 2  -3190629.739 1
 91  4 13  0 17  0.0030000  0  4 02 13 06 15
  21867350.253   -10247092.658 4  -7984696.111 4
  22475113.207   -12230953.150 3  -9530590.222 2
  21532006.609   -16735171.498 3 -13040330.248 4
  24525404.309    -4085552.780 2  -3183514.172 1
 91  4 13  0 17 15.0030000  0  4 02 13 06 15
  21869866.103   -10233870.337 4  -7974393.003 4
  22468033.305   -12268167.633 3  -9559588.415 2
  21530468.669   -16743253.020 3 -13046627.519 4
  24527168.002    -4076281.564 2  -3176289.840 1
 91  4 13  0 17 30.0030000  0  4 02 13 06 15
  21872384.658   -10220621.173 4  -7964068.980 4
  22460969.893   -12305286.314 3  -9588511.943 2
  21528946.626   -16751260.743 4 -13052867.282 4
  24528961.047    -4066889.290 2  -3168971.174 1
 91  4 13  0 17 45.0030000  0  4 02 13 06 15
  21874915.219   -10207322.298 4  -7953706.215 4
  22453928.660   -12342286.016 3  -9617342.752 2
  21527442.557   -16759171.450 4 -13059031.449 4
  24530769.099    -4057353.225 2  -3161540.446 1
 91  4 13  0 18  0.0030000  0  4 02 13 06 15
  21877455.360   -10193981.475 4  -7943310.758 4
  22446906.937   -12379174.370 3  -9646086.811 2
  21525953.792   -16766992.457 3 -13065125.726 3
  24532613.133    -4047681.016 2  -3154003.610 1
 91  4 13  0 18 15.0030000  0  4 02 13 06 15
  21880001.190   -10180592.556 4  -7932877.831 4
  22439910.970   -12415944.903 3  -9674739.046 2
  21524479.405   -16774717.476 3 -13071145.206 3
  24534481.127    -4037866.376 2  -3146355.813 1
 91  4 13  0 18 30.0030000  0  4 02 13 06 15
  21882559.025   -10167164.546 4  -7922414.445 4
  22432933.309   -12452606.252 3  -9703306.206 2
  21523030.514   -16782355.152 4 -13077096.623 3
  24536370.724    -4027918.376 2  -3138604.114 1
 91  4 13  0 18 45.0030000  0  4 02 13 06 15
  21885119.251   -10153704.466 4  -7911926.075 4
  22425976.622   -12489165.036 3  -9731793.436 2
  21521588.812   -16789912.244 4 -13082985.250 4
  24538292.097    -4017844.109 2  -3130754.015 1
 91  4 13  0 19  0.0030000  0  4 02 13 06 15
  21887687.574   -10140209.414 4  -7901410.444 4
  22419040.318   -12525618.233 3  -9760198.422 2
  21520167.806   -16797385.574 4 -13088808.609 4
  24540233.556    -4007640.431 2  -3122803.088 2
 91  4 13  0 19 15.0030000  0  4 02 13 06 15
  21890264.884   -10126657.713 4  -7890850.673 4
  22412128.601   -12561944.008 3  -9788504.116 1
  21518767.775   -16804753.161 3 -13094549.572 4
  24542204.087    -3997285.617 2  -3114734.386 1
 91  4 13  0 19 30.0030000  0  4 02 13 06 15
  21892850.902   -10113069.415 4  -7880262.392 4
  22405233.077   -12598161.880 3  -9816725.685 1
  21517382.123   -16812034.844 4 -13100223.598 4
  24544195.907    -3986799.739 2  -3106563.549 1
 91  4 13  0 19 45.0030000  0  4 02 13 06 15
  21895445.296   -10099433.322 4  -7869636.868 4
  22398367.533   -12634260.397 3  -9844854.304 2
  21516017.167   -16819219.129 4 -13105821.721 4
  24546216.800    -3976171.424 2  -3098281.715 1
 91  4 13  0 20  0.0030000  0  4 02 13 06 15
  21898049.304   -10085760.948 4  -7858983.069 4
  22391516.683   -12670251.096 3  -9872898.885 1
  21514660.011   -16826317.433 4 -13111352.852 4
  24548262.593    -3965412.386 2  -3089898.009 1
 91  4 13  0 20 15.0030000  0  4 02 13 06 15
  21900655.686   -10072055.648 4  -7848303.614 4
  22384688.011   -12706136.846 3  -9900861.697 2
  21513327.425   -16833332.720 4 -13116819.305 4
  24550329.362    -3954525.692 2  -3081414.864 1
 91  4 13  0 20 30.0030000  0  4 02 13 06 15
  21903269.589   -10058333.113 4  -7837610.735 4
  22377878.814   -12741932.962 3  -9928754.645 2
  21512006.252   -16840280.464 4 -13122233.116 4
  24552430.909    -3943527.173 2  -3072844.563 1
 91  4 13  0 20 45.0030000  0  4 02 13 06 15
  21905886.773   -10044563.889 4  -7826881.475 4
  22371087.015   -12777609.995 3  -9956554.827 1
  21510702.144   -16847130.906 4 -13127571.105 4
  24554551.634    -3932387.396 2  -3064164.208 1
 91  4 13  0 21  0.0030000  0  4 02 13 06 15
  21908515.945   -10030744.903 4  -7816113.432 4
  22364322.194   -12813164.549 3  -9984259.551 2
  21509419.937   -16853880.759 4 -13132830.720 4
  24556698.151    -3921103.180 2  -3055371.294 1
 91  4 13  0 21 15.0030000  0  4 02 13 06 15
  21911160.124   -10016854.884 4  -7805290.044 4
  22357583.460   -12848574.969 3 -10011851.969 2
  21508155.111   -16860508.353 4 -13137995.066 4
  24558868.347    -3909653.248 2  -3046449.238 1
 91  4 13  0 21 30.0030000  0  4 02 13 06 15
  21913810.882   -10002918.058 4  -7794430.185 4
  22350866.017   -12883865.374 3 -10039350.874 2
  21506914.871   -16867037.611 4 -13143082.792 4
  24561079.325    -3898061.585 2  -3037416.747 1
 91  4 13  0 21 45.0030000  0  4 02 13 06 15
  21916473.349    -9988933.465 4  -7783533.113 4
  22344174.643   -12919034.759 3 -10066755.478 2
  21505690.826   -16873467.442 3 -13148093.034 4
  24563312.778    -3886327.502 2  -3028273.294 1
 91  4 13  0 22  0.0030000  0  4 02 13 06 15
  21919140.301    -9974916.586 4  -7772610.870 4
  22337504.263   -12954097.974 3 -10094077.353 2
  21504483.550   -16879812.944 3 -13153037.571 4
  24565566.317    -3874466.470 2  -3019030.887 1
 91  4 13  0 22 15.0030000  0  4 02 13 06 15
  21921816.536    -9960855.574 4  -7761654.243 4
  22330850.076   -12989043.098 3 -10121307.194 2
  21503294.876   -16886062.155 4 -13157907.074 4
  24567852.225    -3862466.665 2  -3009680.352 1
 91  4 13  0 22 30.0030000  0  4 02 13 06 15
  21924502.089    -9946752.752 4  -7750665.034 4
  22324226.462   -13023871.974 3 -10148446.454 2
  21502122.099   -16892216.962 3 -13162703.022 3
  24570169.318    -3850330.188 2  -3000223.329 1
 91  4 13  0 22 45.0030000  0  4 02 13 06 15
  21927192.128    -9932608.637 4  -7739643.651 4
  22317613.039   -13058584.906 3 -10175495.367 2
  21500969.094   -16898277.755 4 -13167425.715 4
  24572493.320    -3838057.475 2  -2990660.157 1
 91  4 13  0 23  0.0030000  0  4 02 13 06 15
  21929888.448    -9918440.366 4  -7728603.448 4
  22311031.096   -13093198.801 3 -10202467.120 2
  21499831.078   -16904261.286 3 -13172088.196 4
  24574855.678    -3825665.498 2  -2981004.038 1
 91  4 13  0 23 15.0030000  0  4 02 13 06 15
  21932594.680    -9904212.988 4  -7717517.188 4
  22304466.847   -13127678.600 3 -10229334.354 2
  21498713.147   -16910132.449 4 -13176663.116 4
  24577249.220    -3813119.549 2  -2971227.975 1
 91  4 13  0 23 30.0030000  0  4 02 13 06 15
  21935310.196    -9889942.478 4  -7706397.312 4
  22297932.858   -13162040.064 3 -10256109.415 1
  21497617.116   -16915907.103 4 -13181162.838 4
  24579661.049    -3800435.770 2  -2961344.507 1
 91  4 13  0 23 45.0030000  0  4 02 13 06 15
  21938031.121    -9875656.896 4  -7695265.699 4
  22291410.577   -13196311.156 3 -10282814.040 2
  21496529.462   -16921612.877 4 -13185608.891 4
  24582092.371    -3787642.037 2  -2951375.347 1
 91  4 13  0 24  0.0030000  0  4 02 13 06 15
  21940758.922    -9861319.525 4  -7684093.719 4
  22284912.570   -13230454.572 3 -10309419.190 2
  21495461.002   -16927212.697 4 -13189972.379 4
  24584557.563    -3774701.537 2  -2941291.826 1
 91  4 13  0 24 15.0030000  0  4 02 13 06 15
  21943496.041    -9846931.232 4  -7672882.065 4
  22278440.964   -13264470.821 3 -10335925.226 2
  21494417.130   -16932707.178 4 -13194253.783 3
  24587049.140    -3761615.201 2  -2931094.685 1
 91  4 13  0 24 30.0030000  0  4 02 13 06 15
  21946241.832    -9832504.261 4  -7661640.275 4
  22271987.019   -13298372.110 3 -10362341.705 2
  21493389.138   -16938108.485 4 -13198462.581 4
  24589558.708    -3748395.180 2  -2920793.331 1
 91  4 13  0 24 45.0030000  0  4 02 13 06 15
  21948996.332    -9818037.393 4  -7650367.399 4
  22265563.070   -13332156.903 3 -10388667.409 2
  21492378.229   -16943414.966 3 -13202597.488 4
  24592100.036    -3735040.450 2  -2910387.037 1
 91  4 13  0 25  0.0030000  0  4 02 13 06 15
  21951753.815    -9803519.274 4  -7639054.581 4
  22259150.516   -13365813.724 3 -10414893.394 2
  21491390.128   -16948614.998 4 -13206649.462 4
  24594671.971    -3721539.588 2  -2899866.863 1
 91  4 13  0 25 15.0030000  0  4 02 13 06 15
  21954527.789    -9788951.614 4  -7627703.166 4
  22252774.818   -13399344.104 3 -10441020.854 2
  21490421.484   -16953710.229 4 -13210619.753 4
  24597273.868    -3707894.274 2  -2889234.107 1
 91  4 13  0 25 30.0030000  0  4 02 13 06 15
  21957307.766    -9774341.467 4  -7616318.637 4
  22246419.222   -13432754.745 3 -10467054.998 2
  21489469.051   -16958707.281 3 -13214513.546 4
  24599879.360    -3694111.308 2  -2878494.111 1
 91  4 13  0 25 45.0030000  0  4 02 13 06 15
  21960099.138    -9759687.243 4  -7604899.765 4
  22240077.708   -13466043.585 3 -10492994.232 2
  21488537.890   -16963604.289 4 -13218329.386 4
  24602545.405    -3680189.272 2  -2867645.779 2
 91  4 13  0 26  0.0030000  0  4 02 13 06 15
  21962890.213    -9745013.801 4  -7593465.919 4
  22233761.095   -13499235.432 3 -10518857.906 2
  21487622.033   -16968425.914 4 -13222086.485 4
  24605210.559    -3666153.290 2  -2856708.623 1
 91  4 13  0 26 15.0030000  0  4 02 13 06 15
  21965693.259    -9730284.861 4  -7581988.820 4
  22227474.445   -13532294.025 3 -10544617.736 2
  21486725.057   -16973135.666 4 -13225756.410 4
  24607908.397    -3651967.119 2  -2845654.457 1
 91  4 13  0 26 30.0030000  0  4 02 13 06 15
  21968501.417    -9715521.369 4  -7570484.800 4
  22221205.175   -13565239.677 3 -10570289.549 2
  21485844.868   -16977753.972 4 -13229355.083 4
  24610636.512    -3637651.342 2  -2834499.286 1
 91  4 13  0 26 45.0030000  0  4 02 13 06 15
  21971316.469    -9700726.613 4  -7558956.416 4
  22214957.509   -13598075.768 3 -10595876.018 2
  21484982.356   -16982284.034 4 -13232884.984 4
  24613383.508    -3623209.457 2  -2823245.833 1
 91  4 13  0 27  0.0030000  0  4 02 13 06 15
  21974145.621    -9685864.715 4  -7547375.713 3
  22208732.318   -13630766.261 3 -10621349.021 2
  21484145.042   -16986689.955 4 -13236318.155 3
  24616168.877    -3608605.518 2  -2811866.163 1
 91  4 13  0 27 15.0030000  0  4 02 13 06 15
  21976983.148    -9670956.290 4  -7535758.763 4
  22202538.311   -13663331.517 3 -10646724.424 2
  21483327.796   -16990991.897 4 -13239670.307 4
  24618964.140    -3593860.358 2  -2800376.369 1
 91  4 13  0 27 30.0030000  0  4 02 13 06 15
  21979827.289    -9656009.981 4  -7524112.277 4
  22196363.481   -13695779.834 3 -10672008.725 2
  21482525.260   -16995198.380 4 -13242948.079 4
  24621801.074    -3578982.457 2  -2788783.169 1
 91  4 13  0 27 45.0030000  0  4 02 13 06 15
  21982675.915    -9641041.512 4  -7512448.541 4
  22190207.533   -13728126.567 3 -10697213.856 2
  21481741.903   -16999324.685 4 -13246163.366 3
  24624654.813    -3563987.525 2  -2777098.852 1
 91  4 13  0 28  0.0030000  0  4 02 13 06 15
  21985528.432    -9626033.545 4  -7500754.021 4
  22184072.281   -13760354.348 3 -10722326.312 2
  21480974.425   -17003353.406 4 -13249302.607 4
  24627531.918    -3548858.430 2  -2765309.903 1
 91  4 13  0 28 15.0030000  0  4 02 13 06 15
  21988397.458    -9610979.456 4  -7489023.554 4
  22177969.120   -13792456.322 3 -10747340.718 2
  21480228.253   -17007277.613 4 -13252360.417 4
  24630439.595    -3533588.422 2  -2753411.144 1
 91  4 13  0 28 30.0030000  0  4 02 13 06 15
  21991268.559    -9595885.058 4  -7477261.688 4
  22171883.025   -13824438.298 3 -10772261.630 2
  21479499.759   -17011102.936 4 -13255341.165 4
  24633370.377    -3518183.473 2  -2741407.316 1
 91  4 13  0 28 45.0030000  0  4 02 13 06 15
  21994148.072    -9580747.078 4  -7465465.856 4
  22165817.032   -13856296.237 3 -10797085.897 2
  21478793.741   -17014825.651 4 -13258241.960 4
  24636326.932    -3502640.015 2  -2729295.475 2
 91  4 13  0 29  0.0030000  0  4 02 13 06 15
  21997038.369    -9565569.630 4  -7453639.265 3
  22159775.610   -13888034.310 3 -10821816.758 2
  21478103.026   -17018449.816 4 -13261065.962 4
  24639305.056    -3486962.545 2  -2717079.222 1
 91  4 13  0 29 15.0030000  0  4 02 13 06 15
  21999934.966    -9550338.394 4  -7441770.762 3
  22153761.776   -13919637.996 3 -10846442.902 2
  21477434.474   -17021960.808 4 -13263801.781 4
  24642323.071    -3471136.714 2  -2704747.402 1
 91  4 13  0 29 30.0030000  0  4 02 13 06 15
  22002844.755    -9535059.071 4  -7429864.790 4
  22147770.418   -13951112.699 3 -10870968.545 2
  21476784.540   -17025363.946 4 -13266453.556 4
  24645363.266    -3455167.850 2  -2692304.102 1
 91  4 13  0 29 45.0030000  0  4 02 13 06 15
  22005758.435    -9519747.443 4  -7417933.651 3
  22141808.447   -13982473.921 3 -10895405.745 2
  21476153.767   -17028674.866 4 -13269033.477 4
  24648424.453    -3439072.075 2  -2679761.909 1
 91  4 13  0 30  0.0030000  0  4 02 13 06 15
  22008680.805    -9504389.079 4  -7405966.087 3
  22135863.262   -14013707.281 3 -10919743.331 2
  21475544.283   -17031878.895 4 -13271530.100 4
  24651515.305    -3422835.038 2  -2667109.682 1
 91  4 13  0 30 15.0030000  0  4 02 13 06 15
  22011613.681    -9488986.233 4  -7393963.863 3
  22129944.166   -14044814.986 3 -10943983.000 2
  21474955.199   -17034978.222 4 -13273945.143 4
  24654625.649    -3406459.008 2  -2654349.113 1
 91  4 13  0 30 30.0030000  0  4 02 13 06 15
  22014552.245    -9473533.644 4  -7381922.875 3
  22124048.435   -14075791.330 3 -10968120.314 1
  21474385.589   -17037967.321 4 -13276274.290 4
  24657775.885    -3389938.945 2  -2641476.339 1
 91  4 13  0 30 45.0030000  0  4 02 13 06 15
  22017498.610    -9458049.000 4  -7369856.916 4
  22118173.104   -14106653.610 3 -10992168.740 2
  21473835.174   -17040863.362 4 -13278530.920 4
  24660942.279    -3373292.436 2  -2628505.019 2
 91  4 13  0 31  0.0030000  0  4 02 13 06 15
  22020453.351    -9442518.052 4  -7357754.878 3
  22112327.752   -14137387.374 3 -11016117.029 2
  21473304.548   -17043652.070 4 -13280703.910 4
  24664136.873    -3356505.114 2  -2615423.951 1
 91  4 13  0 31 15.0030000  0  4 02 13 06 15
  22023412.908    -9426967.186 4  -7345637.310 3
  22106496.186   -14168019.041 3 -11039985.767 2
  21472789.801   -17046359.442 4 -13282813.539 4
  24667354.553    -3339603.567 2  -2602253.920 1
 91  4 13  0 31 30.0030000  0  4 02 13 06 15
  22026379.357    -9411371.848 4  -7333485.102 4
  22100694.303   -14198523.793 3 -11063755.595 2
  21472294.843   -17048960.888 4 -13284840.621 4
  24670589.614    -3322563.405 2  -2588975.828 1
 91  4 13  0 31 45.0030000  0  4 02 13 06 15
  22029355.387    -9395737.873 4  -7321302.775 4
  22094912.208   -14228907.112 3 -11087430.822 2
  21471816.376   -17051461.808 4 -13286789.370 4
  24673860.047    -3305390.166 2  -2575594.079 1
 91  4 13  0 32  0.0030000  0  4 02 13 06 15
  22032339.235    -9380057.041 4  -7309083.937 4
  22089154.701   -14259160.697 3 -11111004.953 2
  21471360.384   -17053853.774 4 -13288653.218 4
  24677158.958    -3288076.008 2  -2562102.512 1
 91  4 13  0 32 15.0030000  0  4 02 13 06 15
  22035335.647    -9364320.163 4  -7296821.431 4
  22083427.470   -14289275.123 3 -11134470.644 2
  21470930.777   -17056127.477 4 -13290424.923 4
  24680476.454    -3270612.000 2  -2548494.188 1
 91  4 13  0 32 30.0030000  0  4 02 13 06 15
  22038334.187    -9348542.581 4  -7284527.210 4
  22077715.821   -14319265.678 3 -11157839.809 2
  21470519.162   -17058298.058 4 -13292116.266 4
  24683831.433    -3253013.340 2  -2534780.934 1
 91  4 13  0 32 45.0030000  0  4 02 13 06 15
  22041347.997    -9332725.504 4  -7272202.203 4
  22072030.854   -14349133.565 3 -11181113.406 2
  21470122.239   -17060366.514 4 -13293728.026 4
  24687202.309    -3235281.136 2  -2520963.613 1
 91  4 13  0 33  0.0030000  0  4 02 13 06 15
  22044365.698    -9316858.019 4  -7259837.925 4
  22066374.366   -14378867.805 3 -11204282.855 2
  21469751.701   -17062321.574 4 -13295251.436 4
  24690606.742    -3217404.563 2  -2507033.802 1
 91  4 13  0 33 15.0030000  0  4 02 13 06 15
  22047392.107    -9300952.569 4  -7247444.072 4
  22060736.463   -14408480.008 3 -11227357.199 2
  21469396.153   -17064175.424 4 -13296695.980 4
  24694035.483    -3199395.993 2  -2493001.128 1
 91  4 13  0 33 30.0030000  0  4 02 13 06 15
  22050427.206    -9285007.415 4  -7235019.275 4
  22055123.757   -14437968.433 3 -11250335.099 2
  21469067.269   -17065926.117 4 -13298060.143 4
  24697482.494    -3181253.831 2  -2478864.380 1
 91  4 13  0 33 45.0030000  0  4 02 13 06 15
  22053467.993    -9269025.688 4  -7222565.970 3
  22049536.826   -14467336.301 3 -11273219.077 2
  21468750.687   -17067576.663 4 -13299346.274 4
  24700964.877    -3162981.493 2  -2464626.169 1
 91  4 13  0 34  0.0030000  0  4 02 13 06 15
  22056513.894    -9253019.653 4  -7210093.724 4
  22043970.573   -14496595.288 3 -11296018.185 2
  21468455.691   -17069138.901 4 -13300563.587 4
  24704464.047    -3144591.105 2  -2450296.001 1
 91  4 13  0 34 15.0030000  0  4 02 13 06 15
  22059573.284    -9236939.228 4  -7197563.518 4
  22038431.315   -14525695.308 3 -11318693.437 2
  21468182.892   -17070562.662 4 -13301672.998 4
  24707985.414    -3126032.703 2  -2435834.901 1
 91  4 13  0 34 30.0030000  0  4 02 13 06 15
  22062644.644    -9220804.616 4  -7184991.097 4
  22032921.130   -14554656.463 3 -11341260.477 2
  21467936.460   -17071867.895 4 -13302690.054 4
  24711553.547    -3107326.493 2  -2421258.624 1
 91  4 13  0 34 45.0030000  0  4 02 13 06 15
  22065723.526    -9204618.167 4  -7172378.278 4
  22027437.329   -14583480.763 3 -11363720.883 2
  21467708.019   -17073056.651 4 -13303616.341 4
  24715142.969    -3088474.944 2  -2406569.096 1
 91  4 13  0 35  0.0030000  0  4 02 13 06 15
  22068811.987    -9188389.206 4  -7159732.335 3
  22021975.411   -14612177.536 3 -11386081.905 2
  21467504.759   -17074138.215 4 -13304459.109 3
  24718754.257    -3069487.544 2  -2391773.709 1
 91  4 13  0 35 15.0030000  0  4 02 13 06 15
  22071911.530    -9172106.974 4  -7147044.882 4
  22016541.361   -14640735.653 3 -11408334.898 2
  21467319.786   -17075101.385 4 -13305209.616 3
  24722391.650    -3050353.558 2  -2376864.093 1
 91  4 13  0 35 30.0030000  0  4 02 13 06 15
  22075017.686    -9155790.378 4  -7134330.655 4
  22011130.415   -14669174.137 3 -11430494.667 2
  21467155.493   -17075964.946 4 -13305882.512 4
  24726059.599    -3031091.985 2  -2361855.071 1
 91  4 13  0 35 45.0030000  0  4 02 13 06 15
  22078128.938    -9139430.939 4  -7121583.037 3
  22005744.335   -14697484.387 3 -11452554.530 2
  21467010.097   -17076720.312 3 -13306471.101 4
  24729753.653    -3011694.269 2  -2346739.955 1
 91  4 13  0 36  0.0030000  0  4 02 13 06 15
  22081250.066    -9123023.135 4  -7108797.731 4
  22000382.860   -14725660.553 3 -11474509.885 2
  21466889.586   -17077361.613 3 -13306970.807 3
  24733468.368    -2992155.215 2  -2331514.706 1
 91  4 13  0 36 15.0030000  0  4 02 13 06 15
  22084382.607    -9106566.899 4  -7095974.692 3
  21995043.251   -14753702.356 3 -11496360.556 2
  21466788.253   -17077888.514 4 -13307381.370 4
  24737211.283    -2972474.708 2  -2316179.241 1
 91  4 13  0 36 30.0030000  0  4 02 13 06 15
  22087521.727    -9090065.174 4  -7083116.203 3
  21989735.418   -14781612.570 3 -11518108.701 2
  21466710.913   -17078303.862 3 -13307705.002 4
  24740985.974    -2952655.795 2  -2300735.923 1
 91  4 13  0 36 45.0030000  0  4 02 13 06 15
  22090669.240    -9073530.716 4  -7070232.212 3
  21984443.483   -14809403.632 3 -11539763.980 2
  21466650.047   -17078620.106 4 -13307951.421 4
  24744777.749    -2932711.161 2  -2285194.631 1
 91  4 13  0 37  0.0030000  0  4 02 13 06 15
  22093825.461    -9056951.526 4  -7057313.365 3
  21979182.434   -14837063.443 3 -11561316.993 2
  21466608.969   -17078824.924 3 -13308111.009 3
  24748603.395    -2912628.932 2  -2269546.110 2
 91  4 13  0 37 15.0030000  0  4 02 13 06 15
  22096988.278    -9040327.720 4  -7044359.758 3
  21973944.158   -14864592.174 3 -11582767.888 2
  21466591.292   -17078918.340 3 -13308183.792 4
  24752451.535    -2892409.449 2  -2253790.645 1
 91  4 13  0 37 30.0030000  0  4 02 13 06 15
  22100159.175    -9023667.288 4  -7031377.602 3
  21968728.672   -14891997.479 3 -11604122.586 2
  21466595.184   -17078908.255 3 -13308175.920 4
  24756319.149    -2872060.972 2  -2237934.671 1
 91  4 13  0 37 45.0030000  0  4 02 13 06 15
  22103331.886    -9006986.103 4  -7018379.278 3
  21963528.768   -14919295.056 3 -11625393.347 2
  21466613.768   -17078810.287 4 -13308099.563 3
  24760219.150    -2851599.200 2  -2221990.433 1
 91  4 13  0 38  0.0030000  0  4 02 13 06 15
  22106514.771    -8990253.888 4  -7005341.179 3
  21958366.034   -14946454.757 3 -11646556.669 2
  21466653.345   -17078593.953 3 -13307930.984 3
  24764138.940    -2830994.191 2  -2205934.560 1
 91  4 13  0 38 15.0030000  0  4 02 13 06 15
  22109708.475    -8973482.924 4  -6992272.906 3
  21953222.495   -14973488.428 3 -11667621.791 2
  21466716.305   -17078271.195 3 -13307679.480 3
  24768084.819    -2810258.233 2  -2189776.661 1
 91  4 13  0 38 30.0030000  0  4 02 13 06 15
  22112909.054    -8956666.583 4  -6979169.265 3
  21948102.043   -15000389.342 3 -11688583.459 2
  21466800.538   -17077835.154 3 -13307339.699 3
  24772048.967    -2789384.566 2  -2173511.487 1
 91  4 13  0 38 45.0030000  0  4 02 13 06 15
  22116113.525    -8939819.094 4  -6966041.349 3
  21943001.973   -15027171.622 3 -11709452.683 2
  21466900.981   -17077299.921 3 -13306922.627 4
  24776051.489    -2768387.786 2  -2157150.333 1
 91  4 13  0 39  0.0030000  0  4 02 13 06 15
  22119329.111    -8922918.348 4  -6952871.941 3
  21937934.883   -15053813.100 3 -11730212.200 2
  21467025.087   -17076643.304 3 -13306410.967 4
  24780074.706    -2747245.883 2  -2140676.097 1
 91  4 13  0 39 15.0030000  0  4 02 13 06 15
  22122555.482    -8905976.780 4  -6939670.730 3
  21932891.177   -15080325.912 3 -11750871.459 2
  21467171.983   -17075877.386 4 -13305814.146 4
  24784122.511    -2725971.063 2  -2124098.287 1
 91  4 13  0 39 30.0030000  0  4 02 13 06 15
  22125779.148    -8889018.437 4  -6926456.443 3
  21927862.757   -15106733.988 3 -11771449.111 2
  21467334.776   -17075025.892 3 -13305150.638 3
  24788189.494    -2704587.637 2  -2107435.895 1
 91  4 13  0 39 45.0030000  0  4 02 13 06 15
  22129016.303    -8872026.486 4  -6913215.968 3
  21922858.925   -15133020.284 3 -11791931.867 2
  21467514.950   -17074071.879 4 -13304407.239 3
  24792291.848    -2683079.093 2  -2090675.981 1
